[[{"header":{"parameterUnit":"m.s-1","parameterCategory":1,"la1":30.6,"la2":28.766,"lo1":-90.7593,"lo2":-88.6598,"dy":0.0162,"dx":0.0183,"nx":116,"ny":114,"refTime":"2023-03-05T06:00:00:Z","depth":0,"parameterNumber":2,"parameterNumberName":"U-component_of_WINDS"},"data":[0.0,0.0,0.0,0.0,0.0,0.0,0.0,0.0,0.0,0.0,0.0,0.0,0.0,0.0,0.0,0.0,0.0,0.0,0.0,0.0,0.0,0.0,0.0,0.0,0.0,0.0,0.0,0.0,0.0,0.0,0.0,0.0,0.0,0.0,0.0,0.0,0.0,0.0,0.0,0.0,0.0,0.0,0.0,0.0,0.0,0.0,0.0,0.0,0.0,0.0,0.0,0.0,0.0,0.0,0.0,0.0,0.0,0.0,0.0,0.0,0.0,0.0,0.0,0.0,0.0,0.0,0.0,0.0,0.0,0.0,0.0,0.0,0.0,0.0,0.0,0.0,0.0,0.0,0.0,0.0,0.0,0.0,0.0,0.0,0.0,0.0,0.0,0.0,0.0,0.0,0.0,0.0,0.0,0.0,0.0,0.0,0.0,0.0,0.0,0.0,0.0,0.0,0.0,0.0,0.0,0.0,0.0,0.0,0.0,0.0,0.0,0.0,0.0,0.0,0.0,0.0,0.0,0.0,0.0,0.0,0.0,0.0,0.0,0.0,0.0,0.0,0.0,0.0,0.0,0.0,0.0,0.0,0.0,0.0,0.0,0.0,0.0,0.0,0.0,0.0,0.0,0.0,0.0,0.0,0.0,0.0,0.0,0.0,0.0,0.0,0.0,0.0,0.0,0.0,0.0,0.0,0.0,0.0,0.0,0.0,0.0,0.0,0.0,0.0,0.0,0.0,0.0,0.0,0.0,0.0,0.0,0.0,0.0,0.0,0.0,0.0,0.0,0.0,0.0,0.0,0.0,0.0,0.0,0.0,0.0,0.0,0.0,0.0,0.0,0.0,0.0,0.0,0.0,0.0,0.0,0.0,0.0,0.0,0.0,0.0,0.0,0.0,0.0,0.0,0.0,0.0,0.0,0.0,0.0,0.0,0.0,0.0,0.0,0.0,0.0,0.0,0.0,0.0,0.0,0.0,0.0,0.0,0.0,0.0,0.0,0.0,0.0,0.0,0.0,0.0,0.0,0.0,0.0,0.0,0.0,0.0,0.0,0.0,0.0,0.0,0.0,0.0,0.0,0.0,0.0,0.0,0.0,0.0,0.0,0.0,0.0,0.0,0.0,0.0,0.0,0.0,0.0,0.0,0.0,0.0,0.0,0.0,0.0,0.0,0.0,0.0,0.0,0.0,0.0,0.0,0.0,0.0,0.0,0.0,0.0,0.0,0.0,0.0,0.0,0.0,0.0,0.0,0.0,0.0,0.0,0.0,0.0,0.0,0.0,0.0,0.0,0.0,0.0,0.0,0.0,0.0,0.0,0.0,0.0,0.0,0.0,0.0,0.0,0.0,0.0,0.0,0.0,0.0,0.0,0.0,0.0,0.0,0.0,0.0,0.0,0.0,0.0,0.0,0.0,0.0,0.0,0.0,0.0,0.0,0.0,0.0,0.0,0.0,0.0,0.0,0.0,0.0,0.0,0.0,0.0,0.0,0.0,0.0,0.0,0.0,0.0,0.0,0.0,0.0,0.0,0.0,0.0,0.0,0.0,0.0,0.0,0.0,0.0,0.0,0.0,0.0,0.0,0.0,0.0,0.0,0.0,0.0,0.0,0.0,0.0,0.0,0.0,0.0,0.0,0.0,0.0,0.0,0.0,0.0,0.0,0.0,0.0,0.0,0.0,0.0,0.0,0.0,0.0,0.0,0.0,0.0,0.0,0.0,0.0,0.0,0.0,0.0,0.0,0.0,0.0,0.0,0.0,0.0,0.0,0.0,0.0,0.0,0.0,0.0,0.0,0.0,0.0,0.0,0.0,0.0,0.0,0.0,0.0,0.0,0.0,0.0,0.0,0.0,0.0,0.0,0.0,0.0,0.0,0.0,0.0,0.0,0.0,0.0,0.0,0.0,0.0,0.0,0.0,0.0,0.0,0.0,0.0,0.0,0.0,0.0,0.0,0.0,0.0,0.0,0.0,0.0,0.0,0.0,0.0,0.0,0.0,0.0,0.0,0.0,0.0,0.0,0.0,0.0,0.0,0.0,0.0,0.0,0.0,0.0,0.0,0.0,0.0,0.0,0.0,0.0,0.0,0.0,0.0,0.0,0.0,0.0,0.0,0.0,0.0,0.0,0.0,0.0,0.0,0.0,0.0,0.0,0.0,0.0,0.0,0.0,0.0,0.0,0.0,0.0,0.0,0.0,0.0,0.0,0.0,0.0,0.0,0.0,0.0,0.0,0.0,0.0,0.0,0.0,0.0,0.0,0.0,0.0,0.0,0.0,0.0,0.0,0.0,0.0,0.0,0.0,0.0,0.0,0.0,0.0,0.0,0.0,0.0,0.0,0.0,0.0,0.0,0.0,0.0,0.0,0.0,0.0,0.0,0.0,0.0,0.0,0.0,0.0,0.0,0.0,0.0,0.0,0.0,0.0,0.0,0.0,0.0,0.0,0.0,0.0,0.0,0.0,0.0,0.0,0.0,0.0,0.0,0.0,0.0,0.0,0.0,0.0,0.0,0.0,0.0,0.0,0.0,0.0,0.0,0.0,0.0,0.0,0.0,0.0,0.0,0.0,0.0,0.0,0.0,0.0,0.0,0.0,0.0,0.0,0.0,0.0,0.0,0.0,0.0,0.0,0.0,0.0,0.0,0.0,0.0,0.0,0.0,0.0,0.0,0.0,0.0,0.0,0.0,0.0,0.0,0.0,0.0,0.0,0.0,0.0,0.0,0.0,0.0,0.0,0.0,0.0,0.0,0.0,0.0,0.0,0.0,0.0,0.0,0.0,0.0,0.0,0.0,0.0,0.0,0.0,0.0,0.0,0.0,0.0,0.0,0.0,0.0,0.0,0.0,0.0,0.0,0.0,0.0,0.0,0.0,0.0,0.0,0.0,0.0,0.0,0.0,0.0,0.0,0.0,0.0,0.0,0.0,0.0,0.0,0.0,0.0,0.0,0.0,0.0,0.0,0.0,0.0,0.0,0.0,0.0,0.0,0.0,0.0,0.0,0.0,0.0,0.0,0.0,0.0,0.0,0.0,0.0,0.0,0.0,0.0,0.0,0.0,0.0,0.0,0.0,0.0,0.0,0.0,0.0,0.0,0.0,0.0,0.0,0.0,0.0,0.0,0.0,0.0,0.0,0.0,0.0,0.0,0.0,0.0,0.0,0.0,0.0,0.0,0.0,0.0,0.0,0.0,0.0,0.0,0.0,0.0,0.0,0.0,0.0,0.0,0.0,0.0,0.0,0.0,0.0,0.0,0.0,0.0,0.0,0.0,0.0,0.0,0.0,0.0,0.0,0.0,0.0,0.0,0.0,0.0,0.0,0.0,0.0,0.0,0.0,0.0,0.0,0.0,0.0,0.0,0.0,0.0,0.0,0.0,0.0,0.0,0.0,0.0,0.0,0.0,0.0,0.0,0.0,0.0,0.0,0.0,0.0,0.0,0.0,0.0,0.0,0.0,0.0,0.0,0.0,0.0,0.0,0.0,0.0,0.0,0.0,0.0,0.0,0.0,0.0,0.0,0.0,0.0,0.0,0.0,0.0,0.0,0.0,0.0,0.0,0.0,0.0,0.0,0.0,0.0,0.0,0.0,0.0,0.0,0.0,0.0,0.0,0.0,0.0,0.0,0.0,0.0,0.0,0.0,0.0,0.0,0.0,0.0,0.0,0.0,0.0,0.0,0.0,0.0,0.0,0.0,0.0,0.0,0.0,0.0,0.0,0.0,0.0,0.0,0.0,0.0,0.0,0.0,0.0,0.0,0.0,0.0,0.0,0.0,0.0,0.0,0.0,0.0,0.0,0.0,0.0,0.0,0.0,0.0,0.0,0.0,0.0,0.0,0.0,0.0,0.0,0.0,0.0,0.0,0.0,0.0,0.0,0.0,0.0,0.0,0.0,0.0,0.0,0.0,0.0,0.0,0.0,0.0,0.0,0.0,0.0,0.0,0.0,0.0,0.0,0.0,0.0,0.0,0.0,0.0,0.0,0.0,0.0,0.0,0.0,0.0,0.0,0.0,0.0,0.0,0.0,0.0,0.0,0.0,0.0,0.0,0.0,0.0,0.0,0.0,0.0,0.0,0.0,0.0,0.0,0.0,0.0,0.0,0.0,0.0,0.0,0.0,0.0,0.0,0.0,0.0,0.0,0.0,0.0,0.0,0.0,0.0,0.0,0.0,0.0,0.0,0.0,0.0,0.0,0.0,0.0,0.0,0.0,0.0,0.0,0.0,0.0,0.0,0.0,0.0,0.0,0.0,0.0,0.0,0.0,0.0,0.0,0.0,0.0,0.0,0.0,0.0,0.0,0.0,0.0,0.0,0.0,0.0,0.0,0.0,0.0,0.0,0.0,0.0,0.0,0.0,0.0,0.0,0.0,0.0,0.0,0.0,0.0,0.0,0.0,0.0,0.0,0.0,0.0,0.0,0.0,0.0,0.0,0.0,0.0,0.0,0.0,0.0,0.0,0.0,0.0,0.0,0.0,0.0,0.0,0.0,0.0,0.0,0.0,0.0,0.0,0.0,0.0,0.0,0.0,0.0,0.0,0.0,0.0,0.0,0.0,0.0,0.0,0.0,0.0,0.0,0.0,0.0,0.0,0.0,0.0,0.0,0.0,0.0,0.0,0.0,0.0,0.0,0.0,0.0,0.0,0.0,0.0,0.0,0.0,0.0,0.0,0.0,0.0,0.0,0.0,0.0,0.0,0.0,0.0,0.0,0.0,0.0,0.0,0.0,0.0,0.0,0.0,0.0,0.0,0.0,0.0,0.0,0.0,0.0,0.0,0.0,0.0,0.0,0.0,0.0,0.0,0.0,0.0,0.0,0.0,0.0,0.0,0.0,0.0,0.0,0.0,0.0,0.0,0.0,0.0,0.0,0.0,0.0,0.0,0.0,0.0,0.0,0.0,0.0,0.0,0.0,0.0,0.0,0.0,0.0,0.0,0.0,0.0,0.0,0.0,0.0,0.0,0.0,0.0,0.0,0.0,0.0,0.0,0.0,0.0,0.0,0.0,0.0,0.0,0.0,0.0,0.0,0.0,0.0,0.0,0.0,0.0,0.0,0.0,0.0,0.0,0.0,0.0,0.0,0.0,0.0,0.0,0.0,0.0,0.0,0.0,0.0,0.0,0.0,0.0,0.0,0.0,0.0,0.0,0.0,0.0,0.0,0.0,0.0,0.0,0.0,0.0,0.0,0.0,0.0,0.0,0.0,0.0,0.0,0.0,0.0,0.0,0.0,0.0,0.0,0.0,0.0,0.0,0.0,0.0,0.0,0.0,0.0,0.0,0.0,0.0,0.0,0.0,0.0,0.0,0.0,0.0,0.0,0.0,0.0,0.0,0.0,0.0,0.0,0.0,0.0,0.0,0.0,0.0,0.0,0.0,0.0,0.0,0.0,0.0,0.0,0.0,0.0,0.0,0.0,0.0,0.0,0.0,0.0,0.0,0.0,0.0,0.0,0.0,0.0,0.0,0.0,0.0,0.0,0.0,0.0,0.0,0.0,0.0,0.0,0.0,0.0,0.0,0.0,0.0,0.0,0.0,0.0,0.0,0.0,0.0,0.0,0.0,0.0,0.0,0.0,0.0,0.0,0.0,0.0,0.0,0.0,0.0,0.0,0.0,0.0,0.0,0.0,0.0,0.0,0.0,0.0,0.0,0.0,0.0,0.0,0.0,0.0,0.0,0.0,0.0,0.0,0.0,0.0,0.0,0.0,0.0,0.0,0.0,0.0,0.0,0.0,0.0,0.0,0.0,0.0,0.0,0.0,0.0,0.0,0.0,0.0,0.0,0.0,0.0,0.0,0.0,0.0,0.0,0.0,0.0,0.0,0.0,0.0,0.0,0.0,0.0,0.0,0.0,0.0,0.0,0.0,0.0,0.0,0.0,0.0,0.0,0.0,0.0,0.0,0.0,0.0,0.0,0.0,0.0,0.0,0.0,0.0,0.0,0.0,0.0,0.0,0.0,0.0,0.0,0.0,0.0,0.0,0.0,0.0,0.0,0.0,0.0,0.0,0.0,0.0,0.0,0.0,0.0,0.0,0.0,0.0,0.0,0.0,0.0,0.0,0.0,0.0,0.0,0.0,0.0,0.0,0.0,0.0,0.0,-7.7131,0.0,0.0,0.0,0.0,0.0,0.0,0.0,0.0,0.0,0.0,0.0,0.0,0.0,0.0,0.0,0.0,0.0,0.0,0.0,0.0,0.0,0.0,0.0,0.0,0.0,0.0,0.0,0.0,0.0,0.0,0.0,0.0,0.0,0.0,0.0,0.0,0.0,0.0,-0.8526,-0.7659,-0.6984,-0.6326,-0.5209,-0.3133,-0.0464,0.0,0.0,0.0,0.0,0.0,0.0,0.0,0.0,0.0,0.0,0.0,0.0,0.0,0.0,0.0,0.0,0.0,0.0,0.0,0.0,0.0,0.0,0.0,0.0,0.0,0.0,0.0,0.0,0.0,0.0,0.0,0.0,0.0,0.0,0.0,0.0,0.0,0.0,0.0,0.0,0.0,0.0,0.0,0.0,0.0,0.0,0.0,0.0,0.0,0.0,0.0,0.0,0.0,0.0,0.0,0.0,0.0,0.0,0.0,0.0,0.0,0.0,0.0,0.0,0.0,0.0,0.0,0.0,0.0,0.0,0.0,-7.7716,0.0,0.0,0.0,0.0,0.0,0.0,0.0,0.0,0.0,0.0,0.0,0.0,0.0,0.0,0.0,0.0,0.0,0.0,0.0,0.0,0.0,0.0,0.0,0.0,-1.9888,-2.0743,-1.8705,-1.7147,0.0,0.0,0.0,0.0,0.0,0.0,0.0,-1.2134,-1.1345,-1.0004,-0.9864,-0.9094,-0.7986,-0.8306,-0.7405,-0.5207,-0.3458,0.0,0.0,0.0,0.0,0.0,0.0,0.0,0.0,0.0,0.0,0.0,0.0,0.0,0.0,0.0,0.0,0.0,0.0,0.0,0.0,0.0,0.0,0.0,0.0,0.0,0.0,0.0,0.0,0.0,0.0,0.0,0.0,0.0,0.0,0.0,0.0,0.0,0.0,0.0,0.0,0.0,0.0,0.0,0.0,0.0,0.0,0.0,0.0,0.0,0.0,0.0,0.0,0.0,0.0,0.0,0.0,0.0,0.0,0.0,0.0,0.0,0.0,0.0,-7.8314,-7.8551,-7.8685,-7.9134,-7.9903,-8.0766,-7.9803,-7.9741,-8.0239,-7.8353,0.0,0.0,0.0,0.0,0.0,0.0,0.0,0.0,0.0,0.0,0.0,0.0,0.0,0.0,0.0,0.0,0.0,0.0,0.0,0.0,0.0,-2.5353,-2.3107,-2.2128,-2.0845,-1.9379,0.0,0.0,0.0,0.0,0.0,0.0,-1.4745,-1.3145,-1.1878,-1.0904,-0.9838,-0.9034,-0.857,-1.0514,-1.1138,-1.0768,-0.865,-0.7381,-0.7064,0.0,0.0,0.0,0.0,0.0,0.0,0.0,0.0,0.0,0.0,0.0,0.0,0.0,0.0,0.0,0.0,0.0,0.0,0.0,0.0,0.0,0.0,0.0,0.0,0.0,0.0,0.0,0.0,0.0,0.0,0.0,0.0,0.0,0.0,0.0,0.0,0.0,0.0,0.0,0.0,0.0,-6.7981,-6.8322,0.0,0.0,0.0,0.0,0.0,0.0,0.0,0.0,0.0,0.0,0.0,0.0,0.0,-7.6519,-7.7684,-7.8409,-7.8904,-7.9201,-8.029,-8.0847,-8.0912,-8.2162,-8.283,-8.2974,-8.283,0.0,-8.1465,-8.1113,0.0,0.0,0.0,0.0,0.0,0.0,0.0,0.0,0.0,0.0,0.0,0.0,0.0,0.0,0.0,0.0,0.0,0.0,0.0,0.0,0.0,-2.5768,-2.3529,-2.248,-2.0709,-1.9337,-1.8496,-1.8485,0.0,0.0,0.0,-1.6424,-1.5749,-1.4725,-1.3649,-1.2596,-1.0405,-0.9278,-0.9004,-0.9988,-1.0969,-1.194,-1.1015,-1.1225,-1.2512,-1.4851,0.0,0.0,0.0,0.0,0.0,0.0,0.0,0.0,0.0,0.0,0.0,0.0,0.0,0.0,0.0,0.0,0.0,0.0,0.0,0.0,0.0,0.0,0.0,0.0,0.0,0.0,0.0,0.0,0.0,0.0,0.0,0.0,0.0,0.0,0.0,0.0,0.0,0.0,0.0,-6.6588,-6.8431,-6.9573,-6.9382,-6.9069,0.0,0.0,0.0,0.0,0.0,0.0,0.0,0.0,0.0,-7.697,-7.7089,-7.787,-7.9539,-7.9777,-8.0004,-8.0221,-8.0972,-8.1359,-8.1335,-8.2232,-8.265,-8.2727,-8.3699,-8.3843,-8.3286,-8.2098,-8.1582,-8.1475,0.0,0.0,0.0,0.0,-8.1003,-8.1128,0.0,0.0,0.0,0.0,0.0,0.0,0.0,0.0,0.0,0.0,0.0,0.0,-2.9163,-2.6337,-2.408,-2.3073,-2.1174,-1.9782,-1.9029,-1.9018,0.0,-1.8289,-1.6836,-1.5912,-1.5659,-1.5069,-1.4114,-1.2594,-1.0639,-0.9657,-0.9574,-1.0398,-1.1386,-1.2701,-1.3686,-1.4708,-1.5906,-1.752,-1.8808,-1.9836,0.0,0.0,0.0,0.0,0.0,0.0,0.0,0.0,0.0,0.0,0.0,0.0,0.0,0.0,0.0,0.0,0.0,0.0,0.0,0.0,0.0,0.0,0.0,0.0,0.0,0.0,0.0,0.0,0.0,0.0,0.0,0.0,0.0,0.0,0.0,0.0,0.0,-6.7418,-6.9194,-7.0578,-7.0731,-7.0272,0.0,0.0,0.0,0.0,0.0,0.0,-7.5284,-7.4854,-7.5771,-7.8178,-7.8255,-7.9057,-8.0723,-8.0614,-8.0614,-8.0723,-8.1137,-8.1285,-8.1259,-8.1986,-8.2493,-8.2766,-8.41,-8.4824,-8.4902,-8.3377,-8.3155,-8.3633,-8.2937,-8.267,-8.2626,-8.2665,-8.2837,-8.3158,0.0,0.0,0.0,0.0,0.0,0.0,0.0,0.0,0.0,0.0,0.0,-3.024,-3.0522,-2.8325,-2.607,-2.4227,-2.3417,-2.2001,-1.9849,-1.9704,-1.8821,-1.6911,-1.6755,-1.5963,-1.4509,-1.3447,-1.1623,-0.9401,-1.0277,-1.0398,-1.007,-1.3045,-1.4533,-1.4691,-1.8146,-1.7684,-1.47,-1.6607,-1.8906,-2.1105,-2.0531,0.0,0.0,0.0,0.0,0.0,0.0,0.0,0.0,0.0,0.0,0.0,0.0,0.0,0.0,0.0,0.0,0.0,0.0,0.0,0.0,0.0,0.0,0.0,0.0,0.0,0.0,0.0,0.0,0.0,0.0,0.0,0.0,0.0,0.0,0.0,0.0,0.0,0.0,-7.0569,-7.2474,0.0,0.0,0.0,0.0,-7.3587,-7.4012,-7.5128,-7.7004,-7.6931,-7.7836,-8.0005,-8.0081,-8.02,-8.0506,-8.0506,-8.0506,-8.0543,-8.0837,-8.1022,-8.1051,-8.2415,-8.3498,-8.4315,-8.4596,-8.5195,-8.5936,-8.5886,-8.5808,-8.5453,-8.3608,-8.2802,-8.2727,-8.2844,-8.3388,-8.4276,0.0,0.0,0.0,0.0,0.0,0.0,0.0,0.0,-3.235,-3.3661,-3.3173,-3.2261,-3.0854,-2.867,-2.631,-2.3958,-2.2534,-2.1455,-2.0399,-2.0388,-2.0027,-1.9413,-1.7624,-1.5955,-1.4251,-1.2949,-1.1944,-1.1613,-1.0981,-1.057,-1.057,-1.2229,-1.3549,-1.4863,-1.7164,-1.8272,-1.8494,-2.0358,-2.2294,-2.4026,-2.4877,-2.6702,0.0,0.0,0.0,0.0,0.0,0.0,0.0,0.0,0.0,0.0,0.0,0.0,0.0,0.0,0.0,0.0,0.0,0.0,0.0,0.0,0.0,0.0,0.0,0.0,0.0,0.0,0.0,0.0,0.0,0.0,0.0,0.0,0.0,0.0,0.0,0.0,0.0,-7.1717,-7.2583,0.0,-7.288,-7.3957,-7.5043,-7.5865,-7.718,-7.8066,-7.829,-7.8803,-7.9201,-7.9553,-8.0087,-8.0431,-8.0506,-8.115,-8.1418,-8.142,-8.2324,-8.2708,-8.2678,-8.3308,-8.3829,-8.4378,-8.4988,-8.5559,-8.6033,-8.6644,-8.648,-8.5927,-8.5781,-8.5348,-8.4819,-8.4858,-8.5078,-8.54,0.0,0.0,0.0,0.0,0.0,0.0,0.0,0.0,-3.158,-3.4132,-3.2973,-3.1835,-3.1528,-2.8742,-2.6359,-2.485,-2.3129,-2.1888,-2.1402,-2.1024,-2.0784,-2.0388,-1.7663,-1.5565,-1.3967,-1.2833,-1.2421,-1.2742,-1.1689,-1.1237,-1.1237,-1.2063,-1.3217,-1.4533,-1.6353,-1.8155,-1.9937,-2.1541,-2.3729,-2.6047,-2.6402,-2.7688,-2.936,0.0,0.0,0.0,0.0,0.0,0.0,0.0,0.0,0.0,0.0,0.0,0.0,0.0,0.0,0.0,0.0,0.0,0.0,0.0,0.0,0.0,0.0,0.0,0.0,0.0,0.0,0.0,0.0,0.0,0.0,0.0,0.0,0.0,0.0,-6.9947,-7.229,-7.1865,-7.3083,-7.3924,-7.3833,-7.5257,-7.6604,-7.7741,-7.9085,-7.9718,-7.9236,-7.9768,-7.9888,-7.9476,-8.0276,-8.0734,-8.0734,-8.1308,-8.1614,-8.1652,-8.2141,-8.2583,-8.2924,-8.3182,-8.3822,-8.4686,-8.5421,-8.5987,-8.6462,-8.7039,-8.6912,-8.6423,-8.6753,-8.6519,-8.5985,-8.5692,-8.5738,-8.6001,0.0,0.0,0.0,0.0,0.0,0.0,0.0,-2.9735,-3.0153,-3.4516,-3.0641,-2.8988,-3.2521,-2.8711,-2.6357,-2.7331,-2.5318,-2.3587,-2.2831,-2.1858,-2.0637,-1.9197,-1.6832,-1.4761,-1.3336,-1.3315,-1.3058,-1.2069,-1.2069,-1.2069,-1.2235,-1.3058,-1.3714,-1.4217,-1.5867,-1.7346,-1.8645,-1.9612,-2.2669,-2.6807,-2.4842,-2.5607,-2.7969,0.0,0.0,0.0,0.0,0.0,0.0,0.0,0.0,0.0,0.0,0.0,0.0,0.0,0.0,0.0,0.0,0.0,0.0,0.0,0.0,0.0,0.0,0.0,0.0,0.0,0.0,0.0,0.0,0.0,0.0,0.0,0.0,0.0,-6.7629,-7.0172,-7.1665,-7.1008,-7.4149,-7.572,-7.4269,-7.6523,-7.8363,-7.8966,-7.9554,-7.9898,-7.9898,-7.9898,-7.9936,-7.9936,-8.0731,-8.1148,-8.1148,-8.1021,-8.1021,-8.111,-8.0277,-8.0486,-8.165,-8.2155,-8.3451,-8.5265,-8.5749,-8.639,-8.7131,-8.7131,-8.7131,-8.7066,-8.6405,-8.612,-8.6003,-8.5097,-8.5309,-8.6155,0.0,0.0,0.0,0.0,0.0,0.0,0.0,-2.8065,-2.8942,-3.2823,-3.112,-3.0206,-3.1687,-2.9297,-2.6925,-2.5465,-2.3239,-2.1989,-2.2129,-2.0706,-1.9661,-1.8988,-1.8012,-1.6394,-1.4317,-1.4361,-1.3887,-1.3058,-1.2401,-1.2401,-1.3058,-1.2893,-1.339,-1.4217,-1.553,-1.6517,-1.7328,-1.9765,-2.2282,-2.473,-2.5335,-2.6849,-2.8686,0.0,0.0,0.0,0.0,0.0,0.0,0.0,0.0,0.0,0.0,0.0,0.0,0.0,0.0,0.0,0.0,0.0,0.0,0.0,0.0,0.0,0.0,0.0,0.0,0.0,0.0,0.0,0.0,0.0,0.0,0.0,-6.2913,-6.6644,-6.8194,-7.0652,-7.2764,-7.408,-7.5566,-7.6664,-7.6971,-7.8048,-7.9004,-7.96,-7.9772,-7.9898,-7.9898,-8.0428,-8.0769,-8.0769,-8.1603,-8.202,-8.202,-8.2071,-8.2114,-8.2114,-8.1849,-8.1892,-8.2247,-8.2644,-8.3215,-8.4028,-8.4427,-8.4898,-8.5377,-8.5377,-8.5377,-8.5494,-8.6494,-8.6896,-8.6857,-8.6611,-8.6689,-8.6986,0.0,0.0,0.0,0.0,0.0,0.0,0.0,-2.7169,-2.7541,-3.1237,-2.9833,-2.9428,-3.1563,-2.9234,-2.6969,-2.5442,-2.3484,-2.1981,-2.1261,-2.0206,-1.9222,-1.8463,-1.7938,-1.6802,-1.5043,-1.5051,-1.4713,-1.3887,-1.339,-1.339,-1.388,-1.3556,-1.3721,-1.4383,-1.4878,-1.5695,-1.65,-1.8118,-1.9887,-2.1651,-2.3596,-2.5898,-2.81,-2.7956,-2.7717,-2.774,-2.9945,-3.0958,-3.1465,-3.4397,0.0,0.0,0.0,0.0,0.0,0.0,0.0,0.0,0.0,0.0,0.0,0.0,0.0,0.0,0.0,0.0,0.0,0.0,0.0,0.0,0.0,0.0,0.0,0.0,-6.4271,-6.7695,-6.9396,-7.1464,-7.3543,-7.5617,-7.628,-7.7107,-7.8253,-7.8798,-7.9547,-8.0839,-8.0618,-8.0542,-8.0921,-8.1376,-8.1489,-8.111,-8.2248,-8.2551,-8.1869,-8.2216,-8.2178,-8.171,-8.1324,-8.1407,-8.1837,-8.2106,-8.271,-8.3558,-8.3938,-8.4301,-8.4674,-8.5052,-8.5182,0.0,0.0,0.0,0.0,0.0,-8.7286,-8.7309,0.0,0.0,0.0,0.0,0.0,0.0,0.0,-2.6635,-2.6359,-2.9749,-2.7833,-2.7553,-3.1491,-2.9057,-2.6983,-2.6347,-2.4943,-2.3044,-2.0626,-1.9933,-1.9114,-1.8154,-1.7163,-1.6179,-1.5381,-1.5216,-1.4878,-1.4548,-1.4217,-1.4217,-1.4383,-1.3887,-1.4052,-1.4548,-1.4225,-1.4713,-1.5679,-1.5506,-1.6656,-1.8626,-2.0705,-2.3436,-2.6333,-2.6249,-2.6002,-2.6148,-2.8271,-2.932,-2.9883,-3.232,0.0,0.0,0.0,0.0,0.0,0.0,0.0,0.0,0.0,0.0,0.0,0.0,0.0,0.0,0.0,0.0,0.0,0.0,0.0,0.0,0.0,0.0,0.0,0.0,-6.6105,-6.9253,-7.0955,-7.2395,-7.4004,-7.5854,-7.6505,-7.7348,-7.8707,-7.9103,-8.015,-8.2203,-8.1679,-8.1565,-8.2361,0.0,0.0,0.0,0.0,-8.2892,-8.1376,-8.2044,-8.183,-8.0868,-7.9934,-7.9906,-8.0742,-8.1029,-8.1987,-8.3393,-8.3759,-8.4164,-8.4565,-8.54,-8.5793,-8.5923,-8.6079,-8.6118,-8.6235,-8.7013,-8.7298,-8.7309,0.0,0.0,0.0,0.0,0.0,0.0,0.0,-2.5457,-2.5952,-2.8381,-2.7617,-2.7906,-3.0307,-2.9198,-2.7656,-2.5935,-2.4591,-2.298,-2.0649,-1.9208,-1.8384,-1.8164,-1.6182,-1.5005,-1.4878,-1.3714,-1.3217,-1.3052,-1.122,-1.1386,-1.3052,-1.1884,-1.2388,-1.4232,-1.3735,-1.3728,-1.4052,-1.5671,-1.6656,-1.7156,-1.8923,-2.0705,-2.2522,-2.448,-2.4578,-2.4154,-2.5511,-2.5924,-2.6326,-2.7726,-2.9848,-3.1984,-3.2706,-3.4779,0.0,0.0,0.0,0.0,0.0,0.0,0.0,0.0,0.0,0.0,0.0,0.0,0.0,0.0,0.0,0.0,0.0,0.0,0.0,-6.3558,-6.6601,-6.9464,-7.1904,-7.2438,-7.3189,-7.4463,-7.6768,-7.8464,-7.8758,-8.0111,-8.1306,-8.2316,-8.2248,-8.221,-8.2361,-8.2399,-8.2323,-8.2134,-8.3081,-8.3422,-8.3119,-8.318,-8.2746,-8.1868,0.0,0.0,-7.9773,-8.0144,-8.0888,-8.1913,-8.2536,-8.3294,-8.4056,-8.4572,-8.5237,-8.596,-8.6767,-8.7001,-8.6975,-8.7208,-8.7298,-8.7309,0.0,0.0,0.0,0.0,0.0,0.0,0.0,-2.5574,-2.5951,-2.6817,-2.6873,-2.7266,-2.8629,-2.8273,-2.7289,-2.5147,-2.3655,-2.2868,-2.262,-2.0597,-1.9367,-1.8759,-1.6538,-1.4952,-1.439,-1.3728,-1.3224,-1.272,-1.1552,-1.122,-1.1712,-1.0887,-1.1392,-1.3058,-1.2561,-1.2727,-1.3397,-1.337,-1.3569,-1.4145,-1.5435,-1.6469,-1.7399,-2.0395,-2.1717,-2.2266,-2.3053,-2.3723,-2.4459,-2.5293,-2.6796,-2.8537,-2.9172,-3.1693,-3.4396,0.0,0.0,0.0,0.0,0.0,0.0,0.0,0.0,0.0,0.0,0.0,0.0,0.0,0.0,-5.3289,-5.6985,0.0,-6.2642,-6.4462,-6.7319,-6.9858,-7.1424,-7.2868,-7.4116,-7.5168,-7.6548,-7.8042,-7.9547,-8.0563,-8.1796,-8.3528,-8.3233,-8.3006,-8.3006,-8.3006,-8.2627,-8.1755,-8.293,-8.3195,-8.2361,-8.3112,-8.3066,-8.2179,-8.1679,-8.1207,-8.0745,-8.1028,-8.1482,-8.211,-8.2649,-8.3259,-8.3927,-8.4806,-8.5704,-8.6597,-8.7091,-8.7234,-8.7209,-8.7286,-8.7298,-8.7309,0.0,0.0,0.0,0.0,0.0,0.0,0.0,-2.6328,-2.6205,-2.5988,-2.6549,-2.7019,-2.7365,-2.7695,-2.7056,-2.4957,-2.3378,-2.2819,-2.4232,-2.1719,-1.9891,-1.8736,-1.641,-1.4735,-1.3901,-1.3728,-1.3058,-1.1884,-1.1718,-1.0882,-0.9711,-0.9555,-1.0221,-1.189,-1.1552,-1.2063,-1.3238,-1.1426,-1.1328,-1.2101,-1.2113,-1.2557,-1.3382,-1.5794,-1.8095,-2.0036,-2.0378,-2.1268,-2.2471,-2.2747,-2.4152,-2.581,-2.6389,-2.9001,-3.2141,-3.3346,-3.4469,0.0,0.0,0.0,0.0,0.0,0.0,0.0,0.0,-4.513,-4.7328,-5.1114,-5.2645,-5.4741,-5.913,-6.1674,-6.39,-6.5945,-6.8337,-7.0312,-7.1391,-7.3568,-7.5288,-7.5999,-7.6512,-7.7739,-8.0048,-8.0429,-8.1585,-8.406,-8.3503,-8.3095,-8.3074,-8.3119,-8.2475,-8.1148,-8.2551,-8.2778,-8.1603,-8.3081,-8.3377,-8.2452,-8.2444,-8.2284,-8.2038,-8.2132,-8.2399,-8.2821,-8.3483,-8.3933,-8.4337,-8.5543,-8.6483,-8.7195,-8.7222,-8.7234,-8.7222,-8.7286,-8.7286,-8.7298,0.0,0.0,0.0,0.0,0.0,0.0,0.0,0.0,-2.7183,-2.7488,-2.7824,-2.816,-2.8511,-2.8535,-2.8178,-2.7184,-2.4783,-2.3067,-2.2663,-1.9822,-1.7557,-1.6046,-1.4437,-1.3549,-1.3403,-1.2229,-1.0887,-0.9216,-0.7885,-0.7048,-0.6543,-0.6885,-0.8386,-1.0887,-1.122,-1.2063,-1.341,-1.3069,-1.3479,-1.3682,-1.0977,-1.1505,-1.3426,-1.2325,-1.4156,-1.7165,-1.6609,-1.7563,-1.9012,-1.8113,-2.1028,-2.4779,-2.5539,-2.7428,-2.9749,-3.1638,-3.36,-3.5631,-3.7057,-3.9759,-4.2671,-4.5043,-4.508,-4.5499,0.0,-4.852,-4.8756,-5.505,-5.5418,-5.6305,-6.202,-6.3239,-6.48,-6.8831,-6.9913,-7.1191,-7.3749,-7.4525,-7.5016,-7.5377,-7.7427,-7.8945,-7.9105,-7.9475,-8.0341,-8.1857,-8.1492,-8.113,-8.1056,-8.1286,-8.13,-8.111,-8.202,-8.2778,-8.3309,-8.4256,-8.4332,-8.346,-8.3322,-8.2897,-8.217,-8.2076,-8.2416,-8.3228,-8.4627,-8.5497,-8.598,-8.6466,-8.6865,-8.7105,-8.7113,-8.7209,-8.7286,-8.7222,-8.7209,-8.7209,0.0,0.0,0.0,0.0,0.0,0.0,0.0,0.0,0.0,0.0,-2.472,-2.4807,-2.4943,-2.5686,-2.5811,-2.4486,-2.4057,-2.3314,-2.2023,-1.9928,-1.8088,-1.6683,-1.538,-1.4288,-1.3397,-1.2893,-1.1225,-0.8716,-0.8105,-0.7432,-0.6382,-0.6596,-0.7965,-0.9988,-1.1333,-1.2221,-1.2809,-1.2368,-1.249,-1.283,-1.0112,-0.8273,-0.7289,-0.6154,-0.6978,-0.9017,-1.2009,-1.5685,0.0,-1.8148,-2.0038,-2.2906,-2.366,-2.5157,-2.7068,-2.866,-3.0545,-3.2944,-3.7516,-4.0372,-4.2774,-4.5755,-4.6286,-4.6684,-4.8607,-4.8621,-4.9677,-5.5069,-5.5842,-5.7212,-6.2099,-6.3623,-6.4811,-6.7082,-6.9148,-7.1027,-7.2638,-7.4037,-7.5431,-7.6814,-7.76,-7.7992,-7.8098,-7.8385,-7.9245,-8.0823,-8.0912,-8.1065,-8.1462,-8.1695,-8.1869,-8.1869,-8.2664,-8.3233,-8.3574,-8.4446,-8.4711,-8.437,-8.4324,-8.4041,-8.3654,-8.3654,-8.3945,-8.4436,-8.5082,-8.5734,-8.6317,-8.652,-8.6782,-8.7082,-8.7128,-8.7234,-8.7281,-8.727,-8.727,-8.7259,0.0,0.0,0.0,0.0,0.0,0.0,0.0,0.0,0.0,0.0,-2.241,-2.2044,-2.1909,-2.267,-2.2942,-2.2198,-2.2373,-2.2035,-2.079,-1.9223,-1.7682,-1.6311,-1.5396,-1.4423,-1.3397,-1.3569,-1.2229,-0.9216,-0.9459,-0.8786,-0.7052,-0.7473,-0.8531,-1.0228,-1.1617,-1.2709,-1.3152,-1.2336,-1.1946,-1.1771,-0.8973,-0.6172,-0.3488,-0.1452,-0.2338,-0.5177,-0.8615,-1.3051,-1.7477,-1.7281,-1.9147,-2.1495,-2.2388,-2.3726,-2.516,-2.689,-2.8768,-3.1727,-3.7727,-4.0306,-4.1976,-4.4784,-4.6155,-4.706,-4.7723,-4.8575,-5.0437,-5.5008,-5.5998,-5.7432,-6.1668,-6.3469,-6.4814,-6.6803,-6.9202,-7.1352,-7.2763,-7.4264,-7.5742,-7.7298,-7.7083,-7.6865,-7.7255,-7.7444,-7.8022,-7.9215,-7.9342,-7.9837,-8.0819,-8.1377,-8.1876,-8.2361,-8.3112,-8.3642,-8.3953,-8.4467,-8.4808,-8.4901,-8.4854,-8.4808,-8.4713,-8.476,-8.4909,-8.51,-8.5228,-8.5552,-8.6107,-8.6307,-8.677,-8.7345,-8.7479,-8.7702,-8.7994,-8.8004,-8.7838,-8.7671,0.0,0.0,0.0,0.0,0.0,0.0,0.0,0.0,0.0,0.0,0.0,0.0,0.0,-2.0358,-2.0508,-2.2037,-2.0091,-1.8469,-1.7965,-1.6432,-1.4854,-1.3549,-1.3562,-1.3397,-1.3403,-1.3901,-1.2899,-1.0721,-1.1546,-1.0544,-0.8052,-0.8986,-1.0218,-1.1576,-1.2216,-1.3482,-1.5235,-1.4208,-1.3222,-1.1648,-0.7567,-0.5636,-0.5087,0.0539,-0.2327,-0.8943,-0.6986,-0.8915,-1.2514,-1.4253,-1.7355,-2.0941,-2.2259,-2.3417,-2.4611,-2.6724,-3.0056,-3.3831,-3.7029,-3.9062,-4.0634,-4.1855,-4.4075,-4.6426,-4.8135,-4.9098,-5.0914,-5.5551,-5.6001,-5.7036,-6.1299,-6.2983,-6.5173,-6.9733,-7.1325,-7.297,-7.5549,-7.5997,-7.5984,-7.5735,-7.5882,-7.6094,-7.6579,-7.6658,-7.6493,-7.6244,-7.5859,-7.6352,-7.8053,-7.9125,-8.0505,-8.2361,-8.2926,-8.3758,-8.4863,-8.4551,-8.4589,-8.4901,-8.476,-8.4713,-8.4713,-8.4579,-8.453,-8.453,-8.493,-8.5152,-8.5319,-8.6107,-8.6984,-8.7902,-8.8239,-8.8923,-8.9715,-8.9788,-8.927,-8.8662,0.0,0.0,0.0,0.0,0.0,0.0,0.0,0.0,0.0,0.0,0.0,0.0,0.0,0.0,0.0,0.0,-1.7492,-1.6852,-1.545,-1.4418,-1.3789,-1.3247,-1.3349,-1.3403,-1.3403,-1.2489,-1.1478,-1.0721,-0.9933,-0.9792,-0.9993,-1.0355,-1.1139,-1.1836,-1.3787,-1.4381,-1.4129,-1.4197,-1.3748,-1.2764,-1.052,-0.9472,-0.8734,-0.3595,-0.3357,-0.6061,0.0,-0.771,-1.1392,-1.1934,-1.3846,-1.6079,-1.7508,-1.9223,-2.1603,-2.5949,-2.9184,-3.2126,-3.5827,-3.6958,-3.8061,-4.1657,-4.2481,-4.3109,-4.588,-4.6633,-4.784,-5.146,-5.2936,-5.4548,-5.7661,-6.0013,-6.2883,-6.7431,-6.983,-7.2008,-7.4435,-7.5116,-7.5621,-7.6629,-7.6374,-7.6675,-7.7838,-7.7256,-7.6707,-7.641,-7.7156,-7.8019,-7.9007,-8.0711,-8.2195,-8.3351,-8.3262,-8.3359,-8.3758,-8.3514,-8.3514,-8.3795,-8.4458,-8.4854,-8.4854,-8.4808,-8.476,-8.476,-8.4909,-8.51,-8.5357,-8.5627,-8.6499,-8.7694,-8.7856,-8.8264,-8.8856,-8.9494,-8.9222,-8.8724,0.0,0.0,0.0,0.0,0.0,0.0,0.0,0.0,0.0,0.0,0.0,0.0,0.0,0.0,0.0,0.0,0.0,-1.482,-1.4125,-1.3221,-1.3064,-1.3329,-1.3432,-1.3507,-1.3569,-1.2483,-1.1813,-1.1724,-1.0992,-1.1047,-1.192,-1.2188,-1.2661,-1.3023,-1.4646,-1.5096,-1.4701,-1.4245,-1.3938,-1.3528,-1.2022,-1.1287,-1.056,-0.5984,-0.5011,0.0,-0.4114,-0.5887,-0.9025,-1.0373,-1.2237,-1.429,-1.5524,-1.7789,-2.0722,-2.4957,-2.7143,-2.9165,-3.3116,-3.41,-3.478,-3.9019,-3.956,-3.9954,-4.2013,-4.3577,-4.5277,-4.7705,-5.0077,-5.266,-5.5439,-5.8439,-6.1673,-6.5091,-6.8001,-7.0457,-7.2288,-7.299,-7.4239,-7.6737,-7.6573,-7.6921,-7.8853,-7.8264,-7.7405,-7.6684,-7.7523,-7.8415,-7.9158,-8.1074,-8.2553,-8.3472,-8.3439,-8.3514,-8.3613,-8.3363,-8.3414,-8.3795,-8.4542,-8.4901,-8.4901,-8.4901,-8.4901,-8.4901,-8.4901,-8.5044,-8.5228,-8.5355,-8.6386,-8.7842,-8.7997,-8.8523,-8.9262,-8.9807,-8.9625,-8.9164,0.0,0.0,0.0,0.0,0.0,0.0,0.0,0.0,0.0,0.0,0.0,0.0,0.0,0.0,0.0,0.0,0.0,0.0,-1.3796,-1.2725,-1.2549,-1.364,-1.3336,-1.3418,-1.4066,-1.3908,-1.3742,-1.3403,-1.439,-1.4301,-1.3634,-1.427,-1.4757,-1.4764,-1.4913,-1.5594,-1.6425,-1.4359,-1.3793,-1.4062,-1.1882,-1.1096,-1.0537,-0.693,-0.6703,-0.7675,-0.3876,-0.3672,-0.5572,-0.91,-1.2326,-1.4992,-1.6113,-1.8822,-2.1858,-2.3922,-2.471,-2.5728,-2.9601,-3.078,-3.1614,-3.3944,-3.5764,-3.6975,-3.7003,-4.0216,-4.3439,-4.4284,-4.7562,-5.1179,-5.4153,-5.7992,-6.1173,-6.2966,-6.6135,-6.8613,-6.9628,-7.0423,-7.2193,-7.5884,-7.6164,-7.7006,-7.9365,-7.9311,-7.8594,-7.7185,0.0,-7.7433,-7.8382,-8.0277,-8.1731,-8.2706,-8.3509,-8.4078,-8.433,-8.4078,-8.4255,-8.4854,-8.4939,-8.4939,-8.4901,-8.4939,-8.4939,-8.4901,-8.4901,-8.4901,-8.4947,-8.5232,-8.6509,-8.8298,-8.8707,-8.9615,-9.0729,-9.0729,-9.0298,-8.9915,0.0,0.0,0.0,0.0,0.0,0.0,0.0,0.0,0.0,0.0,0.0,0.0,0.0,0.0,0.0,0.0,0.0,0.0,-1.1934,-1.2134,-1.2442,-1.2675,-1.2559,-1.3019,-1.4555,-1.1981,-1.1652,-1.3901,-1.2972,-1.2866,-1.3634,-1.3817,-1.4071,-1.4077,-1.4583,-1.4785,-1.4534,-1.3707,-1.3153,-1.291,-1.1641,-1.0651,-0.981,-0.8072,-0.7275,-0.6795,-0.5339,-0.496,-0.5207,-0.6181,-0.9442,-1.35,-1.5208,-1.8923,-2.2805,-2.3968,-2.6222,-2.8702,-2.9676,-3.1447,-3.2874,-3.3227,-3.3688,-3.4197,-3.5113,-3.7306,-3.9491,-4.0384,-4.3991,-4.7292,-4.8491,-5.3616,-5.8784,-6.2272,-6.7082,-7.0989,-7.2742,-7.3809,-7.4998,-7.6698,-7.69,-7.7615,-7.9365,-7.9471,-7.9337,-7.9067,-7.9257,-7.9311,-7.9107,-8.1259,-8.266,-8.2928,-8.3035,-8.3251,-8.35,-8.3451,-8.3801,-8.4541,-8.5375,-8.5507,-8.4939,-8.5545,-8.5469,-8.4901,-8.4901,-8.4901,-8.4901,-8.4999,-8.6219,-8.8078,-8.8194,-8.8815,-8.968,-8.9683,-8.8982,-8.8266,0.0,0.0,0.0,0.0,0.0,0.0,0.0,0.0,0.0,0.0,0.0,0.0,0.0,0.0,0.0,0.0,0.0,0.0,0.0,-1.1494,-1.1949,-1.3037,-1.271,-1.2986,-1.388,-1.1622,-1.1461,-1.3231,-1.2433,-1.2671,-1.3964,-1.4117,-1.3838,-1.333,-1.376,-1.3787,-1.3415,-1.2859,-1.2656,0.0,0.0,-1.0351,-0.9392,-0.8518,-0.7416,-0.6489,-0.5851,-0.568,-0.5829,-0.6357,-0.9743,-1.4116,-1.5669,-1.9061,-2.2587,-2.3689,-2.5169,-2.6928,-2.8837,-3.0079,-3.1122,-3.1948,-3.2159,-3.2499,-3.3722,-3.5487,-3.7081,-3.8437,-4.1532,-4.4419,-4.6124,-5.1573,-5.688,-6.0136,-6.5427,-6.9964,-7.1988,-7.3243,-7.4738,-7.6859,-7.7048,-7.7661,-7.9125,-7.9276,-7.9515,-7.9792,-7.9905,-8.0071,-8.0224,-8.2002,-8.3111,-8.3396,-8.3457,-8.3577,-8.3726,-8.3726,-8.4001,-8.4637,-8.5262,-8.5356,-8.4939,-8.5735,-8.5659,-8.4939,0.0,-8.5242,-8.4901,-8.4901,-8.6127,-8.8035,-8.8035,-8.8709,-8.9668,-8.9717,-8.9137,-8.8501,0.0,0.0,0.0,0.0,0.0,0.0,0.0,0.0,0.0,0.0,0.0,0.0,0.0,0.0,0.0,0.0,0.0,0.0,0.0,0.0,-1.0959,-1.3485,-1.3023,-1.2762,-1.2714,-1.2222,-1.189,-1.2056,-1.2346,-1.3075,-1.4091,-1.4231,-1.3613,-1.2411,-1.2778,-1.2834,-1.2564,-1.1851,-1.1822,-1.2222,-1.1154,-1.0226,-0.9207,0.0,-0.7428,-0.6427,-0.5547,-0.5937,-0.7056,-0.8072,-1.1576,-1.5717,-1.6631,-1.9194,-2.1894,-2.2917,-2.3078,-2.3481,-2.6942,-2.7715,-2.822,-3.0325,-3.1046,-3.1675,-3.2904,-3.4179,-3.5677,-3.7485,-3.972,-4.2385,-4.5254,-5.0469,-5.5178,-5.7484,-6.304,-6.7818,-6.9977,-7.1531,-7.3601,-7.681,-7.7089,-7.7503,-7.8753,-7.9115,-7.94,-7.9792,-7.987,-8.0364,-8.1433,-8.2412,-8.3284,-8.3975,-8.4268,-8.453,-8.4556,-8.4605,-8.474,-8.5052,-8.5204,-8.5128,-8.4939,-8.5735,-8.5735,-8.509,-8.5697,-8.5621,-8.5052,-8.5098,-8.6241,-8.8035,-8.8077,-8.8902,-9.0068,-8.9978,-8.974,-8.9495,0.0,0.0,0.0,0.0,0.0,0.0,0.0,0.0,0.0,0.0,-1.2467,-1.2494,0.0,0.0,0.0,0.0,0.0,0.0,0.0,0.0,0.0,-1.2671,-1.0975,-1.1037,-1.3217,-1.1392,-1.1059,-1.2056,-1.3251,-1.3437,-1.2938,-1.2631,-1.247,-1.2142,-1.192,-1.1751,-1.1669,-1.1571,-1.1379,-1.0964,-1.0753,-1.018,-0.9273,-0.8263,0.0,0.0,-0.5532,-0.643,-0.8072,-0.9155,-1.2276,-1.5927,-1.6585,-1.9314,-2.2029,-2.1689,-2.2199,-2.3209,-2.3607,-2.565,-2.7642,-2.7682,-2.9043,-3.0555,-3.2015,-3.3482,-3.4776,-3.598,-3.8548,-4.0869,-4.2189,-4.7881,-5.3441,-5.7254,-6.3981,-6.9653,-7.1986,-7.4364,-7.6355,-7.765,-7.7856,-7.8147,-7.8657,-7.9276,-7.9715,-7.9792,-8.0135,-8.0768,-8.1806,-8.2573,-8.3396,-8.4268,-8.4637,-8.5015,-8.5462,-8.5658,-8.5839,-8.5924,-8.6644,-8.6227,-8.4939,-8.5735,-8.6038,-8.5886,-8.5356,0.0,-8.5886,-8.6077,-8.6871,-8.8037,-8.8444,-8.8952,-8.9366,-8.8805,-8.8716,-8.8947,0.0,0.0,0.0,0.0,0.0,0.0,0.0,-1.2155,-1.241,-1.2732,-1.2266,-1.2127,-1.2813,-1.1721,-1.106,0.0,0.0,0.0,0.0,0.0,0.0,0.0,0.0,0.0,-1.122,-0.9775,-0.978,-1.1059,0.0,-1.2464,-1.3065,-1.2567,-1.1902,-1.1076,-1.097,-1.0624,-1.0409,-1.0634,-1.0791,-1.0737,-1.0737,-0.9868,-0.8663,0.0,0.0,0.0,-0.5751,-0.6652,-0.7965,-0.8631,-1.2104,-1.6034,-1.7105,-1.9373,-2.1747,-2.1854,-2.2305,-2.2772,-2.3005,-2.4818,-2.6839,-2.7004,-2.8222,-3.0027,-3.255,-3.3413,-3.4262,-3.6858,-3.8513,-3.999,-4.1913,-4.6781,-5.1761,-5.5706,-6.2294,-6.8033,-7.1156,-7.3931,-7.629,-7.7858,-7.8202,-7.8539,-7.9069,-7.975,-8.0135,-8.0135,-8.084,-8.1641,-8.2449,-8.349,-8.4205,-8.4675,-8.5233,-8.546,-8.528,-8.5839,-8.5886,-8.5507,-8.5924,-8.5697,-8.4939,-8.5735,-8.5886,-8.5469,-8.5507,-8.5827,-8.626,-8.6355,-8.7336,-8.8807,-8.8733,-8.9146,-8.9755,-8.9566,-8.9635,-8.9983,0.0,0.0,0.0,0.0,0.0,0.0,0.0,-1.1666,-1.1918,-1.2931,-1.2243,-1.1795,-1.2344,-1.1154,-1.0689,0.0,0.0,0.0,0.0,0.0,0.0,0.0,0.0,0.0,0.0,0.0,0.0,-1.0131,-1.0889,0.0,0.0,0.0,0.0,0.0,-1.0111,-0.9943,-0.9771,-1.008,-1.0404,0.0,0.0,-0.9736,0.0,0.0,0.0,0.0,0.0,-0.6533,-0.7627,-0.8579,-1.147,-1.5126,-1.7247,-1.9256,-2.1028,-2.1015,-2.1219,-2.1474,-2.2171,-2.3733,-2.5313,-2.5979,-2.7357,-2.9456,-3.2742,-3.3032,-3.3638,-3.7575,-3.8317,-3.9264,-4.2133,-4.601,-5.0088,-5.4213,-5.9883,-6.5404,-6.9658,-7.2613,-7.5255,-7.7875,-7.8455,-7.8835,-7.9436,-8.0095,-8.0582,-8.0658,-8.1739,-8.2634,-8.3169,-8.4255,-8.4901,-8.4901,-8.5507,-8.5621,-8.5166,-8.5772,-8.5772,-8.5166,-8.5166,-8.509,-8.4939,-8.5545,-8.5743,-8.5523,-8.5979,-8.6495,-8.7019,-8.7061,-8.7999,-8.9374,-8.8969,-8.9228,-8.9809,-9.0091,-9.0423,-9.0821,0.0,0.0,0.0,0.0,0.0,0.0,0.0,-1.2824,-1.278,-1.401,-1.2615,-1.2018,-1.3105,-1.2651,-1.1956,0.0,0.0,0.0,0.0,0.0,0.0,0.0,0.0,0.0,0.0,0.0,0.0,-1.0355,-1.3291,0.0,0.0,0.0,0.0,0.0,0.0,-1.0397,-1.0725,-1.0618,0.0,0.0,0.0,0.0,0.0,0.0,0.0,0.0,0.0,-0.618,-0.7631,-1.018,-1.1237,-1.1969,-1.5829,-1.8461,-1.96,-1.7096,-1.7288,-1.8225,-1.8531,-2.0705,-2.2878,-2.2911,-2.4936,-2.7899,-3.1234,-3.1579,-3.2381,-3.6074,-3.741,-3.8616,-4.1234,-4.4739,-4.8627,-5.313,-5.806,-6.3006,-6.8256,-7.1325,-7.4332,-7.7822,-7.8788,-7.9276,-7.9436,-8.0095,-8.0731,-8.1296,-8.2802,-8.3726,-8.3779,-8.4492,-8.4901,-8.4901,-8.4976,-8.5356,-8.6,-8.6076,-8.6076,-8.6,-8.6,-8.5621,-8.4901,-8.4976,-8.5911,-8.7382,-8.666,-8.7404,0.0,-8.9228,-8.9105,-8.8815,-8.9111,-8.8944,-8.8506,-8.8794,-8.9368,-9.0139,0.0,0.0,0.0,0.0,0.0,0.0,-1.2965,-1.2583,-1.2527,-1.3275,-1.2648,-1.2449,-1.3159,-1.309,-1.2755,-1.1631,0.0,0.0,0.0,0.0,0.0,0.0,0.0,0.0,0.0,0.0,-1.1102,-1.1704,-1.2892,0.0,0.0,0.0,0.0,0.0,0.0,-1.0169,-1.0677,-1.046,0.0,0.0,0.0,0.0,0.0,0.0,0.0,0.0,0.0,0.0,-0.8743,-1.1083,-1.2472,-1.3197,-1.3672,-1.5355,-1.7205,-1.6333,-1.6357,-1.6852,-1.7664,-2.0356,-2.2873,-2.3359,-2.5213,-2.7819,-3.128,-3.1529,-3.1929,-3.5547,-3.7508,-3.9104,-4.1234,-4.5037,-4.8852,-5.1853,-5.633,-6.088,-6.4957,-6.8447,-7.2075,-7.6292,-7.7955,-7.9125,-8.0171,-8.0656,-8.1302,-8.2287,-8.3303,-8.4304,-8.5172,-8.5489,-8.5621,-8.5621,-8.6606,-8.6796,-8.6114,-8.6644,-8.6379,-8.5393,-8.5393,-8.5204,-8.4939,-8.5531,-8.6197,-8.6894,-8.7256,-8.7963,0.0,-8.9051,-8.9068,-8.9033,-8.8808,-8.8523,-8.8389,-8.9155,-8.9641,-9.0082,0.0,0.0,0.0,0.0,0.0,-1.2965,-1.2965,-1.2786,-1.2588,-1.3102,-1.3017,-1.3186,-1.3725,-1.3501,-1.3191,-1.2749,-1.1962,0.0,0.0,0.0,0.0,0.0,0.0,0.0,0.0,0.0,-1.192,-1.301,-1.3389,-1.3559,0.0,0.0,-1.23,-1.1367,0.0,0.0,0.0,0.0,0.0,0.0,0.0,0.0,0.0,0.0,0.0,0.0,0.0,0.0,0.0,0.0,0.0,-1.3005,-1.2612,-1.3295,-1.4496,-1.5108,-1.5361,-1.6065,-1.7446,-1.9885,-2.2331,-2.3718,-2.5225,-2.7319,-3.1195,-3.1463,-3.1902,-3.5253,-3.7733,-3.9869,-4.157,-4.5594,-4.9186,-5.1233,-5.5327,-5.9522,-6.2934,-6.6543,-7.0402,-7.4753,-7.6959,-7.8673,-8.0361,-8.145,-8.2361,-8.3206,-8.4095,-8.5009,-8.6029,-8.6568,-8.672,-8.6493,-8.763,-8.7668,-8.6493,-8.7099,-8.6682,-8.5242,-8.5242,-8.5288,-8.5379,-8.6045,-8.6752,-8.7375,-8.815,-8.8842,0.0,-8.9231,-8.9216,-8.9235,-8.8578,-8.8339,-8.8508,-8.9535,-9.0052,-9.049,0.0,0.0,0.0,0.0,0.0,0.0,-1.4361,-1.373,-1.3569,-1.4047,-1.3886,-1.4208,-1.5193,-1.4225,-1.3728,-1.4548,-1.3418,0.0,0.0,0.0,0.0,0.0,0.0,0.0,0.0,0.0,-1.3304,-1.3646,-1.5546,-1.6065,-1.5205,-1.5369,-1.4923,-1.4048,0.0,0.0,0.0,0.0,0.0,0.0,0.0,0.0,0.0,0.0,0.0,0.0,0.0,0.0,0.0,0.0,0.0,0.0,0.0,-1.282,-1.1876,-1.2643,-1.3832,-1.5379,-1.7098,-1.8694,-2.0623,-2.3211,-2.4244,-2.5922,-3.034,-3.1281,-3.217,-3.539,-3.8122,-4.049,-4.2302,-4.6169,-4.9764,-5.1529,-5.5338,-5.9338,-6.2913,-6.6291,-6.9827,-7.3413,-7.5811,-7.7963,-7.9762,-8.2465,-8.4083,-8.3907,-8.5259,0.0,-8.6114,-8.7668,-8.8198,-8.7402,-8.7402,-8.7402,-8.7402,-8.7402,-8.6947,-8.6114,-8.6114,-8.6214,-8.6361,-8.6399,-8.7531,-8.9573,-8.9573,-9.0184,0.0,-9.045,-8.9836,-8.9235,-8.8617,-8.8467,-8.8704,-8.9563,-9.0394,-9.1364,0.0,0.0,0.0,0.0,0.0,0.0,0.0,-1.38,-1.3887,-1.4693,-1.3951,-1.3718,-1.4863,-1.4548,-1.4383,-1.4713,-1.3679,0.0,0.0,0.0,0.0,0.0,0.0,0.0,0.0,-1.5331,-1.575,-1.5876,-1.6002,-1.5887,-1.5383,-1.514,-1.4682,-1.4061,-1.3813,-1.3513,0.0,0.0,0.0,0.0,0.0,0.0,0.0,0.0,0.0,0.0,0.0,0.0,0.0,0.0,0.0,0.0,0.0,0.0,0.0,-1.2655,-1.3047,-1.3746,-1.5331,-1.7928,-2.0695,-2.2508,-2.4365,-2.6738,-3.0437,-3.0916,-3.1508,-3.4931,-3.7761,-4.0558,-4.3349,-4.678,-5.0378,-5.3846,-5.7049,-6.0036,-6.2996,-6.7818,-7.1965,-7.4865,-7.8923,-8.1824,-8.2766,-8.4094,-8.5129,-8.5762,-8.6682,-8.7452,-8.7984,-8.8554,-8.8653,-8.8236,-8.8767,-8.8767,-8.8236,-8.8236,-8.7819,-8.6985,-8.7133,-8.7268,-8.7312,-8.8186,-8.896,-8.9649,-9.0538,-9.0856,-9.0791,-9.0693,-8.9956,-8.888,-8.8618,-8.855,-8.8716,-8.9515,-9.0763,-9.2167,0.0,0.0,0.0,0.0,0.0,0.0,0.0,-1.4594,-1.4831,-1.5101,-1.4682,-1.4601,-1.553,-1.5373,-1.5373,-1.5711,-1.4878,0.0,0.0,0.0,0.0,0.0,0.0,0.0,-1.6698,-1.6698,-1.6956,-1.7311,-1.659,-1.6204,-1.616,-1.5859,-1.5585,-1.5191,-1.4766,-1.4108,0.0,0.0,0.0,0.0,0.0,0.0,-0.8057,0.0,0.0,0.0,0.0,0.0,0.0,0.0,0.0,0.0,0.0,0.0,0.0,0.0,-1.2569,-1.3026,-1.4976,-1.7385,-2.0169,-2.2303,-2.4367,-2.6673,-3.0227,-3.1036,-3.1931,-3.5201,-3.8295,-4.1329,-4.4213,-4.7445,-5.0987,-5.4781,-5.8019,-6.1156,-6.4173,-6.925,-7.3772,-7.6979,-8.0763,-8.3355,0.0,-8.502,-8.6049,-8.7003,-8.7695,-8.8288,-8.8873,-8.9125,-8.9175,-8.907,-8.9525,-8.9563,-8.907,-8.907,-8.8653,-8.7857,-8.8098,-8.8194,-8.8362,-8.9228,-8.9803,-9.0147,-9.0995,-9.1185,0.0,-9.0791,-9.0064,-8.9018,-8.8726,-8.8599,-8.8724,-8.9905,-9.1203,-9.2617,0.0,0.0,0.0,0.0,0.0,0.0,0.0,-1.6132,-1.6241,-1.5586,-1.6057,-1.6656,-1.7474,-1.6983,-1.6664,-1.7501,0.0,0.0,0.0,0.0,0.0,0.0,0.0,0.0,-1.6854,-1.6862,-1.7113,-1.7802,-1.7478,-1.7501,-1.7871,-1.7362,-1.7289,-1.7279,-1.6049,-1.5161,-1.4441,-1.2668,-1.1782,-1.176,-0.9595,-0.8822,0.0,0.0,0.0,0.0,0.0,0.0,0.0,0.0,0.0,0.0,0.0,0.0,0.0,0.0,0.0,0.0,0.0,-1.729,-1.8957,-2.252,-2.401,-2.5745,-2.9856,-3.1412,0.0,-3.5918,-3.9347,-4.249,-4.4708,-4.8137,-5.1591,-5.4831,-5.8748,-6.2631,-6.625,-7.0943,-7.5579,-7.9711,-8.1793,-8.3144,-8.3859,-8.5537,-8.6971,-8.7845,-8.8471,-8.8842,-8.9032,-8.9564,-8.9839,-8.9839,-8.9839,-8.9839,-8.979,-8.979,-8.9459,-8.8739,-8.8935,-8.9163,-8.9412,-8.9612,-9.0184,0.0,-9.1168,-9.1329,-9.1417,-9.0788,-9.0188,-8.9543,-8.8869,-8.8646,-8.8908,-9.0559,-9.1778,-9.2949,0.0,0.0,0.0,0.0,0.0,0.0,0.0,0.0,0.0,0.0,-1.9195,-1.9414,-2.0043,-2.0337,-2.0123,0.0,0.0,0.0,0.0,0.0,0.0,0.0,0.0,0.0,-1.8183,-1.7846,-1.8266,-1.962,-1.9444,-2.0159,-2.1598,-2.0747,-2.0181,-1.97,-1.9361,-1.8748,-1.7552,-1.6027,-1.5287,-1.5093,-1.2914,-1.213,0.0,0.0,0.0,0.0,-1.1005,-1.2533,0.0,0.0,0.0,0.0,0.0,0.0,0.0,0.0,-1.2501,0.0,-1.5861,0.0,-1.8844,-2.1484,-2.342,-2.5894,0.0,-3.146,-3.2628,-3.6083,-3.9259,-4.2436,-4.5768,-4.9087,-5.2646,-5.6896,-6.0616,-6.4298,-6.806,-7.5219,-8.0959,-8.3301,-8.5076,-8.6064,-8.5794,-8.7284,-8.879,-9.0028,-9.0296,-9.0373,-9.0413,-9.0564,-9.0517,-9.0307,-9.0307,-9.0129,-8.979,-8.9982,-8.9999,-8.9809,-9.0249,-9.0453,-9.057,-9.0884,-9.1183,-9.1406,-9.1805,-9.1977,-9.1976,-9.1311,-9.056,-8.9766,-8.8908,-8.9008,-8.9701,-9.0794,-9.2585,-9.466,0.0,0.0,0.0,0.0,0.0,0.0,0.0,0.0,0.0,0.0,0.0,-2.0954,-2.1301,-2.1715,0.0,0.0,0.0,0.0,0.0,0.0,0.0,0.0,0.0,-1.8673,-1.8346,-1.9134,-1.9885,-2.059,-2.1238,-2.1749,-2.2116,-2.1715,-2.1149,-2.0756,-2.0746,-1.9714,-1.8077,-1.7044,-1.6527,-1.6156,-1.4152,0.0,0.0,0.0,0.0,0.0,-1.3218,-1.4456,0.0,-1.4333,-1.4822,-1.5311,0.0,0.0,0.0,0.0,-1.3259,-1.4557,-1.6138,-1.7566,-1.9234,-2.1813,-2.401,-2.6532,-3.045,-3.1722,-3.3116,-3.6998,-4.0578,-4.3945,-4.6858,-5.1336,-5.5503,-5.8112,-6.3312,-6.8784,-7.3609,-7.8532,-8.2425,-8.471,-8.5901,-8.6779,0.0,-8.8478,-8.9596,-9.08,-9.0799,-9.0759,-9.0915,-9.0799,-9.0641,-9.0478,-9.0478,-9.0351,-9.0083,-9.0257,-9.0345,-9.0345,-9.0719,-9.0915,-9.1056,-9.1376,-9.1511,-9.1592,-9.1915,-9.1801,-9.1486,-9.114,-9.0353,-8.9309,-8.9231,-8.9252,-8.9515,-9.1187,-9.2937,-9.4676,0.0,0.0,0.0,0.0,0.0,0.0,0.0,0.0,0.0,0.0,0.0,0.0,0.0,0.0,0.0,0.0,0.0,0.0,0.0,0.0,0.0,0.0,-1.8837,-1.8346,-1.7846,-1.9937,-2.0994,-2.1185,-2.297,-2.3108,-2.2045,-2.2273,-2.2245,-2.1768,-2.1366,-2.0101,-1.8274,-1.79,-1.7457,-1.6927,-1.4901,0.0,0.0,0.0,0.0,0.0,0.0,0.0,0.0,-1.6783,-1.6207,-1.5287,-1.4647,0.0,0.0,0.0,0.0,0.0,-1.6619,-1.8597,-2.0911,-2.295,-2.511,-2.7431,-3.109,-3.2385,-3.4195,-3.8335,-4.2305,-4.5841,-4.8561,-5.397,-5.8494,-5.9714,-6.6726,-7.396,-7.9764,-8.1334,-8.2867,-8.5238,-8.601,0.0,-8.8669,-8.9287,-8.9954,-9.0877,-9.0721,-9.0721,-9.0954,-9.0721,-9.0641,-9.0641,-9.0641,-9.0641,-9.0641,-9.06,-9.0558,-9.0558,-9.0839,-9.1095,-9.1238,-9.1484,-9.1644,-9.1742,0.0,0.0,-9.075,-9.069,-8.9917,-8.8869,-8.9603,-8.9545,-8.929,-9.1653,-9.3075,-9.4054,0.0,0.0,0.0,0.0,0.0,0.0,0.0,0.0,0.0,0.0,0.0,0.0,0.0,0.0,0.0,0.0,0.0,0.0,0.0,0.0,0.0,-2.1889,-1.9144,-1.7527,-1.7527,-1.9124,-2.0758,-2.2234,-2.432,-2.543,-2.54,-2.6333,-2.6427,-2.5334,-2.3746,-2.283,-2.2572,-2.1589,-2.0874,-2.0354,-1.8286,0.0,0.0,0.0,0.0,0.0,0.0,0.0,0.0,-1.7734,-1.6924,-1.578,-1.5409,0.0,0.0,0.0,0.0,0.0,-1.7226,-2.144,-2.5579,-2.5157,-2.6283,-2.8585,-3.2766,-3.4425,-3.6034,-3.9735,-4.2824,-4.6737,-5.2608,-5.4954,-5.7936,-6.4106,-7.0828,-7.6844,-8.115,-8.4318,-8.6139,-8.6164,0.0,-8.8759,-8.8509,-8.9791,-9.08,-9.11,-9.1139,-9.11,-9.1175,-9.11,-9.1064,-9.1064,-9.1064,-9.1064,-9.1064,-9.0915,-9.0838,-9.0838,-9.1236,-9.1423,-9.1484,-9.185,-9.2015,-9.2034,0.0,-9.1158,-9.0976,-9.03,-8.9894,-8.972,-8.9844,-9.0309,-9.1033,-9.2095,-9.308,-9.414,0.0,0.0,0.0,0.0,0.0,0.0,0.0,0.0,0.0,0.0,0.0,0.0,0.0,0.0,0.0,0.0,0.0,0.0,0.0,0.0,-2.2843,-2.1878,-2.0262,-1.9612,-1.9775,-2.1867,-2.33,-2.3952,-2.6333,-2.7141,-2.6479,-2.7418,-2.7046,-2.5906,-2.5918,-2.4788,-2.3164,-2.2705,-2.2084,-2.1071,0.0,0.0,0.0,0.0,0.0,0.0,0.0,0.0,0.0,0.0,-1.6578,-1.5723,-1.4963,0.0,0.0,0.0,0.0,0.0,-1.8011,-2.2509,-2.7615,-2.8911,-3.1027,-3.3748,-3.7507,-3.944,-4.1216,-4.391,-4.6816,-5.0409,-5.537,-5.89,-6.3903,-7.2711,-7.5637,-7.8256,-8.2799,-8.4064,-8.5073,0.0,0.0,-8.8976,-8.9668,-9.0532,-9.1103,-9.121,-9.121,-9.121,-9.121,-9.121,-9.121,-9.121,-9.121,-9.1175,-9.11,-9.0991,-9.1026,-9.1236,-9.1431,-9.1589,-9.1843,-9.2035,-9.2143,-9.2245,0.0,-9.1262,-9.0392,-9.0518,-8.9993,-8.9301,-9.0264,-9.0916,-9.1473,-9.277,-9.3515,-9.4062,0.0,0.0,0.0,0.0,0.0,0.0,0.0,0.0,0.0,0.0,0.0,0.0,0.0,0.0,0.0,0.0,0.0,0.0,0.0,-2.4869,-2.4185,-2.2671,-2.2567,-2.2406,-2.1706,-2.4111,-2.5225,-2.5066,-2.7689,-2.8403,-2.7661,-2.7388,-2.6843,-2.6112,-2.6905,-2.5596,-2.2905,-2.2957,-2.2245,-2.1071,0.0,0.0,0.0,0.0,0.0,0.0,0.0,0.0,0.0,0.0,0.0,0.0,0.0,0.0,0.0,-1.345,-1.6742,-2.0325,-1.9542,-2.3774,-2.9314,-3.2138,-3.4847,-3.7766,-4.1636,-4.3808,-4.5803,-4.8488,-5.1586,-5.4855,-5.8611,-6.394,-7.0332,-7.7995,-7.8816,-8.0034,-8.4535,-8.4381,-8.4747,-8.7361,-8.8205,-8.9216,-9.08,-9.1103,-9.121,-9.121,-9.121,-9.121,-9.121,-9.121,-9.121,-9.121,-9.1175,-9.11,-9.0989,-9.0952,-9.1133,-9.1454,-9.1513,-9.1747,-9.2091,-9.2165,-9.223,-9.2393,-9.1964,-9.1132,-9.0119,-9.0618,-9.0179,-8.9376,-9.0998,-9.1593,-9.1752,-9.3085,-9.3711,-9.3984,0.0,0.0,0.0,0.0,0.0,0.0,0.0,0.0,0.0,0.0,0.0,0.0,0.0,0.0,0.0,0.0,0.0,0.0,0.0,-2.7899,-2.7464,-2.6558,-2.6813,-2.5198,-2.1383,-2.33,-2.4748,-2.5066,-2.7596,-2.9194,-3.0112,-2.7362,-2.6751,-2.7703,-2.5976,-2.4405,-2.3175,-2.2395,-2.1761,-2.1071,-1.8996,0.0,0.0,0.0,0.0,0.0,0.0,0.0,0.0,0.0,0.0,0.0,0.0,0.0,-1.5871,-1.5845,-1.9306,-2.3078,-2.2584,-2.7049,-3.2241,-3.3929,-3.4646,-3.6682,-4.3063,-4.5575,-4.7856,-5.2312,-5.5991,-5.9565,-6.3438,-6.9457,-7.397,-7.4314,-7.8771,-8.3254,-8.6518,0.0,-8.8373,-8.9487,-9.0067,-9.0526,-9.11,-9.121,-9.121,-9.121,-9.121,-9.121,-9.121,-9.121,-9.121,-9.121,-9.1064,-9.0989,-9.0989,-9.0915,-9.1026,-9.1322,-9.1522,-9.1757,-9.2113,-9.2293,-9.2391,-9.2313,-9.0677,-9.0366,-9.0969,-9.0274,-9.0432,-9.1197,-9.2146,-9.25,-9.2539,-9.2656,-9.3203,-9.3906,0.0,0.0,0.0,0.0,0.0,0.0,0.0,0.0,0.0,0.0,0.0,0.0,0.0,0.0,0.0,0.0,0.0,0.0,0.0,-2.8311,-2.7734,-2.6986,-2.6919,-2.6254,-2.5185,-2.6653,-2.7391,-2.7712,-2.9015,-2.9952,-3.0349,-2.942,-2.8578,-2.7907,-2.7134,-2.5524,-2.3211,-2.2889,-2.2245,-2.1071,-1.9165,-1.8513,0.0,0.0,0.0,0.0,0.0,0.0,0.0,0.0,-1.7012,-1.6107,-1.5248,-1.5696,-1.6318,-1.6492,-1.9607,-2.3103,-2.3702,-2.9167,-3.4957,-3.6337,-3.9354,-4.3272,-4.81,-5.1105,-5.3739,-5.6374,-6.0058,-6.3712,-6.6567,-7.3608,-7.8521,-7.7248,-8.1489,-8.5555,-8.7247,-8.8144,-8.8969,-8.9697,-9.0355,-9.0877,-9.1175,-9.11,-9.11,-9.121,-9.1103,-9.1028,-9.1064,-9.1064,-9.1064,-9.1064,-9.1028,-9.0991,-9.0915,-9.1026,-9.1193,-9.1436,-9.1539,-9.1828,-9.2276,-9.2362,-9.2391,-9.2352,-9.1703,-9.1298,-9.1135,-9.1396,-9.1423,-9.1395,-9.2265,-9.2617,-9.2539,-9.1992,-9.1992,-9.2226,0.0,0.0,0.0,0.0,0.0,0.0,0.0,0.0,0.0,0.0,0.0,0.0,0.0,0.0,0.0,0.0,0.0,0.0,-3.0181,-2.9586,-2.9152,-2.8561,-2.8705,-2.8647,-2.8876,-2.9777,-2.9894,-2.922,-3.0025,-3.0407,-3.0495,-3.0015,-2.9019,-2.7867,-2.6769,-2.5188,-2.3155,-2.2751,-2.2084,-2.1071,-1.9323,-1.8671,0.0,0.0,0.0,0.0,0.0,0.0,0.0,0.0,-1.7861,-1.7226,-1.6948,-1.7536,-1.8459,-1.8603,-2.1924,-2.5848,-2.7021,-3.1952,-3.7344,-3.9983,-4.3757,-4.8004,-5.333,-5.5736,-5.7915,-6.1393,-6.4547,-6.7641,-7.0823,-7.6121,-7.9896,-7.9627,-8.3574,-8.6921,-8.781,-8.8558,-8.9287,-8.9923,-9.052,-9.0992,-9.11,-9.1064,-9.1064,-9.11,-9.0992,-9.0915,-9.1028,-9.0989,-9.0991,-9.0991,-9.0991,-9.0915,-9.0838,-9.1059,-9.1252,-9.1522,-9.1618,-9.1954,-9.2391,-9.2391,-9.2391,-9.2391,-9.2117,-9.1837,-9.1583,-9.196,-9.1942,-9.1752,-9.2382,-9.2617,-9.25,-9.1601,-9.1289,-9.1172,0.0,0.0,0.0,0.0,0.0,0.0,0.0,0.0,0.0,0.0,0.0,0.0,0.0,0.0,0.0,0.0,0.0,0.0,-3.323,-3.2268,-3.1991,-3.2402,-3.3232,-3.2981,-3.1729,-3.2429,-3.1644,-2.9234,-3.0039,-3.051,-3.0803,-2.8373,-2.7428,-2.749,-2.4202,-2.2704,-2.291,-2.186,-2.1276,-2.1233,-1.9482,-1.8828,-1.8651,0.0,0.0,0.0,0.0,0.0,0.0,0.0,-2.0262,-1.9416,-2.0812,-2.2001,-2.2757,-2.2757,-2.6952,-3.1986,-3.3336,-3.5778,-3.945,-4.5067,-4.7024,-4.9744,-5.8285,-5.8704,-5.9542,-6.7299,-6.9526,-7.1458,-7.6442,-7.6855,-7.7354,-8.0373,-8.4426,-8.7452,-8.8265,-8.906,-8.9725,-9.0436,-9.0759,-9.0915,-9.0989,-9.0989,-9.0989,-9.0989,-9.0915,-9.0915,-9.1028,-9.0989,-9.0991,-9.0915,-9.0915,-9.0838,-9.0719,-9.0912,-9.1149,-9.1522,-9.1766,-9.2073,-9.2391,-9.2391,-9.2391,-9.2352,-9.1493,-9.1622,-9.245,-9.1658,-9.1832,-9.2617,-9.2617,-9.2578,-9.2461,-9.1601,-9.1289,-9.1172,0.0,0.0,0.0,0.0,0.0,0.0,0.0,0.0,0.0,0.0,0.0,0.0,0.0,0.0,0.0,0.0,0.0,0.0,-3.4229,-3.3768,-3.3309,-3.2731,-3.2789,-3.2235,-3.074,-2.9957,-2.9717,-3.0374,-3.0642,-3.0397,-2.9816,-2.948,-2.8538,-2.6882,-2.564,-2.4765,-2.4452,-2.3575,-2.3575,-2.399,-2.3285,-2.2693,-2.2236,0.0,0.0,0.0,0.0,0.0,0.0,0.0,0.0,0.0,-2.1739,-2.2433,-2.3492,-2.3587,-2.6291,-2.9608,-3.1297,-3.7093,-4.3309,-4.5302,-5.0952,-5.7102,-6.1213,-6.1375,-6.2797,-7.0149,-7.3149,-7.4963,-7.6679,-7.974,-8.179,-8.1408,-8.4791,-8.7773,-8.8578,-8.9287,-9.0007,-9.0719,-9.0953,-9.1064,-9.1028,-9.0953,-9.0953,-9.1028,-9.0877,-9.0838,-9.0989,-9.0989,-9.0991,-9.0915,-9.0915,-9.0953,-9.1059,-9.1252,-9.1484,-9.1766,-9.2112,-9.2308,-9.2391,-9.1768,-9.1834,-9.2351,-9.1544,-9.1669,-9.2478,-9.2301,-9.2382,-9.2617,-9.2617,-9.2226,-9.1562,-9.0703,-9.039,-9.0195,0.0,0.0,0.0,0.0,0.0,0.0,0.0,0.0,0.0,0.0,-3.6015,-3.6164,0.0,0.0,0.0,0.0,0.0,0.0,0.0,-3.4964,-3.4536,-3.3924,-3.3924,-3.2986,-3.1113,-2.9735,-2.9452,-3.0627,-3.0426,-2.9983,-2.9481,-2.9369,-2.8772,-2.773,-2.6659,-2.636,-2.6222,-2.5465,-2.5321,-2.5751,-2.5126,-2.4553,-2.4099,0.0,0.0,0.0,0.0,0.0,0.0,0.0,0.0,0.0,-2.3795,-2.4344,-2.531,-2.6629,-2.9467,-3.2919,-3.6683,-4.2656,-4.8618,-5.1942,-5.6794,-6.1855,-6.5711,-6.6847,-6.8714,-7.3965,-7.614,-7.7809,-7.9629,-8.1803,-8.3402,-8.3462,-8.6004,-8.8144,-8.8692,-8.954,-9.0312,-9.0838,-9.1103,-9.1139,-9.0991,-9.0915,-9.0877,-9.0877,-9.0799,-9.0799,-9.0953,-9.0991,-9.0953,-9.0799,-9.0877,-9.0915,-9.0951,-9.1315,-9.1566,-9.1742,-9.2204,-9.2235,-9.1885,-9.1717,-9.191,-9.2383,-9.1936,-9.2009,-9.2533,-9.2578,-9.2617,-9.2578,-9.2226,-9.1758,-9.1133,-8.9922,-8.9687,-8.9804,0.0,0.0,0.0,0.0,0.0,0.0,0.0,0.0,0.0,0.0,-3.6922,-3.7805,0.0,0.0,0.0,0.0,0.0,0.0,0.0,-3.593,-3.5664,-3.5623,-3.5851,-3.4848,-3.2519,-3.0914,-3.0276,-3.0439,-2.9921,-2.9731,-2.955,-2.8606,-2.862,-2.9535,-2.7795,-2.7527,-2.8288,-2.7523,-2.7088,-2.6738,-2.5671,-2.5245,-2.5259,-2.4303,0.0,0.0,0.0,0.0,0.0,0.0,0.0,0.0,-2.6631,-2.6923,-2.7524,-3.0535,-3.4415,-3.9151,-4.5466,-4.9987,-5.4363,-6.1351,-6.3072,-6.4842,-7.0992,-7.3824,-7.5766,-7.7984,-7.872,-8.0158,-8.4135,-8.3447,-8.3218,-8.5992,-8.7581,-8.8558,-8.8804,-8.9783,-9.0641,-9.0915,-9.1103,-9.1139,-9.0915,-9.0915,-9.0838,-9.0719,-9.0719,-9.0759,-9.0915,-9.0991,-9.0953,-9.0719,-9.0838,-9.0837,-9.0679,-9.122,-9.155,-9.1604,-9.2052,-9.1924,-9.1236,-9.1961,-9.2305,-9.2315,-9.2429,-9.2535,-9.2617,-9.2617,-9.2539,-9.2383,-9.1601,-9.1211,-9.0859,-8.9297,-8.9258,-8.9883,0.0,0.0,0.0,0.0,0.0,0.0,0.0,0.0,0.0,0.0,0.0,0.0,0.0,0.0,0.0,0.0,0.0,0.0,0.0,-3.6143,-3.5994,-3.6052,-3.4433,-3.3609,-3.376,-3.1197,-3.0394,-3.1869,-3.1786,-3.1319,-3.0674,-3.0776,-3.045,-2.9863,-2.9369,-2.9628,-3.0174,-2.9762,-2.9729,-2.9962,-2.9439,-2.8729,-2.8162,-2.7349,-2.6978,0.0,0.0,0.0,0.0,0.0,0.0,0.0,-2.7261,-2.7042,-2.7348,-2.8881,-3.2741,-3.7219,-4.0386,-4.7373,-5.4619,-5.8191,-6.3778,-6.9531,-7.4393,-7.6578,-7.7749,-7.8264,-8.115,-8.3674,-8.4284,-8.4998,-8.5773,-8.6749,-8.7898,-8.8804,-8.9001,-9.006,-9.0877,-9.1139,-9.1175,-9.1139,-9.0915,-9.0915,-9.0838,-9.0719,-9.0799,-9.0877,-9.0991,-9.11,-9.1064,-9.0838,-9.0915,-9.1026,-9.1315,-9.1465,-9.1733,-9.2204,-9.1661,-9.1639,-9.2078,-9.1621,-9.1445,-9.1575,-9.2262,-9.2578,-9.2617,-9.2617,-9.2187,-9.1562,-9.1367,-9.0469,-8.9219,-8.8828,-8.9258,-8.9883,0.0,0.0,0.0,0.0,0.0,0.0,0.0,0.0,0.0,0.0,0.0,0.0,0.0,0.0,0.0,0.0,0.0,0.0,0.0,0.0,-3.5671,-3.5025,-3.3363,-3.256,-3.3068,-3.1479,-3.1005,-3.1984,-3.2764,-3.2376,-3.0931,-3.1266,-3.124,-3.1073,-3.1528,-3.1601,-3.1759,-3.1906,-3.1641,-3.1183,-3.0989,-3.0724,-3.0237,-2.9876,-2.9415,-2.8822,-2.8507,0.0,0.0,0.0,0.0,0.0,0.0,0.0,-2.8026,-3.0224,-3.3886,-3.8354,-4.4169,-5.0506,-5.6762,-6.1833,-6.7274,-7.2222,-7.5858,-7.8084,-7.9654,-8.0823,-8.3076,-8.4916,-8.4994,-8.5735,-8.6573,-8.7064,-8.8083,-8.8877,-8.9211,-9.0187,-9.0992,-9.1175,-9.121,-9.1139,-9.0915,-9.0915,-9.0877,-9.0719,-9.0838,-9.0953,-9.0989,-9.11,-9.11,-9.0953,-9.0953,-9.1098,-9.1346,-9.1494,-9.1524,-9.1525,-9.1651,-9.1983,-9.2443,-9.1975,-9.1843,-9.1949,-9.2382,-9.2617,-9.2578,-9.2148,-9.1719,-9.1211,-9.039,-8.9492,-8.8633,-8.8281,-8.8906,-8.9922,0.0,0.0,0.0,0.0,0.0,0.0,0.0,0.0,0.0,0.0,0.0,0.0,0.0,0.0,0.0,0.0,0.0,0.0,0.0,0.0,0.0,-3.3702,-3.2406,-3.1916,-3.1916,-3.1916,-3.1916,-3.2071,-3.3415,-3.3138,-3.1651,-3.1651,-3.2126,-3.2945,-3.3759,-3.3751,-3.3395,-3.4022,-3.3634,-3.2225,-3.1874,-3.1792,-3.2026,-3.1596,-3.1102,-3.0463,-3.0001,-3.0222,-3.0775,0.0,0.0,0.0,0.0,0.0,-2.9128,-3.2617,-3.6029,-4.0489,-4.8891,-5.4574,-5.9739,-6.7245,-7.1097,-7.3707,-7.6598,-7.8925,-8.1022,-8.3402,-8.4456,-8.5218,-8.5725,-8.621,-8.6715,-8.72,-8.8144,-8.8985,-8.9352,-9.0312,-9.1029,-9.1175,-9.121,-9.1139,-9.0954,-9.0953,-9.0915,-9.0759,-9.0915,-9.0991,-9.0989,-9.11,-9.1136,-9.0989,-9.0989,-9.1098,-9.1291,-9.1494,-9.1369,-9.0907,-9.1937,-9.2365,-9.229,-9.245,-9.2535,-9.2617,-9.2617,-9.25,-9.2304,-9.1601,-9.1133,-9.0703,-8.9258,-8.8633,-8.8398,-8.7734,-8.8554,-9.0,0.0,0.0,0.0,0.0,0.0,0.0,0.0,0.0,0.0,0.0,-3.8855,-3.8935,0.0,0.0,0.0,0.0,0.0,0.0,0.0,0.0,0.0,-3.2757,-3.2637,-3.2654,-3.2959,-3.2959,-3.3128,-3.3449,-3.4485,-3.4657,-3.4453,-3.4453,-3.4726,-3.5152,-3.6,-3.6089,-3.5793,-3.6154,-3.6093,-3.5379,-3.3382,-3.3327,-3.4098,-3.2125,-3.233,-3.3441,-3.2424,-3.2826,-3.3317,-3.1377,-3.1077,0.0,0.0,0.0,-3.0182,-3.331,-3.6897,-4.0781,-4.5529,-5.3685,-6.2582,-6.8667,-7.207,-7.4601,-7.7676,-7.9533,-8.1276,-8.3489,-8.4702,-8.5495,-8.5725,-8.6392,-8.6995,-8.7237,-8.8309,-8.9122,-8.9402,-9.0402,-9.1175,-9.121,-9.121,-9.1136,-9.1028,-9.0953,-9.0915,-9.0877,-9.0915,-9.0915,-9.1028,-9.11,-9.1136,-9.0989,-9.0989,-9.1198,-9.1511,-9.1566,-9.1778,-9.2144,-9.2372,-9.213,-9.1473,-9.2224,-9.2578,-9.2617,-9.2617,-9.2187,-9.1445,-9.1367,-9.039,-8.9023,-8.8789,-8.8281,-8.7656,-8.7539,-8.8554,-9.0,0.0,0.0,0.0,0.0,0.0,0.0,0.0,0.0,0.0,0.0,0.0,-3.7334,0.0,0.0,0.0,0.0,0.0,0.0,0.0,0.0,0.0,-3.2588,-3.2588,-3.274,-3.3196,-3.372,-3.4128,-3.445,-3.5292,-3.5775,-3.5929,-3.6296,-3.6142,-3.5929,-3.7454,-3.7551,-3.6856,-3.8198,-3.8101,-3.7091,-3.6164,-3.7066,-3.855,-3.6463,-3.6599,-3.7455,-3.5259,-3.4865,-3.4866,-3.3366,-3.3134,-3.3568,-3.2912,0.0,0.0,0.0,-3.8144,-4.2818,-5.0687,-5.7595,-6.3998,-6.9641,-7.2495,-7.4665,-7.7378,-7.9264,-8.1119,-8.3402,-8.4538,-8.5261,-8.5725,-8.6501,-8.71,-8.7305,-8.8309,-8.9173,-8.9402,-9.0444,-9.121,-9.121,-9.121,-9.1175,-9.0989,-9.0991,-9.0953,-9.0953,-9.0953,-9.0991,-9.11,-9.1175,-9.1175,-9.11,-9.1202,-9.1423,-9.1721,-9.1843,-9.207,-9.2459,-9.2044,-9.1906,-9.2029,-9.2421,-9.2617,-9.2578,-9.207,-9.164,-9.1211,-9.0234,-8.9375,-8.8672,-8.8203,-8.7812,-8.75,-8.75,-8.8554,-8.9922,0.0,0.0,0.0,0.0,0.0,0.0,0.0,0.0,0.0,0.0,0.0,0.0,0.0,0.0,0.0,0.0,0.0,0.0,0.0,0.0,0.0,-3.2146,-3.2381,-3.2534,-3.2892,-3.372,-3.4385,-3.4845,-3.5934,-3.694,-3.7558,-3.8117,-3.8291,-3.8284,-3.9204,-3.9182,-3.8514,-4.0097,-4.0111,-3.9011,-3.9505,-4.0965,-4.2808,-4.1672,-4.186,-4.2391,-3.9368,-3.8107,-3.7524,-3.5746,-3.5388,-3.5784,-3.5582,-3.598,0.0,0.0,0.0,-4.4844,-5.3922,-5.8668,-6.2486,-6.8394,-7.1127,-7.3338,-7.6974,-7.8926,-8.0795,-8.3402,-8.4409,-8.506,-8.5608,-8.6356,-8.6925,-8.7237,-8.8249,-8.9107,-8.9402,-9.0402,-9.1139,-9.121,-9.121,-9.1175,-9.0989,-9.0952,-9.0991,-9.0989,-9.0991,-9.1028,-9.121,-9.121,-9.1206,-9.1275,-9.1431,-9.1627,-9.1889,-9.2109,-9.2288,-9.2496,-9.19,-9.1988,-9.2578,-9.2383,-9.2383,-9.2539,-9.1679,-9.1054,-9.0547,-8.9258,-8.8594,-8.8359,-8.7734,-8.75,-8.75,-8.75,-8.8437,-8.957,0.0,0.0,0.0,0.0,0.0,0.0,0.0,0.0,0.0,0.0,0.0,0.0,-3.5037,-3.5037,-3.426,-3.2667,-3.2634,0.0,0.0,0.0,0.0,-3.0948,-3.1557,0.0,-3.1993,-3.3276,-3.4077,-3.4385,-3.6355,-3.8117,-3.9778,-4.055,-4.1942,-4.3559,-4.1788,-4.1006,-4.1238,-4.2282,-4.2543,-4.247,-4.3092,-4.428,-4.5815,-4.6721,-4.7821,-4.8312,-4.5337,-4.3847,-4.266,-3.8868,-3.7903,-3.8156,-3.7316,-3.7883,-3.9206,0.0,0.0,0.0,-5.0531,-5.2722,-5.5832,-6.3864,-6.7148,-7.0086,-7.7017,-7.8986,-8.0335,-8.3279,-8.4409,-8.498,-8.5218,-8.5876,-8.6644,-8.7237,-8.8144,-8.8931,-8.9352,-9.0269,-9.0992,-9.1175,-9.121,-9.1175,-9.0989,-9.0953,-9.0915,-9.1028,-9.0915,-9.0992,-9.121,-9.121,-9.1275,-9.1492,-9.1484,-9.1683,-9.2082,-9.2342,-9.2482,-9.2486,-9.2537,-9.2578,-9.2578,-9.1758,-9.1836,-9.2539,-9.1679,-9.0351,-8.8828,-8.875,-8.8242,-8.7578,-8.7539,-8.75,-8.75,-8.75,-8.8047,-8.875,0.0,0.0,0.0,0.0,0.0,0.0,0.0,0.0,0.0,0.0,0.0,0.0,0.0,-3.3442,-3.2724,-3.1887,-3.0701,0.0,0.0,0.0,0.0,-3.109,-3.2046,-3.2646,-3.2689,-3.4133,-3.5104,-3.5418,-3.842,-4.0085,-4.0705,-4.2076,-4.305,-4.3995,-4.4124,-4.4208,-4.4576,-4.5332,-4.5518,-4.5387,-4.744,-4.9463,-5.119,-5.1432,-5.2851,-5.4267,-5.0896,-4.86,-4.6721,-4.4324,-4.2551,-4.1325,-4.0179,-4.0521,-4.1571,-4.3244,-4.4481,-4.6464,-5.1715,-5.3605,-5.5892,-6.3583,-6.7481,-7.072,-7.5578,-7.8419,-8.0697,-8.3402,-8.4242,-8.4692,-8.5139,-8.5876,-8.6501,-8.6715,-8.7861,-8.8914,-8.9159,-9.0187,-9.0992,-9.1175,-9.121,-9.1175,-9.0989,-9.0915,-9.0915,-9.0989,-9.0915,-9.1028,-9.1341,-9.1341,-9.1423,-9.1683,-9.1805,-9.2052,-9.2344,-9.2463,-9.2486,-9.2486,-9.2576,-9.2617,-9.2578,-9.1719,-9.1172,-9.0898,-9.0,-8.9609,-8.9453,-8.8359,-8.7773,-8.75,-8.75,-8.75,-8.75,-8.75,-8.8008,-8.8633,0.0,0.0,0.0,0.0,0.0,0.0,0.0,0.0,-3.3669,-3.4487,0.0,0.0,0.0,0.0,-3.1447,-3.0778,-2.9449,-2.902,-2.9985,-3.0419,-3.0996,-3.2028,-3.3166,-3.3859,-3.4212,-3.5554,-3.6731,-3.7604,-4.0048,-4.1722,-4.2769,-4.3648,-4.4463,-4.5357,-4.6388,-4.6631,-4.6269,-4.7098,-4.7483,-4.7861,-5.1503,-5.3345,-5.4246,-5.5963,-5.7064,-5.7397,-5.5388,-5.3699,-5.2232,-5.1381,-4.9999,-4.8362,-4.6452,-4.5087,-4.4459,-4.5321,-4.5711,-4.6651,-5.0677,-5.2501,-5.4839,-6.1655,-6.5187,-6.85,-7.4384,-7.7276,-7.9722,-8.3174,-8.4074,-8.4361,-8.49,-8.5648,-8.6247,-8.6392,-8.7672,-8.8766,-8.9069,-9.006,-9.0877,-9.1175,-9.121,-9.1175,-9.0989,-9.0915,-9.0915,-9.0989,-9.0991,0.0,-9.1368,-9.1484,-9.1657,-9.1957,-9.2129,-9.2334,-9.2502,-9.2525,-9.2533,-9.2533,-9.2577,-9.2617,-9.2578,-9.1406,-9.0703,-9.0351,-8.8906,-8.8633,-8.9062,-8.7969,-8.75,-8.75,-8.75,-8.75,-8.75,-8.7461,-8.7812,-8.8203,0.0,0.0,0.0,0.0,0.0,0.0,0.0,0.0,-3.2621,-3.2637,0.0,0.0,0.0,0.0,0.0,-2.9553,-2.9212,-2.9189,-3.0002,-3.0809,-3.1952,-3.3597,0.0,0.0,-3.6645,-3.7364,-3.8651,-4.0365,-4.113,-4.3067,-4.5893,-4.5434,-4.6234,-4.8143,-4.8592,-4.7889,-4.6243,-4.7492,-4.8451,-4.9661,-5.4916,-5.5826,-5.4842,-6.0355,-6.0618,-5.8058,-5.9008,-5.9353,-5.9308,-5.9975,-5.9911,-5.9058,-5.5728,-5.1632,-4.788,-4.7461,-4.7092,-4.6884,0.0,0.0,0.0,-5.806,-5.9939,-6.3031,-7.3494,0.0,-7.7044,-8.2559,-8.3748,-8.3954,-8.4527,-8.5297,-8.5951,-8.632,-8.7517,-8.8521,-8.9016,-8.9923,-9.0681,-9.11,-9.121,-9.1175,-9.0989,-9.0915,-9.0915,-9.0989,-9.1062,-9.1202,-9.14,-9.1657,-9.1957,-9.221,-9.2411,-9.2486,-9.2486,-9.2576,-9.2617,-9.2617,-9.2617,-9.2578,-9.25,-9.0781,-9.0469,-9.1094,-8.8594,-8.75,-8.75,-8.75,-8.75,-8.75,-8.75,-8.75,-8.75,-8.742,-8.7421,-8.75,0.0,0.0,0.0,0.0,0.0,-3.1058,-3.3792,-3.3076,-3.2576,0.0,0.0,0.0,-3.2794,-3.1966,-3.0627,-2.9256,-2.8886,-2.893,-2.9189,-3.0181,-3.1091,-3.1809,-3.3684,-3.5151,-3.6149,-3.7625,-3.9089,-4.0818,-4.2179,-4.3656,-4.5412,-4.6132,-4.658,-4.668,-4.7772,-4.8207,-4.8353,-4.8683,-4.9266,-5.0419,-5.4622,-5.7979,-6.0821,-6.4995,-6.7909,-6.9809,-6.9403,-6.759,-6.5452,-6.5351,-6.1792,-5.6842,-5.3018,-5.0691,-4.9261,-4.9261,-4.9257,-4.9611,-5.0507,0.0,0.0,0.0,0.0,0.0,0.0,0.0,-7.495,-7.9084,-8.0671,-8.1996,-8.4184,-8.5297,-8.5801,-8.5951,-8.7022,-8.8144,-8.8766,-8.9502,-9.0231,-9.0915,-9.1139,-9.1175,-9.0989,-9.0915,-9.0915,0.0,-9.0991,-9.1133,-9.1513,-9.1957,-9.2222,-9.2397,-9.2528,-9.2577,-9.2577,-9.2578,-9.2617,-9.2617,-9.2617,-9.2265,-9.1601,-9.0508,-8.9804,-8.9336,-8.8047,-8.75,-8.75,-8.75,-8.75,-8.75,-8.75,-8.75,-8.75,-8.7461,-8.7461,-8.75,0.0,0.0,0.0,0.0,0.0,-3.0581,-3.3139,-3.2155,-3.1715,0.0,0.0,0.0,-3.1693,-3.1182,-3.0445,-2.9134,-2.8776,-2.905,-2.9963,-3.036,-3.1441,-3.3644,-3.5087,-3.6546,-3.8307,-3.9038,-4.0532,-4.2782,-4.3209,-4.4386,-4.6279,-4.6462,-4.6403,-4.6127,-4.7761,-4.8657,-4.892,-5.0041,-5.1013,-5.2485,-5.7836,-6.1174,-6.329,-6.864,-7.1381,-7.2396,-7.3098,-7.1884,-7.0116,-7.1778,-6.7777,-6.1322,-5.8383,-5.5101,-5.2292,-5.1904,-5.1658,-5.1664,-5.2022,-5.3118,-5.4921,-5.7734,0.0,0.0,-6.8577,-7.1413,-7.446,0.0,-8.1255,-8.2348,-8.4219,-8.5139,-8.5495,-8.5495,-8.6428,-8.7517,-8.8635,-8.9338,-8.9961,-9.0799,-9.1029,-9.1103,-9.1064,-9.0991,-9.0991,-9.1064,-9.1064,-9.1231,-9.1721,-9.2026,-9.2305,-9.2457,-9.2533,-9.2617,-9.2617,-9.2617,-9.2617,-9.2617,-9.2617,-9.2148,-9.1289,-9.039,-8.9531,-8.8672,-8.7851,-8.75,-8.75,-8.75,-8.75,-8.75,-8.75,-8.75,-8.75,-8.7461,-8.7461,-8.75,0.0,0.0,-2.555,-2.6095,-2.8353,-3.0673,-3.211,-3.112,-3.0685,0.0,-3.1228,-3.0597,-3.0076,-3.036,-3.0085,-2.9398,-2.8574,-2.9108,-3.125,-3.0891,-3.2443,-3.675,-3.7093,-3.846,-4.1212,-4.0954,-4.2202,-4.5202,-4.4022,-4.4827,-4.7528,-4.6378,-4.6058,-4.6381,-4.8257,-4.9027,-4.9177,-5.1407,-5.3486,-5.5723,-6.2168,-6.421,-6.4073,-7.1447,-7.2678,-7.0913,-7.3907,-7.4273,-7.3895,-7.768,-7.4827,-6.9441,-6.7431,-6.2391,-5.6875,-5.5464,-5.4581,-5.3827,-5.2739,-5.4359,-5.6687,-5.794,-5.9735,0.0,-6.999,-7.1851,-7.4073,0.0,-8.2331,-8.2611,-8.3351,-8.385,-8.4175,-8.4291,-8.5178,-8.6453,-8.8367,-8.9076,-8.9725,-9.0641,-9.0838,-9.0992,-9.1175,-9.1064,-9.1064,-9.121,-9.1275,-9.1484,-9.1872,-9.2026,-9.2183,-9.2404,-9.2531,-9.2617,-9.2617,-9.2617,-9.2617,-9.2617,-9.25,-9.1992,-9.1133,-9.0234,-8.9375,-8.8515,-8.7812,-8.75,-8.75,-8.75,-8.75,-8.75,-8.75,-8.75,-8.75,-8.742,-8.7499,-8.7617,0.0,-2.0584,-2.246,-2.5155,-2.6364,-2.8304,-3.1857,-3.1533,-3.1235,-3.2056,-3.1442,-3.0704,-2.9954,-3.0218,-2.985,-2.8471,-2.8588,-2.905,-2.9883,-3.0575,-3.2087,-3.4731,-3.6641,-3.8402,-3.9998,-4.0575,-4.2264,-4.5274,-4.3349,-4.3947,-4.7,-4.5274,-4.5805,-4.7925,-4.8185,-4.9816,-5.2397,-5.2704,-5.5898,-6.0575,-6.0727,-6.3914,-6.9063,-7.3708,-7.7414,-8.0306,-8.2048,-8.0946,-7.8304,-7.5867,-7.4206,-7.2441,-6.8467,-6.6663,-6.5249,-6.088,-5.9853,-5.9539,-5.6948,-5.6717,-5.7444,-5.878,-6.0151,0.0,-6.3695,-6.5163,-6.7131,0.0,-7.2302,-7.3773,-7.6232,-7.7011,-7.7609,-7.8911,-8.0718,-8.3241,-8.6893,-8.8309,-8.913,-8.9676,-9.0436,-9.0915,-9.0954,-9.0991,-9.1064,-9.121,-9.1308,-9.1484,-9.1718,-9.1953,-9.2183,-9.2404,-9.2531,-9.2617,-9.2617,-9.2617,-9.2617,-9.2578,-9.1875,-9.1094,-9.0234,-8.9336,-8.8515,-8.7734,-8.7578,-8.75,-8.75,-8.75,-8.75,-8.75,-8.75,-8.75,-8.75,-8.75,-8.789,-8.8356,-1.9808,-2.147,-2.362,-2.6158,-2.7357,-2.8973,-3.1609,-3.1052,-3.0695,-3.1672,-3.0749,-3.0513,-3.1441,-3.1083,-3.1182,-3.2094,-3.1747,-3.1884,-3.2939,-3.3226,-3.4315,-3.6588,-3.78,-3.8973,-4.0211,-4.0658,-4.1892,-4.3982,-4.3128,-4.3589,-4.5348,-4.6034,-4.7997,-5.0781,-5.089,-5.3049,-5.651,-5.5169,-5.7126,-6.1349,-6.3477,-6.7874,-7.3641,-7.8118,-8.1364,-8.3677,-8.4523,-8.3779,-8.1696,-7.8003,-7.5816,-7.4131,-7.2216,-6.989,-6.7344,-6.4144,-6.2919,-6.1858,-5.8929,-5.8315,-5.8749,-5.9537,-6.0677,0.0,0.0,-6.5421,-6.6976,-7.0074,-7.1324,-7.2437,-7.3972,0.0,-7.5476,-7.6706,-7.9006,-8.1236,-8.2935,-8.5912,-8.8309,-8.9376,-8.9906,-9.0394,-9.0838,-9.0915,-9.1028,-9.121,-9.1241,-9.1368,-9.1533,-9.184,-9.208,-9.2256,-9.2486,-9.2617,-9.2617,-9.2617,-9.2617,-9.2578,-9.1719,-9.0859,-8.9961,-8.9101,-8.8242,-8.75,-8.75,-8.75,-8.75,-8.7418,-8.7414,-8.7414,-8.746,-8.75,-8.75,-8.746,-8.7693,-8.7961,-2.0776,-2.2719,-2.4867,-2.7171,-2.8576,-2.9777,-3.1178,-3.029,-2.9718,-3.0771,-3.063,-3.1319,-3.3885,-3.4317,-3.5626,-3.8326,-3.7991,-3.7803,-3.8103,-3.784,-3.8207,-3.919,-3.9338,-3.9951,-4.1007,-4.0924,-4.1519,-4.2842,-4.3007,-4.3478,-4.4157,-4.6773,-4.9768,-5.2983,-5.4086,-5.6376,-5.928,-5.8136,-5.9314,-6.2558,-6.7458,-7.1915,-7.599,-8.0946,-8.3389,-8.4309,-8.4937,-8.4937,-8.4263,-8.1094,-7.8241,-7.5968,-7.5651,-7.2871,-6.9349,-6.6789,-6.5466,-6.4117,-6.0497,-5.9859,-6.0266,-6.0295,-6.1351,-6.3199,0.0,0.0,0.0,0.0,0.0,0.0,0.0,0.0,0.0,0.0,0.0,0.0,0.0,-8.2321,0.0,-8.779,-8.8857,-8.9659,-9.002,-9.0262,-9.057,-9.1136,-9.0867,-9.0894,-9.1454,-9.1756,-9.1981,-9.2159,-9.2439,-9.2617,-9.2617,-9.2617,-9.2617,-9.2578,-9.1562,-9.0664,-8.9961,-8.8945,-8.8086,-8.7459,-8.7459,-8.7459,-8.7418,-8.7314,-8.7258,-8.7269,-8.7369,-8.7492,-8.7646,-8.7557,-8.7626,-8.7732,-2.0077,-2.1008,-2.2845,-2.6864,-2.7415,-2.8042,-2.9895,-2.9529,-2.9338,-3.0013,-3.2901,-3.5621,-3.7631,-4.2361,-4.5984,-4.7557,-4.9558,-4.8939,-4.4266,-4.5367,-4.4197,-3.9959,-4.0371,-4.0966,-4.1483,-4.1089,-4.1519,-4.2842,-4.2433,-4.3221,-4.5069,-4.5916,-4.8201,-5.1749,-5.5866,-5.7472,-5.7439,-6.0823,-6.4918,-6.9335,-7.076,-7.1745,-7.2854,-7.7562,-8.1079,-8.3732,-8.537,-8.6208,-8.6057,-8.2406,-8.0858,-7.9702,-7.5913,-7.6671,-7.7547,-7.0499,-6.9246,-6.8973,-6.3807,-6.2212,-6.1822,-6.0852,-6.2336,-6.3728,-6.2907,0.0,-6.3489,-6.4349,0.0,0.0,0.0,0.0,0.0,0.0,0.0,0.0,-7.3317,-7.722,-8.0685,-8.2208,-8.6612,-8.8873,-8.7147,-8.7807,-8.9152,-9.1059,-8.9645,-8.9585,-9.1541,-9.1801,-9.2026,-9.235,-9.2531,-9.2617,-9.2617,-9.2617,-9.2617,-9.2578,-9.0937,-9.0117,-8.9961,-8.8359,-8.7495,-8.7225,-8.7225,-8.7225,-8.7219,-8.7156,-8.7117,-8.7104,-8.7086,-8.752,-8.817,-8.8063,-8.8484,-8.8957,-2.065,-2.2019,-2.4018,-2.777,-2.8618,-2.8823,-2.9655,-2.9818,-2.9981,-3.0144,-3.2514,-3.5206,-3.7493,-4.051,-4.4806,-5.0527,-5.2004,-5.1993,-5.0553,-4.9875,-4.7796,-4.3725,-4.1813,-4.1515,-4.2797,-4.1644,-4.109,-4.1316,-4.2397,-4.3045,-4.3162,-4.6172,-5.0101,-5.4525,-5.8008,-6.1276,-6.4158,-6.4635,-6.6651,-6.9617,-7.0799,-7.2414,-7.4904,-8.1184,-8.4713,-8.6427,-8.723,-8.7609,-8.7423,-8.5312,-8.3156,-8.1269,-8.1004,-7.938,-7.69,-7.3719,-7.2061,-7.0369,-6.6143,-6.6038,-6.6606,-6.4708,-6.611,-6.7532,-6.525,-6.4861,-6.508,-6.5297,0.0,0.0,0.0,0.0,0.0,0.0,-7.1043,0.0,0.0,0.0,0.0,0.0,0.0,0.0,-8.635,-8.8243,-8.9797,-9.0952,-9.0187,-9.0287,-9.163,-9.184,-9.2041,-9.2404,-9.2531,-9.2617,-9.2617,-9.2617,-9.2303,-9.1701,-9.049,-8.9578,-8.8955,-8.7745,-8.7174,-8.7097,-8.7117,-8.7156,-8.7107,-8.7039,-8.7269,-8.7697,-8.7446,-8.7681,-8.8172,-8.8084,-8.8263,-8.8381,-2.07,-2.278,-2.5034,-2.8284,-2.9363,-2.9756,-2.9842,-3.017,-3.0498,-3.1299,-3.3484,-3.6184,-3.8896,-4.3106,-4.8635,-5.5864,-5.876,-6.0033,-5.9416,-5.6487,-5.3708,-5.116,-4.5508,-4.3529,-4.576,-4.3055,-4.1049,-4.0166,-4.1979,-4.2564,-4.2064,-4.6307,-5.0807,-5.5261,-5.8969,-6.3266,-6.7764,-6.7819,-6.9189,-7.1688,-7.3177,-7.6119,-8.01,-8.4991,-8.7663,-8.8728,-8.8728,-8.8671,-8.8405,-8.7012,-8.4669,0.0,-8.3918,-8.1341,-7.7762,-7.7132,-7.5708,-7.3582,-7.0059,-7.0386,-7.097,-6.8007,-6.9027,-7.007,-6.7362,-6.6719,-6.6719,-6.6823,0.0,0.0,0.0,0.0,0.0,0.0,0.0,-7.2157,0.0,0.0,0.0,0.0,0.0,0.0,0.0,-8.7059,-8.8707,-8.9679,-8.9797,-9.0373,-9.1605,-9.184,-9.2041,-9.2404,-9.2531,-9.2617,-9.2617,-9.2617,-9.2104,-9.1084,-9.0225,-8.9398,-8.8612,-8.752,-8.7117,-8.7308,-8.7089,-8.6987,-8.7025,-8.6865,-8.729,-8.8067,-8.7986,-8.8106,-8.8279,-8.8235,-8.808,-8.7724,-1.9706,-2.2564,-2.53,-2.7671,-2.918,-2.9983,-3.029,-3.0334,-3.1136,-3.3516,-3.7206,-4.0899,-4.3909,-5.5519,-6.4027,-6.6275,-7.4817,-7.7721,-7.2111,-6.7031,-6.3858,-6.2905,-5.2068,-4.7901,-5.1495,-4.592,-4.1933,-3.9714,-4.0614,-4.1647,-4.2941,-4.5662,-4.8714,-5.1966,-5.791,-6.1611,-6.3891,-6.9269,-7.4204,-7.8341,-8.0105,-8.3913,-8.8485,-8.7204,-8.7792,-8.9371,-8.9371,0.0,0.0,-8.6346,-8.5065,0.0,0.0,0.0,0.0,0.0,0.0,0.0,0.0,0.0,0.0,-6.9677,-6.945,-6.9703,-6.7272,-6.6719,-6.6823,-6.6997,-6.7368,0.0,0.0,0.0,-6.9284,-6.8162,0.0,0.0,0.0,0.0,0.0,0.0,0.0,0.0,0.0,-8.2616,-8.4104,-8.6559,-8.7465,-8.8997,-9.1566,-9.184,-9.2041,-9.2404,-9.2531,-9.2617,-9.2617,-9.2617,-9.2104,-9.1084,-9.0225,-8.971,-8.9508,-8.7793,-8.741,-8.8108,-8.7117,-8.6747,-8.6787,-8.6584,-8.6996,-8.7771,-8.8557,-8.8822,-8.8798,-8.8798,-8.8258,-8.7526,-2.0539,-2.3751,-2.6221,-2.7446,-2.8509,-2.9049,-2.898,-3.0586,-3.3661,-3.8536,-4.3476,-4.8436,-5.3543,-6.0093,-6.5991,-7.0977,-7.4582,-7.6072,-7.5118,-6.9356,-6.6126,-6.6492,-5.4678,-5.0364,-5.5355,-4.9044,-4.5138,-4.3636,-4.476,-4.5377,-4.564,-4.7349,-4.9679,-5.2742,-5.7575,-6.2765,-6.8326,-7.1509,-7.5735,-8.0646,-8.312,-8.5805,-8.8367,0.0,-8.8872,-8.9423,-8.9423,-8.9423,0.0,-8.862,-8.755,-8.6556,-8.7144,-8.6074,-8.4544,-8.4196,-8.3471,-8.2293,0.0,0.0,-8.1022,-7.6049,0.0,0.0,0.0,0.0,0.0,0.0,0.0,0.0,0.0,0.0,0.0,0.0,0.0,0.0,0.0,0.0,0.0,0.0,0.0,0.0,0.0,0.0,0.0,-8.6738,-8.8543,-9.0221,-9.1515,-9.1781,-9.2026,-9.2264,-9.2492,-9.2617,-9.2617,-9.2617,-9.1744,-9.0089,-9.03,-8.9691,-8.8398,-8.8311,-8.8107,-8.7797,-8.7487,-8.7088,-8.6623,-8.7041,-8.7717,-8.8519,-8.8745,-8.8836,-8.8804,-8.8804,-8.8297,-8.7511,-2.0753,-2.3797,-2.6333,-2.6914,-2.8247,-2.9314,-3.0274,-3.3385,-3.7629,-4.3494,-4.9119,-5.4535,-5.9103,-6.4434,-6.9183,-7.3285,-7.6266,-7.767,-7.7069,-7.2598,-7.0433,-7.1489,-6.1222,-5.7761,-6.2463,-5.4525,-4.9719,-4.8318,-4.7271,-4.6747,-4.7017,-4.8483,-5.0528,-5.3156,-5.6449,-6.2647,-7.0717,-7.2226,-7.687,-8.3343,-8.6119,-8.8106,0.0,0.0,-8.9578,-8.8772,0.0,-8.998,-8.9811,-9.0236,-8.9603,-8.8881,-9.0262,-8.8959,-8.7045,-8.7603,-8.6899,-8.5659,-8.4239,-8.5186,0.0,-8.0971,-8.1288,0.0,-7.6016,0.0,-7.489,0.0,0.0,0.0,0.0,0.0,0.0,0.0,0.0,0.0,0.0,-7.1491,0.0,0.0,0.0,0.0,0.0,0.0,-8.4124,-8.6467,-8.8461,-9.0146,0.0,-9.176,-9.2012,-9.2237,-9.2489,-9.2617,-9.2617,-9.2617,-9.1692,-8.9947,-9.0478,-8.9973,-8.8575,-8.8467,-8.8313,-8.8035,-8.7417,-8.6906,-8.6481,-8.7241,-8.7866,-8.8405,-8.8688,-8.8644,-8.8437,-8.8437,-8.7927,-8.7167,-2.0372,-2.2901,-2.5301,-2.6738,-2.84,-3.0773,-3.418,-3.8377,-4.3022,-4.8475,-5.4441,-5.9075,-6.166,-6.9276,-7.4276,-7.4276,-8.0631,-8.2845,-7.888,-7.6976,-7.6653,-7.8159,-7.1245,-6.9053,-7.2432,-6.1977,-5.5377,-5.3294,-4.7978,-4.6095,-4.7288,-4.9166,-5.1109,-5.3156,-5.5043,-6.1523,-7.0946,-7.1784,-7.7717,-8.6679,-8.9234,-9.0831,-9.1655,-9.1728,-8.9939,-8.7695,-9.0612,-9.1132,-9.0488,-9.0872,-9.1039,-9.1122,-9.1098,-9.1129,-9.1153,-9.1059,-9.1039,-9.0629,-8.861,-8.8038,-8.7313,-8.4264,-8.3465,0.0,0.0,0.0,-7.8639,0.0,0.0,0.0,0.0,0.0,0.0,0.0,0.0,0.0,0.0,0.0,-7.1898,0.0,0.0,0.0,0.0,-7.7845,-8.0787,-8.5673,-8.7133,-8.8922,0.0,-9.17,-9.1919,-9.2295,-9.2482,-9.2617,-9.2617,-9.2617,-9.1916,-9.0591,-9.0719,-9.0513,-8.996,-8.8444,-8.8228,-8.8866,-8.7095,-8.6331,-8.6392,-8.7121,-8.7435,-8.7648,-8.8419,-8.8321,-8.7736,-8.7736,-8.7251,-8.661,-1.9644,-2.2602,-2.5989,-2.9271,-2.9828,-3.0899,-3.3307,-3.9504,-4.6756,-5.4359,-6.262,-7.0092,-7.6464,-7.9964,-8.1842,-8.1842,-8.3356,-8.38,-8.2728,-7.9117,-7.8736,-8.2469,-7.4236,-7.141,-7.5246,-6.5674,-5.9788,-5.8161,-5.3342,-5.1178,-5.1486,-5.1896,-5.3162,-5.5172,-5.7093,-6.3014,-7.168,-7.3361,-8.0094,-8.9628,-9.0573,-9.0926,-9.1137,0.0,-9.1271,-8.8676,-9.0451,-9.0989,-9.0902,-9.1213,-9.1417,-9.1578,-9.1811,-9.1957,-9.1976,-9.1976,-9.1936,-9.1795,-9.1276,-9.1096,-9.0453,-8.7862,-8.734,-8.6505,0.0,0.0,0.0,0.0,0.0,0.0,0.0,0.0,0.0,0.0,0.0,0.0,0.0,0.0,0.0,-7.16,0.0,0.0,-7.4066,-7.8098,-8.1563,-8.3415,-8.6274,0.0,0.0,0.0,-9.0499,-9.2183,-9.2424,-9.2535,-9.2617,-9.2617,-9.1916,-9.0591,-9.127,-9.099,-8.9936,-9.0201,-8.9701,-8.8733,-8.8276,-8.7666,-8.7121,-8.7319,-8.7853,-8.8419,-8.8058,-8.7485,-8.6931,-8.6931,-8.6776,-8.661,-1.958,-2.2497,-2.6169,-2.9821,-3.3399,-3.6587,-3.8971,-4.3544,-4.9852,-5.8652,-6.6487,-7.3195,-7.8303,-8.1645,-8.3699,-8.4035,-8.396,-8.3196,-8.1326,-8.0631,-8.0526,-8.1211,-7.802,-7.73,-7.9491,-7.2055,-6.6741,-6.394,-5.8975,-5.5552,-5.3615,0.0,0.0,0.0,0.0,-6.2642,-7.0689,-7.6533,-8.303,-8.9637,-9.1208,-9.1883,0.0,-9.3115,-9.2286,-9.0645,-9.1181,-9.1307,-9.1338,-9.2083,-9.2183,-9.2054,-9.2632,-9.2581,-9.2327,-9.2299,-9.2269,-9.2254,-9.2284,-9.2269,-9.191,-9.0558,-9.0305,-8.9581,-8.6585,-8.5966,-8.6037,0.0,-8.4669,-8.4212,0.0,0.0,0.0,0.0,0.0,0.0,-7.3078,-7.2617,-7.2279,0.0,-7.4326,0.0,0.0,-7.8686,-8.2743,-8.3351,-8.5486,0.0,0.0,0.0,-8.9643,-9.1135,-9.2033,-9.2533,-9.2617,-9.2498,-9.1968,-9.11,-9.1529,-9.1244,-9.037,-9.0559,-9.0133,-8.9171,-8.844,-8.7863,-8.7401,-8.7435,-8.7578,-8.7711,-8.7331,-8.6915,-8.661,-8.661,-8.661,-8.661,-2.022,-2.2889,-2.6095,-2.9784,-3.7509,-4.4442,-4.7912,-5.0053,-5.4411,-6.2865,-6.898,-7.3226,-7.493,-7.9365,-8.2566,-8.3232,-8.3521,-8.2067,-7.8421,-8.1658,-8.2061,-7.8345,-8.1933,-8.3866,-8.3789,-7.8884,-7.3919,-6.9193,-6.4008,-5.9085,0.0,0.0,0.0,0.0,0.0,0.0,0.0,-8.0126,-8.6023,-8.8834,-9.1493,-9.3062,-9.3726,-9.3207,-9.3008,-9.2904,-9.2247,-9.1912,-9.1954,-9.2987,-9.2938,-9.2586,-9.3243,-9.2976,-9.2393,-9.2338,-9.2299,-9.2313,-9.2313,-9.2313,-9.2327,-9.23,-9.23,-9.1834,-8.9947,-8.9523,-8.9523,-8.9523,-8.8002,-8.7754,0.0,0.0,0.0,0.0,0.0,0.0,-7.5406,-7.4704,-7.4088,-7.3913,0.0,0.0,0.0,0.0,0.0,0.0,0.0,0.0,0.0,0.0,-8.9035,-9.0186,-9.1697,-9.2533,-9.2617,-9.2326,-9.2032,-9.1685,-9.1563,-9.1299,-9.0989,-9.0367,-8.994,-8.9671,-8.8209,-8.755,-8.7435,-8.7346,-8.6979,-8.6414,-8.6556,-8.661,-8.661,-8.661,-8.661,-8.661,-2.2356,-2.3707,-2.6241,-3.1697,-3.9736,-4.8054,-5.5512,-6.1098,-6.5954,-7.052,-7.5825,-7.9688,-8.1033,-8.2081,-8.2909,-8.3265,-8.3108,-8.283,-8.2254,-8.2953,-8.3193,-8.2642,-8.4179,-8.4843,-8.4464,-8.0444,-7.5438,-6.9436,-6.4727,-5.9985,0.0,0.0,0.0,0.0,0.0,0.0,-7.5832,-8.2045,0.0,-9.1769,-9.1976,-9.3176,-9.4655,-9.3138,-9.3083,-9.3722,-9.2597,-9.2617,-9.3142,-9.256,-9.2822,-9.3367,-9.2703,-9.251,-9.2479,-9.2468,-9.2393,-9.2315,-9.2443,-9.2403,-9.2373,-9.2382,-9.2382,-9.2262,-9.1834,-9.1752,-9.1752,-9.1752,-9.1476,-9.114,-9.0869,0.0,0.0,0.0,0.0,0.0,-8.111,-8.0502,-7.9547,-7.81,0.0,-8.0079,0.0,0.0,0.0,0.0,0.0,0.0,0.0,0.0,-8.8206,0.0,-9.2329,0.0,0.0,0.0,-9.2027,-9.1685,-9.1563,-9.1299,-9.0989,-9.0982,-9.021,-8.8902,-8.8661,-8.8155,-8.7423,-8.6825,-8.6568,-8.65,-8.6583,-8.661,-8.661,-8.661,-8.661,-8.661,-2.2611,-2.4653,-2.8485,-3.6879,-4.5653,-5.4612,-6.3357,-6.9958,-7.3571,-7.2737,-7.4342,-7.6014,-7.762,-7.9709,-8.1392,-8.2362,-8.2817,-8.3099,-8.3247,-8.4113,-8.4368,-8.396,-8.4878,-8.5123,-8.4646,-8.2819,-7.8441,-7.1411,-6.8681,-6.4274,0.0,0.0,0.0,-6.0347,0.0,-6.9534,0.0,0.0,0.0,-9.0863,-9.1976,-9.2913,-9.3601,-9.2734,-9.2711,-9.3098,-9.291,-9.3483,-9.4193,-9.3717,-9.3336,-9.312,-9.3521,-9.3103,-9.2468,-9.2459,-9.2443,-9.24,-9.2457,-9.2453,-9.2453,-9.245,-9.245,-9.2414,-9.234,-9.2287,-9.228,-9.2225,-9.2222,-9.1715,-8.9891,-8.8272,0.0,0.0,0.0,0.0,0.0,0.0,-8.2444,0.0,0.0,0.0,0.0,0.0,0.0,0.0,0.0,-8.2752,-8.7407,0.0,-8.7695,0.0,0.0,0.0,-9.2351,0.0,-9.1759,-9.1524,-9.132,-9.1193,-9.11,-9.1175,-9.0552,-8.9354,-8.8964,-8.8335,-8.748,-8.6761,-8.65,-8.6556,-8.6583,-8.661,-8.661,-8.661,-8.661,-8.661,-2.4502,-2.723,-3.2188,-4.2731,-5.2114,-6.0612,-6.821,-7.4747,-7.7811,-7.4591,-7.32,-7.3076,-7.4436,-7.7881,-8.0463,-8.1636,-8.2863,-8.3591,-8.3764,-8.5023,-8.5366,-8.4607,-8.5269,-8.5393,-8.4777,-8.486,-8.1454,-7.46,0.0,0.0,0.0,0.0,0.0,0.0,0.0,0.0,0.0,0.0,-8.7487,-9.0432,-9.229,-9.3101,-9.3269,-9.2982,-9.2984,-9.3116,-9.3622,-9.4279,-9.49,-9.4888,-9.4017,-9.3093,-9.4069,-9.3456,-9.2384,-9.2384,-9.2457,-9.2453,-9.2414,-9.2408,-9.2439,-9.2418,-9.2411,-9.2365,-9.2227,-9.2217,-9.2195,-9.2068,-9.2066,-9.1406,-8.9256,-8.8739,0.0,0.0,0.0,0.0,0.0,0.0,-8.5389,0.0,0.0,0.0,-8.0735,0.0,0.0,0.0,0.0,-8.2339,-8.628,-8.636,-8.7503,0.0,0.0,-9.1825,-9.1748,0.0,-9.1533,-9.1406,-9.1159,-9.11,-9.121,-9.1018,-9.0475,-8.969,-8.8881,-8.8097,-8.7331,-8.677,-8.6556,-8.661,-8.661,-8.661,-8.661,-8.6544,-8.6517,-8.6517,-3.1099,-3.3923,-3.7976,-4.741,-5.6675,-6.3526,-6.6032,-7.2286,-7.7638,-7.9901,-7.9846,-7.9515,-7.9495,-8.0938,-8.2165,-8.2605,-8.39,-8.4859,-8.5172,-8.5629,-8.5759,-8.562,-8.6223,-8.6126,-8.5344,-8.5597,-8.347,0.0,0.0,-7.0415,0.0,0.0,0.0,0.0,0.0,0.0,0.0,-8.535,-8.9438,-9.3782,-9.3669,-9.4652,-9.6114,-9.4988,-9.5102,-9.5728,-9.5026,-9.4846,-9.4913,-9.49,-9.4792,-9.4446,-9.3066,-9.2514,-9.2379,-9.2418,-9.2383,-9.242,-9.239,-9.2306,-9.2209,-9.2137,-9.2087,-9.2031,-9.195,-9.1944,-9.1944,-9.1921,-9.1976,-9.1444,-8.9678,-9.0555,-9.108,0.0,0.0,0.0,0.0,0.0,-9.0513,-8.8896,0.0,0.0,-8.4153,-8.2489,0.0,0.0,-8.1103,-8.1414,-8.5831,-8.6221,-8.7728,-9.082,-9.0112,-8.9998,-9.0653,-9.1217,-9.145,-9.1406,-9.1264,-9.121,-9.1171,-9.0402,-8.9628,-8.8881,-8.8058,-8.7292,-8.6699,-8.6621,-8.661,-8.661,-8.661,-8.661,-8.6583,-8.6404,-8.6336,-8.6307,-3.7949,-4.0636,-4.5148,-5.4794,-6.0612,0.0,0.0,-7.3961,-7.6369,-7.8531,-7.8231,-7.8109,-7.8803,-8.0581,-8.1919,-8.2753,-8.4378,-8.5411,-8.5634,-8.6551,-8.6744,-8.6073,-8.6576,-8.6559,-8.5867,-8.5954,-8.4493,0.0,0.0,0.0,0.0,0.0,0.0,0.0,0.0,-8.1703,-8.535,-8.8615,-9.1567,-9.3897,-9.3601,-9.4288,-9.5338,-9.3823,-9.3834,-9.4651,-9.4301,-9.416,-9.4159,-9.4096,-9.4122,-9.4042,-9.3376,-9.2811,-9.2377,-9.2312,-9.2319,-9.2364,-9.2288,-9.2224,-9.2171,-9.2148,-9.2093,-9.1975,-9.1936,-9.1888,-9.1863,-9.1825,-9.1785,-9.1617,-9.0927,-9.0975,-9.1105,-9.1014,0.0,0.0,0.0,0.0,0.0,-9.1207,0.0,-8.9047,0.0,-8.5034,0.0,0.0,0.0,-8.2482,-8.6001,-8.6884,0.0,-9.0157,0.0,-9.0607,-9.1197,-9.1354,-9.1307,-9.1154,-9.1098,-9.11,-9.1171,-9.0321,-8.9337,-8.815,-8.7233,-8.6742,-8.6583,-8.6375,-8.6345,-8.6433,-8.6433,-8.6375,-8.6285,-8.6277,-8.6246,-8.6159,-4.4525,0.0,-5.1897,0.0,-6.4383,-6.7872,-7.3297,-7.4464,-7.5091,-7.6288,-7.6408,-7.6896,-7.8429,-8.0493,-8.2112,-8.3144,-8.4864,-8.597,-8.6402,-8.734,-8.7572,-8.6717,-8.6874,0.0,-8.6418,-8.6435,-8.5706,-8.4407,-8.026,0.0,0.0,0.0,0.0,0.0,-8.3544,-8.6041,-8.8539,-9.1328,-9.3098,-9.4016,-9.4086,-9.4407,-9.4768,-9.4012,-9.3866,-9.4081,-9.4355,-9.4266,-9.3991,-9.3632,-9.3554,-9.3554,-9.327,-9.2814,-9.2295,-9.2171,-9.2206,-9.226,-9.2169,-9.2113,-9.2093,-9.2093,-9.2011,-9.1897,-9.1838,-9.1838,-9.1786,-9.1744,-9.1649,-9.162,-9.162,-9.1166,-9.0943,-9.1634,0.0,0.0,0.0,-9.2081,0.0,-9.1609,-9.0529,-8.9765,-8.96,-8.7078,0.0,0.0,0.0,0.0,-8.6436,-8.761,0.0,0.0,0.0,0.0,-9.0752,-9.1097,-9.1048,-9.0644,-9.0607,-9.0644,-9.0678,-8.9633,-8.8579,-8.7549,-8.6632,-8.6345,-8.6433,-8.6191,-8.6159,-8.6246,-8.6246,-8.6191,-8.6094,-8.612,-8.6088,-8.5992,-5.0772,-5.4249,-5.8108,-6.4472,-6.7788,-6.9922,-7.0878,-7.2517,-7.3995,-7.4388,-7.597,-7.7623,-7.943,-8.1397,-8.2956,-8.3978,-8.5444,-8.6721,-8.7808,-8.7878,-8.7843,0.0,0.0,-8.705,-8.7015,-8.6944,-8.7367,-8.8433,0.0,0.0,-8.2121,0.0,-7.9486,-8.4205,-8.532,-8.8205,-9.2189,-9.2893,-9.3814,-9.4872,-9.5728,-9.5586,-9.508,-9.6795,-9.6366,-9.4991,-9.5846,-9.5586,-9.464,-9.3778,-9.3404,-9.3146,-9.2288,-9.2093,-9.2183,-9.2054,-9.1993,-9.1993,-9.1993,-9.1944,-9.1888,-9.1888,-9.1786,-9.1677,-9.1716,-9.1716,-9.1716,-9.1716,-9.1561,-9.14,-9.14,-9.1231,-9.1149,-9.1268,0.0,0.0,0.0,-9.1607,0.0,-8.9691,-8.9516,-8.9627,-8.9955,-8.865,0.0,0.0,0.0,0.0,0.0,0.0,0.0,-8.8911,-8.8646,0.0,-8.8556,-9.0295,-9.0752,-8.9799,-8.9687,-8.9649,-8.9573,-8.7809,-8.7116,-8.7148,-8.6445,-8.6094,-8.6094,-8.6094,-8.6094,-8.6094,-8.6094,-8.6094,-8.606,-8.5887,-8.5815,-8.5779,-5.7475,-5.9615,-6.1794,-6.5233,-6.7064,-6.8614,-6.9943,-7.1728,-7.3169,-7.4382,-7.6363,-7.8221,-7.9786,-8.1526,-8.3157,0.0,-8.568,-8.6721,0.0,-8.7878,-8.7878,-8.7878,-8.7725,-8.767,-8.7567,-8.825,-8.8779,-8.9124,0.0,0.0,0.0,-8.4036,-8.5601,-8.8752,-9.0488,-9.1861,-9.2915,-9.4467,-9.5299,-9.5652,-9.6031,-9.639,-9.6522,-9.5353,-9.4913,-9.4792,-9.3829,-9.3281,-9.2958,-9.2536,-9.2416,-9.2346,-9.1928,-9.1915,-9.2034,-9.1967,-9.1967,-9.1972,-9.1921,-9.1912,-9.1888,-9.1888,-9.1786,-9.1716,-9.1716,-9.1716,-9.1649,-9.1531,-9.1431,-9.1368,-9.1236,-9.1129,-9.1091,-9.1181,-9.1181,0.0,-9.1261,0.0,-9.1306,-9.0841,-9.0906,-9.0968,-9.1077,-9.0477,0.0,0.0,0.0,0.0,0.0,0.0,0.0,0.0,-8.7971,0.0,-8.974,-9.0126,-9.0101,-8.9687,-8.9611,-8.9267,-8.8691,-8.8228,-8.7763,-8.7218,-8.6303,-8.5992,-8.606,-8.5815,-8.5779,-8.5887,-8.5887,-8.5815,-8.5704,-8.5779,-8.5742,-8.559,-6.019,-6.2233,-6.3847,-6.5602,-6.6634,-6.7939,-6.9619,-7.1329,-7.2951,-7.4557,-7.6665,-7.8536,-7.9972,-8.1223,0.0,-8.4144,-8.5157,-8.6207,-8.7258,-8.7664,-8.7902,-8.7902,-8.7941,-8.8178,-8.8562,-8.9275,0.0,-9.0444,-8.8868,-8.8171,-8.8408,-8.8705,-8.9925,-9.1949,-9.3239,-9.3918,-9.4163,-9.5428,-9.6001,-9.6079,-9.6481,-9.6405,-9.5914,-9.4979,-9.4324,-9.3849,-9.3008,-9.2457,-9.2081,-9.1956,-9.1872,-9.1873,-9.1732,-9.1812,-9.1873,-9.1838,-9.1824,-9.1873,-9.1838,-9.1812,-9.1812,-9.1812,-9.1732,-9.1687,-9.1591,-9.1591,-9.1531,-9.1336,-9.1236,-9.1168,-9.1026,-9.0952,-9.0915,-9.0915,-9.0915,-9.0915,-9.0915,0.0,-9.0873,0.0,0.0,0.0,0.0,-9.0418,-9.0025,0.0,0.0,0.0,0.0,0.0,0.0,-8.7448,-8.8157,-8.8853,-8.9531,-8.9739,-8.9685,-8.9496,-8.9418,-8.8997,-8.8115,-8.7887,-8.7542,-8.7077,-8.6087,-8.5779,-8.5852,-8.5628,-8.559,-8.5704,-8.5704,-8.5628,-8.5511,-8.5667,-8.5628,-8.5511,-5.9751,-6.2425,-6.468,0.0,-6.6605,0.0,-6.9486,-7.1469,-7.3208,-7.4494,-7.6714,-7.8689,-7.9939,-8.0508,-8.1503,-8.3028,0.0,0.0,0.0,-8.7356,-8.7929,-8.7893,-8.7969,-8.8491,-8.9565,-8.9898,-9.0815,-9.2203,-9.1795,-9.2155,-9.3169,-9.2397,-9.2561,-9.3633,-9.3957,-9.4665,-9.561,-9.5872,-9.6058,-9.6234,-9.703,-9.5898,-9.3925,-9.5378,-9.4504,-9.2576,-9.317,-9.2795,-9.1981,-9.1928,-9.1786,-9.1716,-9.1716,-9.1716,-9.1716,-9.1716,-9.1716,-9.1716,-9.1716,-9.1716,-9.1716,-9.1649,-9.1649,-9.1591,-9.1329,-9.1336,-9.1264,-9.1095,-9.0952,-9.0915,-9.0877,-9.0717,-9.0593,-9.0593,-9.0593,-9.0593,-9.0593,-9.0593,-9.0109,0.0,0.0,0.0,-8.8893,-8.8917,-8.9139,0.0,0.0,0.0,0.0,0.0,-8.7351,-8.7222,-8.8756,-8.9182,-8.8231,-8.9148,-8.9497,-8.9218,-8.9015,-8.8515,-8.779,-8.6989,-8.6691,-8.6772,-8.5893,-8.5511,-8.5511,-8.5511,-8.5511,-8.5511,-8.5511,-8.5511,-8.5511,-8.5511,-8.5511,-8.5511,0.0,0.0,-6.3771,-6.5545,-6.6127,-6.6854,-6.8788,-7.1486,-7.3499,-7.3928,-7.6053,-7.8207,-7.9939,-7.9768,-8.0229,-8.1983,-8.3737,-8.5286,-8.6259,-8.735,-8.7932,-8.7941,-8.7998,-8.8135,-8.8397,-8.9403,-9.0777,-9.2431,-9.1824,-9.2061,-9.312,-9.3746,-9.3524,-9.2753,-9.502,-9.5536,-9.4744,-9.6283,-9.7012,-9.6974,-9.6639,-9.6122,-9.5504,-9.4604,-9.3828,-9.3185,-9.2646,-9.2199,-9.1905,-9.1812,-9.1744,-9.1716,-9.1716,-9.1716,-9.1716,-9.1716,-9.1716,-9.1716,-9.1716,-9.1716,-9.1649,-9.1531,-9.1125,-9.0685,-9.0329,-9.049,-9.0647,-9.0447,-9.0683,-9.0877,-9.0676,-9.0635,-9.0593,-9.0593,-9.0593,-9.0593,-9.0593,-9.0593,-9.0482,0.0,-9.0109,-8.9918,-8.9376,-8.9374,-8.8748,0.0,0.0,0.0,-8.6018,-8.5719,-8.608,-8.7079,-8.6995,-8.7036,-8.7388,-8.8268,-8.8577,-8.8301,-8.7481,-8.7019,-8.6913,-8.6805,-8.677,-8.6772,-8.5893,-8.5511,-8.5511,-8.5511,-8.5511,-8.5511,-8.5511,-8.5511,-8.5511,-8.5511,-8.5511,-8.5511,-6.1465,-6.2549,-6.3574,-6.5517,-6.5879,-6.67,-6.8826,-7.1804,-7.3834,-7.4116,-7.6001,-7.8103,-7.9939,-7.9498,-7.9858,-8.1646,-8.3624,-8.5074,-8.5706,-8.707,-8.7937,-8.7994,-8.7997,-8.8341,-8.8997,-9.0119,-9.1752,-9.3961,-9.3257,-9.351,-9.4558,-9.4251,-9.4177,-9.4282,-9.5579,-9.5912,-9.5584,-9.639,-9.6719,-9.6659,-9.59,-9.5371,-9.4907,-9.3983,-9.3327,-9.286,-9.2308,-9.2016,-9.1951,-9.1786,-9.1649,-9.1561,-9.1561,-9.1531,-9.1431,-9.1431,-9.1462,-9.1561,-9.1431,-9.1297,-9.1052,-9.0647,-9.0332,-8.9996,-8.9716,-8.9893,-9.0022,-8.983,-8.9961,-9.0129,-9.0037,-9.0212,-9.0231,-8.985,-8.9676,-8.9569,-8.9569,-8.9225,-8.9148,-8.9531,-8.9569,-8.9418,-8.9037,-8.8998,-8.8382,-8.6807,-8.7032,0.0,-8.5629,-8.583,-8.6165,-8.6578,-8.6576,-8.6885,-8.7504,-8.8305,-8.8224,-8.734,-8.7176,-8.6985,-8.6691,-8.677,-8.6581,-8.6199,-8.5702,-8.5511,-8.5511,-8.5511,-8.5511,-8.5511,-8.5511,-8.5511,-8.5511,-8.5511,-8.5511,-8.5511,-6.1108,-6.2308,-6.3536,-6.5612,-6.5992,-6.7058,-6.9415,-7.2244,-7.4116,-7.4441,-7.6191,-7.8007,-7.9533,-7.9261,-7.9688,-8.1594,-8.3683,-8.4854,-8.4854,-8.6894,-8.7986,-8.8014,-8.8063,-8.8689,-8.9911,-9.098,-9.2746,-9.5355,-9.4786,-9.4983,-9.5865,-9.4216,-9.4405,-9.6106,-9.5718,-9.593,-9.6577,-9.6174,-9.5937,-9.5771,-9.5005,-9.4254,-9.3606,-9.3439,-9.2908,-9.2169,-9.2112,-9.2028,-9.1936,-9.1812,-9.162,-9.14,-9.1368,-9.127,-9.1095,-9.1098,-9.1129,-9.1164,-9.1059,-9.0647,-9.0165,-8.964,-8.9411,-8.9313,-8.8985,-8.9125,-8.9251,-8.9032,-8.9069,-8.9122,-8.9122,-8.9525,-8.9505,-8.8562,-8.8294,-8.8232,-8.8194,0.0,-8.7428,-8.827,-8.8309,-8.827,-8.8194,-8.8155,-8.7809,-8.7036,-8.7616,-8.7424,-8.6038,-8.6542,-8.6619,-8.5961,-8.6614,-8.7235,-8.7842,-8.8243,-8.7857,-8.665,-8.7218,-8.7184,-8.6619,-8.6619,-8.6199,-8.5511,-8.5511,-8.5511,-8.5511,-8.5511,-8.5511,-8.5511,-8.5511,-8.5511,-8.5511,-8.5511,-8.5511,-8.5511,-6.1513,-6.2727,-6.3808,-6.5792,-6.6856,-6.8152,-7.0251,-7.3201,-7.4767,-7.382,-7.5759,-7.7379,-7.7581,-7.7981,-7.9091,-8.129,-8.3555,-8.4916,-8.4916,-8.6866,-8.801,-8.808,-8.8183,-8.8391,-8.8741,-9.0276,-9.1986,-9.3791,-9.3638,-9.3755,-9.4095,-9.3789,-9.3897,-9.4441,-9.5176,-9.5261,-9.4951,-9.568,-9.5641,-9.5005,-9.4138,-9.3705,-9.3536,-9.2763,-9.2347,-9.2113,-9.2113,-9.1967,-9.1812,-9.1732,-9.1591,-9.1368,-9.1303,-9.1202,-9.1098,-9.0953,-9.0564,-9.0279,-9.0528,-9.0035,-8.9389,-8.8926,-8.8729,-8.8334,-8.7407,-8.7528,-8.781,-8.7792,-8.8082,-8.8254,-8.8254,-8.8356,-8.8015,-8.6784,-8.6965,-8.7255,-8.7159,0.0,-8.759,-8.7995,-8.7992,-8.7725,-8.7118,-8.7082,-8.6815,-8.6046,-8.6122,-8.6084,-8.5852,-8.5895,-8.5858,-8.5743,-8.5858,-8.6279,-8.7001,-8.6306,-8.623,-8.677,-8.6077,-8.5734,-8.5702,-8.5702,-8.5626,-8.5511,-8.5511,-8.5511,-8.5511,-8.5511,-8.5511,-8.5511,-8.5511,-8.5511,-8.5511,-8.5511,-8.5511,-8.5511,-6.2247,-6.3457,-6.4523,-6.6411,-6.7243,-6.8481,-7.08,-7.2883,-7.4364,-7.4952,-7.6121,-7.7682,-7.9706,-7.9814,-8.065,-8.3019,-8.4679,-8.5622,-8.5771,-8.7178,-8.81,-8.8121,-8.8824,-8.9724,-9.075,-9.1197,-9.2117,-9.3524,-9.3524,-9.3866,-9.4506,-9.4044,-9.4273,-9.4964,-9.4947,-9.4835,-9.4663,-9.4676,-9.4481,-9.4062,-9.3231,-9.29,-9.278,-9.2347,-9.2132,-9.2049,-9.1944,-9.1863,-9.1705,-9.1649,-9.147,-9.1198,-9.0668,-9.0455,-9.0211,-8.9325,-8.9451,-8.9783,-8.9464,-8.9054,-8.8485,-8.7764,-8.7488,-8.718,-8.6252,-8.6273,-8.6511,-8.6511,-8.6648,-8.6724,-8.6724,-8.6909,-8.6711,-8.5662,-8.5511,0.0,-8.5462,-8.5212,-8.5364,-8.6299,-8.6375,-8.6344,-8.6279,-8.6279,-8.6201,-8.5854,-8.5779,-8.5742,-8.5742,-8.5628,-8.559,-8.559,-8.6049,-8.6239,-8.6123,-8.6159,-8.6159,-8.6084,-8.5662,-8.5471,-8.5511,-8.5511,-8.5511,-8.5511,-8.5511,-8.5511,-8.5511,-8.5511,-8.5511,-8.5511,-8.5511,-8.5511,-8.5511,-8.5511,-8.5311,-8.5105,-6.287,-6.3906,-6.4935,-6.7094,-6.781,-6.89,-7.1439,-7.2812,-7.4192,-7.6063,-7.6809,-7.8277,-8.1492,-8.1608,-8.231,-8.4406,-8.5586,-8.6282,-8.6742,-8.7526,-8.8021,-8.8146,-8.9398,-9.0857,-9.2436,-9.2231,-9.2561,-9.3403,-9.347,-9.3913,-9.4621,-9.4055,-9.4408,-9.5515,-9.4846,-9.4507,-9.4478,-9.3863,-9.3439,-9.3153,-9.2536,-9.2238,-9.2169,-9.2113,-9.2071,-9.1983,-9.1655,-9.1631,-9.1638,-9.1117,-9.0873,-9.0567,-8.9611,-8.9248,-8.8929,-8.7952,-8.8329,-8.8971,-8.8316,-8.7981,-8.7589,-8.656,-8.6312,-8.6127,-8.5374,-8.5274,-8.5298,-8.5298,-8.5395,-8.5358,-8.5237,-8.5558,-8.5471,-8.4423,0.0,-8.389,-8.3903,-8.3389,-8.3413,-8.4567,-8.4816,-8.5029,-8.5474,-8.5628,-8.5742,-8.5742,-8.5667,-8.5628,-8.5628,-8.5551,-8.5511,-8.5511,-8.6161,-8.6199,-8.5511,-8.6161,-8.6161,-8.5511,-8.5511,-8.5511,-8.5511,-8.5511,-8.5511,-8.5511,-8.5511,-8.5471,-8.5431,-8.5471,-8.5431,-8.5311,-8.5431,-8.5431,-8.5431,-8.5431,-8.5105,-8.4757,-6.275,-6.407,-6.5097,-6.7619,-6.8562,-6.9753,-7.2133,-7.3763,-7.5062,-7.6203,-7.759,-7.8981,-8.0282,-8.1434,-8.2702,-8.4047,-8.526,-8.6463,-8.7328,-8.7497,-8.7757,-8.8293,-8.9761,-9.0852,-9.1507,-9.2542,-9.2948,-9.2595,-9.2759,-9.2921,-9.2986,-9.3159,-9.3795,-9.4771,-9.4636,-9.4264,-9.3664,-9.3561,-9.3066,-9.2405,-9.2276,-9.2187,-9.2169,-9.2112,-9.211,-9.1993,-9.1156,-9.1277,-9.1527,-8.9848,-8.9316,-8.9182,-8.8218,-8.7551,-8.7261,-8.7852,-8.7749,-8.7378,-8.7321,-8.698,-8.6497,-8.5682,-8.5497,-8.5337,-8.4606,-8.448,-8.448,-8.448,-8.4599,-8.4562,-8.4262,-8.4383,-8.4041,-8.2481,0.0,0.0,-8.2899,-8.3094,-8.3415,-8.3862,-8.4254,-8.4533,-8.4618,-8.5148,-8.5511,-8.5511,-8.5511,-8.5511,-8.5511,-8.5511,-8.5511,-8.5511,-8.555,-8.555,-8.5511,-8.555,-8.555,-8.5511,-8.5511,-8.5511,-8.5511,-8.5511,-8.5511,-8.5511,-8.5511,-8.5391,-8.5262,-8.5431,-8.5228,-8.4878,-8.5138,-8.5219,-8.5219,-8.5219,-8.5013,-8.4711,-6.2824,-6.4262,-6.5607,-6.8799,-6.9618,-7.0588,-7.3036,-7.3886,-7.4779,-7.6307,-7.757,-7.9383,-8.2118,-8.3472,-8.4649,-8.5845,-8.6459,-8.7027,-8.7497,-8.7665,-8.8518,-9.0267,-9.1106,-9.1822,-9.2627,-9.3095,-9.3099,-9.2711,-9.3319,-9.3992,-9.4757,-9.434,-9.4379,-9.4816,-9.4247,-9.3507,-9.2702,-9.2093,-9.1615,-9.1335,-9.1276,-9.1276,-9.1255,-9.1251,-9.1251,-9.1113,-9.0152,-8.9939,-9.0029,-8.8836,-8.8493,-8.8268,-8.7002,-8.6467,-8.6438,-8.6423,-8.5968,-8.544,-8.544,-8.5669,-8.5645,-8.4953,-8.4768,-8.4606,-8.3849,-8.3685,-8.3744,-8.3507,-8.3589,-8.3589,-8.3325,-8.3201,-8.2979,-8.2375,0.0,-8.2486,-8.2445,-8.2523,-8.2769,-8.3246,-8.347,-8.3726,-8.4092,-8.4665,-8.498,-8.498,-8.5311,-8.5511,-8.5511,-8.5511,-8.5511,-8.5511,-8.5511,-8.5511,-8.5511,-8.5511,-8.5511,-8.5511,-8.5511,-8.5511,-8.5511,-8.5349,-8.5308,-8.5308,-8.5143,-8.5013,-8.4961,-8.5013,-8.4968,-8.4825,-8.4967,-8.5119,-8.5214,-8.5242,-8.4805,-8.4242,-6.1893,-6.3698,-6.5695,-6.9382,-7.0058,-7.0927,-7.3717,-7.43,-7.5062,-7.7042,-7.8239,-8.0167,-8.3684,-8.5039,-8.6063,-8.6925,-8.7169,-8.7268,-8.7298,-8.8238,-8.9435,-9.0907,-9.1982,-9.2727,-9.3166,-9.3409,-9.3417,-9.3207,-9.3675,-9.4522,-9.5602,-9.5114,-9.4766,-9.4569,-9.3892,-9.3075,-9.2191,-9.1489,-9.1198,-9.1113,-9.0841,-9.0724,-9.0686,-9.0414,-9.0297,-9.022,-8.9275,-8.8933,-8.8779,-8.7714,-8.7274,-8.6981,-8.5631,-8.5365,-8.545,-8.4866,-8.4569,-8.4332,-8.4072,-8.4383,-8.468,-8.4205,-8.4057,-8.3967,-8.3409,-8.3355,-8.326,-8.2987,-8.2987,-8.2927,-8.2696,-8.2534,-8.2471,-8.2343,-8.2251,-8.2186,-8.2186,-8.2186,-8.2343,-8.2708,-8.2913,-8.3169,-8.3563,-8.4142,-8.4438,-8.4438,-8.4937,-8.5311,-8.5511,-8.5511,-8.5511,-8.5511,-8.5511,-8.5511,-8.5511,-8.5511,-8.5471,-8.5391,-8.5391,-8.5349,-8.527,-8.5138,-8.5051,-8.5051,-8.4878,-8.4694,-8.4465,-8.4561,-8.433,-8.4027,-8.4159,-8.426,-8.433,-8.4373,-8.3992,-8.3525,-5.9548,-6.2203,-6.5136,-6.9052,-6.973,-7.0868,-7.4148,-7.4865,-7.5997,-7.8487,-7.9624,-8.1434,-8.4657,-8.5803,-8.6573,-8.6925,-8.7031,-8.7031,-8.7031,-8.9496,-9.055,-8.9728,-9.23,-9.3383,-9.2603,-9.3474,-9.3949,-9.4098,-9.3702,-9.3981,-9.4801,-9.5076,-9.476,-9.3888,-9.3681,-9.3133,-9.2299,-9.2152,-9.2071,-9.1993,-9.1138,-9.0789,-9.0672,-8.9818,-8.9507,-8.939,-8.8574,-8.8326,-8.8094,-8.6363,-8.5537,-8.5064,-8.4185,-8.4087,-8.422,-8.3403,-8.3775,-8.422,-8.3403,-8.3297,-8.3413,-8.3413,-8.3413,-8.3433,-8.3546,-8.3338,-8.3106,-8.3106,-8.2987,-8.2782,-8.2471,-8.2571,-8.2571,-8.2251,-8.2186,-8.2186,-8.2186,-8.2186,-8.2186,-8.2186,-8.2647,-8.2994,-8.2994,-8.3563,-8.3885,-8.3885,-8.439,-8.4937,-8.5471,-8.5511,-8.5511,-8.5511,-8.5511,-8.5511,-8.5511,-8.5511,-8.5391,-8.5219,-8.5219,-8.5051,-8.4787,-8.4787,-8.4787,-8.4787,-8.4787,-8.4367,-8.3709,-8.3989,-8.3359,-8.2323,-8.256,-8.2523,-8.24,-8.24,-8.2437,-8.2511,-5.9088,-6.1785,-6.4562,-6.7616,-6.943,-7.114,-7.2985,-7.5115,-7.6802,-7.7703,-7.9405,-8.1359,-8.3515,-8.535,-8.6501,-8.6786,-8.7715,-8.8672,-8.967,-9.1208,-9.2071,-9.2034,-9.3871,-9.4408,-9.3409,-9.4337,-9.4434,-9.3678,-9.416,-9.4949,-9.5898,-9.5385,-9.4923,-9.4546,-9.3913,-9.3048,-9.2074,-9.0531,-9.0003,-9.0103,-8.8984,-8.8723,-8.896,-8.8748,-8.8572,-8.8267,-8.7126,-8.6645,-8.6377,-8.5037,-8.4495,-8.4317,-8.3602,-8.3504,-8.3514,-8.3254,-8.3366,-8.3573,-8.3372,-8.3202,-8.3084,-8.3318,-8.3413,-8.3376,-8.3281,-8.3165,-8.2987,-8.2684,-8.2659,-8.2696,-8.2316,-8.2316,-8.2316,-8.2186,-8.2186,-8.2186,-8.2186,-8.2186,-8.2186,-8.2186,-8.2343,-8.2434,-8.2434,-8.2913,-8.3284,-8.3284,-8.3885,-8.4427,-8.4703,-8.4741,-8.4571,-8.4314,-8.4314,-8.4129,-8.3749,-8.4765,-8.5224,-8.5219,-8.4656,-8.4561,-8.4787,-8.423,-8.4218,-8.4503,-8.396,-8.3545,-8.3169,-8.2935,-8.2536,-8.2104,-8.2257,-8.2341,-8.2412,-8.2414,-8.2304,-8.2123,-5.8555,-6.2581,-6.6169,-6.852,-7.1108,-7.3195,-7.4701,-7.6637,-7.796,-7.8344,-8.0364,-8.2278,-8.3839,-8.5463,-8.6465,-8.6786,-8.8004,-8.935,-9.0665,-9.1827,-9.2496,-9.2707,-9.4058,-9.4561,-9.4054,-9.4353,-9.4388,-9.4028,-9.4294,-9.4754,-9.5368,-9.4816,-9.4302,-9.3822,-9.2766,-9.1977,-9.1345,-8.9642,-8.9062,-8.915,-8.8159,-8.781,-8.7885,-8.7724,-8.7346,-8.6838,-8.6169,-8.5574,-8.5049,-8.4306,-8.3928,-8.3688,-8.3318,-8.318,-8.318,-8.3121,-8.3121,-8.3121,-8.3121,-8.3024,-8.2964,-8.3143,-8.3202,-8.3202,-8.3106,-8.2987,-8.2843,-8.2534,-8.2508,-8.2444,-8.2251,-8.2186,-8.2186,-8.2186,-8.2186,-8.2186,-8.2186,-8.2186,-8.2186,-8.2186,-8.2186,-8.2186,-8.2186,-8.2497,-8.2732,-8.2994,-8.3452,-8.387,-8.4078,-8.4129,-8.3951,-8.3613,-8.3613,-8.3413,-8.3097,-8.3914,-8.4242,-8.4155,-8.3704,-8.3688,-8.3922,-8.3396,-8.334,-8.3655,-8.3244,-8.2793,-8.2386,-8.2169,-8.1842,-8.1405,-8.1491,-8.1629,-8.1641,-8.1702,-8.1663,-8.1605,-5.7693,-6.3841,-6.9038,-7.0746,-7.3676,-7.634,-7.7963,-7.8883,-7.96,-8.0005,-8.1991,-8.3706,-8.4844,-8.5803,-8.6573,-8.7105,-8.8324,-8.9572,-9.0738,-9.18,-9.2385,-9.2385,-9.3294,-9.4029,-9.4471,-9.3824,-9.3844,-9.4607,-9.397,-9.3707,-9.379,-9.3537,-9.3018,-9.2171,-9.0944,-9.0337,-9.0196,-8.9228,-8.8853,-8.8841,-8.8068,-8.763,-8.734,-8.6749,-8.6069,-8.5322,-8.5577,-8.4971,-8.4028,-8.3903,-8.3501,-8.3016,-8.3127,-8.3069,-8.301,-8.2867,-8.2806,-8.2745,-8.2534,-8.256,-8.2647,-8.2745,-8.2745,-8.2806,-8.2987,-8.2843,-8.2633,-8.2633,-8.238,-8.2186,-8.2186,-8.2186,-8.2186,-8.2186,-8.2186,-8.2186,-8.2186,-8.2186,-8.2186,-8.2186,-8.2186,-8.2186,-8.2186,-8.2186,-8.2407,-8.2913,-8.3127,-8.3264,-8.347,-8.3597,-8.3505,-8.3134,-8.3134,-8.3134,-8.3077,-8.2824,-8.2682,-8.2608,-8.2486,-8.2536,-8.2585,-8.236,-8.236,-8.2585,-8.2523,-8.2104,-8.1506,-8.1678,-8.1232,-8.0508,-8.073,-8.0656,-8.0508,-8.0508,-8.073,-8.1057,-5.405,-6.1709,-6.8303,-6.8696,-7.327,-7.704,-7.7124,-7.9331,-8.1091,-8.1119,-8.2426,-8.3692,-8.4685,-8.5652,-8.6792,-8.8324,-9.0249,-9.2068,-9.3426,-9.3555,-9.3663,-9.3841,-9.3476,-9.3347,-9.3503,-9.3356,-9.3172,-9.3015,-9.2223,-9.2492,-9.3678,-9.2042,-9.143,-9.1711,-9.0802,-8.9859,-8.8829,-8.7988,-8.7764,-8.7859,-8.6748,-8.6362,-8.6461,-8.6327,-8.5901,-8.5244,-8.4796,-8.4059,-8.3187,-8.2092,-8.1676,-8.1699,-8.2258,-8.233,-8.2171,-8.2012,-8.1835,-8.1636,-8.1048,-8.0695,-8.0731,-8.1532,-8.1501,-8.1605,-8.2597,-8.2597,-8.2444,-8.2316,-8.2251,-8.2186,-8.2186,-8.2186,-8.2186,-8.2186,-8.2316,-8.2279,-8.2186,-8.2316,-8.2316,-8.2186,-8.2186,-8.2186,-8.2186,-8.2316,-8.2407,-8.2497,-8.256,-8.256,-8.2423,-8.2486,-8.2297,-8.1974,-8.1974,-8.1776,-8.1336,-8.1405,-8.1872,-8.2608,-8.1994,-8.1937,-8.236,-8.1908,-8.2039,-8.2585,-8.2141,-8.1776,-8.1437,-8.1162,-8.0767,-8.0508,-8.0508,-8.0508,-8.0508,-8.0508,-8.0582,-8.0656,-5.7202,-6.4956,-7.0959,-7.0671,-7.5894,-7.9903,-7.9533,-8.1112,-8.2279,-8.2481,-8.4229,-8.5693,-8.6311,-8.7304,-8.8529,-9.0156,-9.1358,-9.2767,-9.4541,-9.4113,-9.4099,-9.4767,-9.3861,-9.3172,-9.2846,-9.2429,-9.2147,-9.1949,-9.1523,-9.1375,-9.1548,-9.043,-8.9814,-8.9542,-8.8938,-8.8089,-8.7036,-8.6192,-8.6073,-8.6445,-8.5501,-8.5082,-8.5008,-8.5506,-8.4933,-8.3966,-8.4114,-8.3527,-8.2526,-8.1736,-8.1308,-8.1231,-8.1829,-8.1704,-8.1354,-8.1416,-8.1051,-8.0587,-8.022,-7.992,-7.9956,-8.0478,-8.044,-8.0695,-8.215,-8.238,-8.2316,-8.2186,-8.2251,-8.2316,-8.2186,-8.2251,-8.2251,-8.2186,-8.2251,-8.2316,-8.2186,-8.2251,-8.2316,-8.2186,-8.2121,-8.2055,-8.1885,-8.1952,-8.2018,-8.2018,-8.2084,-8.2018,-8.1818,-8.1849,-8.1715,-8.1339,-8.1339,-8.1234,-8.0948,-8.1021,-8.1302,-8.1703,-8.123,-8.1266,-8.1678,-8.1196,-8.1372,-8.1849,-8.1579,-8.1372,-8.1162,-8.1021,-8.0803,-8.0656,-8.073,-8.0803,-8.0803,-8.0803,-8.0803,-8.0803,-6.1081,-6.8732,-7.41,-7.3739,-7.9036,-8.3206,-8.2949,-8.3136,-8.3479,-8.3745,-8.5869,-8.7518,-8.7982,-8.9387,-9.0703,-9.1809,-9.2053,-9.286,-9.4662,-9.4131,-9.4248,-9.5335,-9.4379,-9.3504,-9.2847,-9.1857,-9.1248,-9.1012,-9.0849,-9.0179,-8.9002,-8.8574,-8.7861,-8.6916,-8.6315,-8.5819,-8.5207,-8.4557,-8.4594,-8.5121,-8.4672,-8.4133,-8.372,-8.4638,-8.3936,-8.259,-8.3607,-8.3147,-8.2016,-8.166,-8.1289,-8.1007,-8.1434,-8.1157,-8.0605,-8.0763,-8.0256,-7.965,-7.9408,-7.9329,-7.9408,-7.9565,-7.9643,-8.0028,-8.1405,-8.1715,-8.1715,-8.1885,-8.1915,-8.1812,-8.1782,-8.1849,-8.1982,-8.1952,-8.2018,-8.2055,-8.2121,-8.2121,-8.2121,-8.2121,-8.1952,-8.1818,-8.1647,-8.1647,-8.1647,-8.1579,-8.1751,-8.1683,-8.1375,-8.1478,-8.1408,-8.1092,-8.1128,-8.1128,-8.1128,-8.1128,-8.1057,-8.0803,-8.0656,-8.073,-8.1057,-8.073,-8.073,-8.1128,-8.1128,-8.1057,-8.0876,-8.1021,-8.1021,-8.0876,-8.1021,-8.1128,-8.1128,-8.1128,-8.1128,-8.1128,-5.8473,-6.71,-7.4206,-7.3874,-7.9786,-8.4599,-8.4476,-8.4532,-8.4567,-8.4642,-8.5573,-8.6574,-8.7431,-9.0127,-9.1769,-9.1602,-9.2617,-9.3593,-9.4244,-9.4062,-9.4395,-9.5359,-9.4967,-9.4718,-9.4645,-9.2882,-9.1317,-8.9914,-8.8986,-8.8437,-8.8206,-8.6036,-8.5049,-8.5049,-8.4084,-8.3754,-8.3861,-8.4015,-8.4475,-8.5033,-8.4872,-8.4377,-8.3768,-8.4332,-8.379,-8.2804,-8.3303,-8.2593,-8.1281,-8.057,-8.0271,-8.0202,-8.0022,-8.0103,-8.0103,-7.9287,-7.8973,-7.88,-7.8066,-7.798,-7.8287,-7.9079,-7.924,-7.94,-7.9952,-7.9839,-7.988,-8.0695,-8.0107,-7.9536,-7.9992,-8.0068,-8.0328,-8.1055,-8.1302,-8.151,-8.1683,-8.1818,-8.1885,-8.1683,-8.1683,-8.1683,-8.1818,-8.1885,-8.1818,-8.1579,-8.1615,-8.1478,-8.1163,-8.1163,-8.1163,-8.1128,-8.1128,-8.1128,-8.1128,-8.1128,-8.1128,-8.1057,-8.0876,-8.0803,-8.0803,-8.0803,-8.0876,-8.1128,-8.1128,-8.1092,-8.1021,-8.1128,-8.1092,-8.1021,-8.1092,-8.1128,-8.1128,-8.1128,-8.1128,-8.1128,-5.8572,-6.7691,-7.5297,-7.7099,-8.2191,-8.6024,-8.6024,-8.6439,-8.6845,-8.7078,-8.8014,-8.8823,-8.9217,-9.1219,-9.239,-9.1974,-9.2451,-9.3289,-9.4646,-9.4446,-9.499,-9.6628,-9.61,-9.5469,-9.4961,-9.3622,-9.1319,-8.8006,-8.7932,-8.7248,-8.5998,-8.4895,-8.3892,-8.2986,-8.2797,-8.2779,-8.2981,-8.2993,-8.3361,-8.3945,-8.3491,-8.2935,-8.2443,-8.3113,-8.2954,-8.237,-8.2904,-8.2267,-8.1095,-8.0644,-7.9949,-7.9253,-7.942,-7.9247,-7.8956,-7.8806,-7.8552,-7.8202,-7.7807,-7.7841,-7.7893,-7.8031,-7.8116,-7.8167,-7.8482,-7.8062,-7.7977,-7.938,-7.9345,-7.9187,-7.9608,-7.9727,-7.988,-8.0254,-8.0328,-8.0512,-8.0804,-8.0514,-8.0366,-8.0623,-8.1162,-8.1478,-8.1445,-8.1445,-8.1445,-8.1375,-8.1269,-8.1234,-8.1128,-8.1128,-8.1128,-8.1128,-8.1128,-8.1128,-8.1128,-8.1128,-8.1128,-8.1128,-8.1021,-8.0948,-8.0948,-8.0876,-8.0876,-8.1128,-8.1128,-8.1128,-8.1128,-8.1128,-8.1128,-8.1128,-8.1128,-8.0948,-8.073,-8.073,-8.073,-8.0803]},{"header":{"parameterUnit":"m.s-1","parameterCategory":1,"la1":30.6,"la2":28.766,"lo1":-90.7593,"lo2":-88.6598,"dy":0.0162,"dx":0.0183,"nx":116,"ny":114,"refTime":"2023-03-05T06:00:00:Z","depth":0,"parameterNumber":3,"parameterNumberName":"V-component_of_WINDS"},"data":[0.0,0.0,0.0,0.0,0.0,0.0,0.0,0.0,0.0,0.0,0.0,0.0,0.0,0.0,0.0,0.0,0.0,0.0,0.0,0.0,0.0,0.0,0.0,0.0,0.0,0.0,0.0,0.0,0.0,0.0,0.0,0.0,0.0,0.0,0.0,0.0,0.0,0.0,0.0,0.0,0.0,0.0,0.0,0.0,0.0,0.0,0.0,0.0,0.0,0.0,0.0,0.0,0.0,0.0,0.0,0.0,0.0,0.0,0.0,0.0,0.0,0.0,0.0,0.0,0.0,0.0,0.0,0.0,0.0,0.0,0.0,0.0,0.0,0.0,0.0,0.0,0.0,0.0,0.0,0.0,0.0,0.0,0.0,0.0,0.0,0.0,0.0,0.0,0.0,0.0,0.0,0.0,0.0,0.0,0.0,0.0,0.0,0.0,0.0,0.0,0.0,0.0,0.0,0.0,0.0,0.0,0.0,0.0,0.0,0.0,0.0,0.0,0.0,0.0,0.0,0.0,0.0,0.0,0.0,0.0,0.0,0.0,0.0,0.0,0.0,0.0,0.0,0.0,0.0,0.0,0.0,0.0,0.0,0.0,0.0,0.0,0.0,0.0,0.0,0.0,0.0,0.0,0.0,0.0,0.0,0.0,0.0,0.0,0.0,0.0,0.0,0.0,0.0,0.0,0.0,0.0,0.0,0.0,0.0,0.0,0.0,0.0,0.0,0.0,0.0,0.0,0.0,0.0,0.0,0.0,0.0,0.0,0.0,0.0,0.0,0.0,0.0,0.0,0.0,0.0,0.0,0.0,0.0,0.0,0.0,0.0,0.0,0.0,0.0,0.0,0.0,0.0,0.0,0.0,0.0,0.0,0.0,0.0,0.0,0.0,0.0,0.0,0.0,0.0,0.0,0.0,0.0,0.0,0.0,0.0,0.0,0.0,0.0,0.0,0.0,0.0,0.0,0.0,0.0,0.0,0.0,0.0,0.0,0.0,0.0,0.0,0.0,0.0,0.0,0.0,0.0,0.0,0.0,0.0,0.0,0.0,0.0,0.0,0.0,0.0,0.0,0.0,0.0,0.0,0.0,0.0,0.0,0.0,0.0,0.0,0.0,0.0,0.0,0.0,0.0,0.0,0.0,0.0,0.0,0.0,0.0,0.0,0.0,0.0,0.0,0.0,0.0,0.0,0.0,0.0,0.0,0.0,0.0,0.0,0.0,0.0,0.0,0.0,0.0,0.0,0.0,0.0,0.0,0.0,0.0,0.0,0.0,0.0,0.0,0.0,0.0,0.0,0.0,0.0,0.0,0.0,0.0,0.0,0.0,0.0,0.0,0.0,0.0,0.0,0.0,0.0,0.0,0.0,0.0,0.0,0.0,0.0,0.0,0.0,0.0,0.0,0.0,0.0,0.0,0.0,0.0,0.0,0.0,0.0,0.0,0.0,0.0,0.0,0.0,0.0,0.0,0.0,0.0,0.0,0.0,0.0,0.0,0.0,0.0,0.0,0.0,0.0,0.0,0.0,0.0,0.0,0.0,0.0,0.0,0.0,0.0,0.0,0.0,0.0,0.0,0.0,0.0,0.0,0.0,0.0,0.0,0.0,0.0,0.0,0.0,0.0,0.0,0.0,0.0,0.0,0.0,0.0,0.0,0.0,0.0,0.0,0.0,0.0,0.0,0.0,0.0,0.0,0.0,0.0,0.0,0.0,0.0,0.0,0.0,0.0,0.0,0.0,0.0,0.0,0.0,0.0,0.0,0.0,0.0,0.0,0.0,0.0,0.0,0.0,0.0,0.0,0.0,0.0,0.0,0.0,0.0,0.0,0.0,0.0,0.0,0.0,0.0,0.0,0.0,0.0,0.0,0.0,0.0,0.0,0.0,0.0,0.0,0.0,0.0,0.0,0.0,0.0,0.0,0.0,0.0,0.0,0.0,0.0,0.0,0.0,0.0,0.0,0.0,0.0,0.0,0.0,0.0,0.0,0.0,0.0,0.0,0.0,0.0,0.0,0.0,0.0,0.0,0.0,0.0,0.0,0.0,0.0,0.0,0.0,0.0,0.0,0.0,0.0,0.0,0.0,0.0,0.0,0.0,0.0,0.0,0.0,0.0,0.0,0.0,0.0,0.0,0.0,0.0,0.0,0.0,0.0,0.0,0.0,0.0,0.0,0.0,0.0,0.0,0.0,0.0,0.0,0.0,0.0,0.0,0.0,0.0,0.0,0.0,0.0,0.0,0.0,0.0,0.0,0.0,0.0,0.0,0.0,0.0,0.0,0.0,0.0,0.0,0.0,0.0,0.0,0.0,0.0,0.0,0.0,0.0,0.0,0.0,0.0,0.0,0.0,0.0,0.0,0.0,0.0,0.0,0.0,0.0,0.0,0.0,0.0,0.0,0.0,0.0,0.0,0.0,0.0,0.0,0.0,0.0,0.0,0.0,0.0,0.0,0.0,0.0,0.0,0.0,0.0,0.0,0.0,0.0,0.0,0.0,0.0,0.0,0.0,0.0,0.0,0.0,0.0,0.0,0.0,0.0,0.0,0.0,0.0,0.0,0.0,0.0,0.0,0.0,0.0,0.0,0.0,0.0,0.0,0.0,0.0,0.0,0.0,0.0,0.0,0.0,0.0,0.0,0.0,0.0,0.0,0.0,0.0,0.0,0.0,0.0,0.0,0.0,0.0,0.0,0.0,0.0,0.0,0.0,0.0,0.0,0.0,0.0,0.0,0.0,0.0,0.0,0.0,0.0,0.0,0.0,0.0,0.0,0.0,0.0,0.0,0.0,0.0,0.0,0.0,0.0,0.0,0.0,0.0,0.0,0.0,0.0,0.0,0.0,0.0,0.0,0.0,0.0,0.0,0.0,0.0,0.0,0.0,0.0,0.0,0.0,0.0,0.0,0.0,0.0,0.0,0.0,0.0,0.0,0.0,0.0,0.0,0.0,0.0,0.0,0.0,0.0,0.0,0.0,0.0,0.0,0.0,0.0,0.0,0.0,0.0,0.0,0.0,0.0,0.0,0.0,0.0,0.0,0.0,0.0,0.0,0.0,0.0,0.0,0.0,0.0,0.0,0.0,0.0,0.0,0.0,0.0,0.0,0.0,0.0,0.0,0.0,0.0,0.0,0.0,0.0,0.0,0.0,0.0,0.0,0.0,0.0,0.0,0.0,0.0,0.0,0.0,0.0,0.0,0.0,0.0,0.0,0.0,0.0,0.0,0.0,0.0,0.0,0.0,0.0,0.0,0.0,0.0,0.0,0.0,0.0,0.0,0.0,0.0,0.0,0.0,0.0,0.0,0.0,0.0,0.0,0.0,0.0,0.0,0.0,0.0,0.0,0.0,0.0,0.0,0.0,0.0,0.0,0.0,0.0,0.0,0.0,0.0,0.0,0.0,0.0,0.0,0.0,0.0,0.0,0.0,0.0,0.0,0.0,0.0,0.0,0.0,0.0,0.0,0.0,0.0,0.0,0.0,0.0,0.0,0.0,0.0,0.0,0.0,0.0,0.0,0.0,0.0,0.0,0.0,0.0,0.0,0.0,0.0,0.0,0.0,0.0,0.0,0.0,0.0,0.0,0.0,0.0,0.0,0.0,0.0,0.0,0.0,0.0,0.0,0.0,0.0,0.0,0.0,0.0,0.0,0.0,0.0,0.0,0.0,0.0,0.0,0.0,0.0,0.0,0.0,0.0,0.0,0.0,0.0,0.0,0.0,0.0,0.0,0.0,0.0,0.0,0.0,0.0,0.0,0.0,0.0,0.0,0.0,0.0,0.0,0.0,0.0,0.0,0.0,0.0,0.0,0.0,0.0,0.0,0.0,0.0,0.0,0.0,0.0,0.0,0.0,0.0,0.0,0.0,0.0,0.0,0.0,0.0,0.0,0.0,0.0,0.0,0.0,0.0,0.0,0.0,0.0,0.0,0.0,0.0,0.0,0.0,0.0,0.0,0.0,0.0,0.0,0.0,0.0,0.0,0.0,0.0,0.0,0.0,0.0,0.0,0.0,0.0,0.0,0.0,0.0,0.0,0.0,0.0,0.0,0.0,0.0,0.0,0.0,0.0,0.0,0.0,0.0,0.0,0.0,0.0,0.0,0.0,0.0,0.0,0.0,0.0,0.0,0.0,0.0,0.0,0.0,0.0,0.0,0.0,0.0,0.0,0.0,0.0,0.0,0.0,0.0,0.0,0.0,0.0,0.0,0.0,0.0,0.0,0.0,0.0,0.0,0.0,0.0,0.0,0.0,0.0,0.0,0.0,0.0,0.0,0.0,0.0,0.0,0.0,0.0,0.0,0.0,0.0,0.0,0.0,0.0,0.0,0.0,0.0,0.0,0.0,0.0,0.0,0.0,0.0,0.0,0.0,0.0,0.0,0.0,0.0,0.0,0.0,0.0,0.0,0.0,0.0,0.0,0.0,0.0,0.0,0.0,0.0,0.0,0.0,0.0,0.0,0.0,0.0,0.0,0.0,0.0,0.0,0.0,0.0,0.0,0.0,0.0,0.0,0.0,0.0,0.0,0.0,0.0,0.0,0.0,0.0,0.0,0.0,0.0,0.0,0.0,0.0,0.0,0.0,0.0,0.0,0.0,0.0,0.0,0.0,0.0,0.0,0.0,0.0,0.0,0.0,0.0,0.0,0.0,0.0,0.0,0.0,0.0,0.0,0.0,0.0,0.0,0.0,0.0,0.0,0.0,0.0,0.0,0.0,0.0,0.0,0.0,0.0,0.0,0.0,0.0,0.0,0.0,0.0,0.0,0.0,0.0,0.0,0.0,0.0,0.0,0.0,0.0,0.0,0.0,0.0,0.0,0.0,0.0,0.0,0.0,0.0,0.0,0.0,0.0,0.0,0.0,0.0,0.0,0.0,0.0,0.0,0.0,0.0,0.0,0.0,0.0,0.0,0.0,0.0,0.0,0.0,0.0,0.0,0.0,0.0,0.0,0.0,0.0,0.0,0.0,0.0,0.0,0.0,0.0,0.0,0.0,0.0,0.0,0.0,0.0,0.0,0.0,0.0,0.0,0.0,0.0,0.0,0.0,0.0,0.0,0.0,0.0,0.0,0.0,0.0,0.0,0.0,0.0,0.0,0.0,0.0,0.0,0.0,0.0,0.0,0.0,0.0,0.0,0.0,0.0,0.0,0.0,0.0,0.0,0.0,0.0,0.0,0.0,0.0,0.0,0.0,0.0,0.0,0.0,0.0,0.0,0.0,0.0,0.0,0.0,0.0,0.0,0.0,0.0,0.0,0.0,0.0,0.0,0.0,0.0,0.0,0.0,0.0,0.0,0.0,0.0,0.0,0.0,0.0,0.0,0.0,0.0,0.0,0.0,0.0,0.0,0.0,0.0,0.0,0.0,0.0,0.0,0.0,0.0,0.0,0.0,0.0,0.0,0.0,0.0,0.0,0.0,0.0,0.0,0.0,0.0,0.0,0.0,0.0,0.0,0.0,0.0,0.0,0.0,0.0,0.0,0.0,0.0,0.0,0.0,0.0,0.0,0.0,0.0,0.0,0.0,0.0,0.0,0.0,0.0,0.0,0.0,0.0,0.0,0.0,0.0,0.0,0.0,0.0,0.0,0.0,0.0,0.0,0.0,0.0,0.0,0.0,0.0,0.0,0.0,0.0,0.0,0.0,0.0,0.0,0.0,0.0,0.0,0.0,0.0,0.0,0.0,0.0,0.0,0.0,0.0,0.0,0.0,0.0,0.0,0.0,0.0,0.0,0.0,0.0,0.0,0.0,0.0,0.0,0.0,0.0,0.0,0.0,0.0,0.0,0.0,0.0,0.0,0.0,0.0,0.0,0.0,0.0,0.0,0.0,0.0,0.0,0.0,0.0,0.0,0.0,0.0,0.0,0.0,0.0,0.0,0.0,0.0,0.0,0.0,0.0,0.0,0.0,0.0,0.0,0.0,0.0,0.0,0.0,0.0,0.0,0.0,0.0,0.0,0.0,0.0,0.0,0.0,0.0,0.0,0.0,0.0,0.0,0.0,0.0,0.0,0.0,0.0,0.0,0.0,0.0,0.0,0.0,0.0,0.0,0.0,0.0,0.0,0.0,0.0,0.0,0.0,0.0,0.0,0.0,0.0,0.0,0.0,0.0,-1.5692,0.0,0.0,0.0,0.0,0.0,0.0,0.0,0.0,0.0,0.0,0.0,0.0,0.0,0.0,0.0,0.0,0.0,0.0,0.0,0.0,0.0,0.0,0.0,0.0,0.0,0.0,0.0,0.0,0.0,0.0,0.0,0.0,0.0,0.0,0.0,0.0,0.0,0.0,-6.9439,-6.9933,-7.0907,-7.2302,-7.2234,-7.1767,-7.0936,0.0,0.0,0.0,0.0,0.0,0.0,0.0,0.0,0.0,0.0,0.0,0.0,0.0,0.0,0.0,0.0,0.0,0.0,0.0,0.0,0.0,0.0,0.0,0.0,0.0,0.0,0.0,0.0,0.0,0.0,0.0,0.0,0.0,0.0,0.0,0.0,0.0,0.0,0.0,0.0,0.0,0.0,0.0,0.0,0.0,0.0,0.0,0.0,0.0,0.0,0.0,0.0,0.0,0.0,0.0,0.0,0.0,0.0,0.0,0.0,0.0,0.0,0.0,0.0,0.0,0.0,0.0,0.0,0.0,0.0,0.0,-1.3878,0.0,0.0,0.0,0.0,0.0,0.0,0.0,0.0,0.0,0.0,0.0,0.0,0.0,0.0,0.0,0.0,0.0,0.0,0.0,0.0,0.0,0.0,0.0,0.0,-6.2129,-6.1106,-6.3147,-6.4558,0.0,0.0,0.0,0.0,0.0,0.0,0.0,-6.7948,-6.8718,-7.0071,-7.1313,-7.2754,-7.4416,-7.4342,-7.3534,-7.2195,-7.1987,0.0,0.0,0.0,0.0,0.0,0.0,0.0,0.0,0.0,0.0,0.0,0.0,0.0,0.0,0.0,0.0,0.0,0.0,0.0,0.0,0.0,0.0,0.0,0.0,0.0,0.0,0.0,0.0,0.0,0.0,0.0,0.0,0.0,0.0,0.0,0.0,0.0,0.0,0.0,0.0,0.0,0.0,0.0,0.0,0.0,0.0,0.0,0.0,0.0,0.0,0.0,0.0,0.0,0.0,0.0,0.0,0.0,0.0,0.0,0.0,0.0,0.0,0.0,-1.5755,-1.4736,-1.4228,-1.2003,-1.0165,-0.8489,-1.0329,-1.0498,-0.9674,-1.2936,0.0,0.0,0.0,0.0,0.0,0.0,0.0,0.0,0.0,0.0,0.0,0.0,0.0,0.0,0.0,0.0,0.0,0.0,0.0,0.0,0.0,-6.1207,-6.2215,-6.2487,-6.3214,-6.3883,0.0,0.0,0.0,0.0,0.0,0.0,-6.651,-6.6845,-6.8232,-7.0845,-7.3485,-7.4926,-7.5216,-7.4811,-7.4524,-7.4262,-7.3083,-7.173,-7.0153,0.0,0.0,0.0,0.0,0.0,0.0,0.0,0.0,0.0,0.0,0.0,0.0,0.0,0.0,0.0,0.0,0.0,0.0,0.0,0.0,0.0,0.0,0.0,0.0,0.0,0.0,0.0,0.0,0.0,0.0,0.0,0.0,0.0,0.0,0.0,0.0,0.0,0.0,0.0,0.0,0.0,-3.5389,-3.4812,0.0,0.0,0.0,0.0,0.0,0.0,0.0,0.0,0.0,0.0,0.0,0.0,0.0,-2.0503,-1.7222,-1.7562,-1.7312,-1.6294,-1.3436,-1.1902,-1.1732,-0.8273,-0.6519,-0.6166,-0.6519,0.0,-0.8562,-0.96,0.0,0.0,0.0,0.0,0.0,0.0,0.0,0.0,0.0,0.0,0.0,0.0,0.0,0.0,0.0,0.0,0.0,0.0,0.0,0.0,0.0,-6.1076,-6.2515,-6.3481,-6.4696,-6.5282,-6.5038,-6.5001,0.0,0.0,0.0,-6.5874,-6.6882,-6.7114,-6.8616,-7.1437,-7.4038,-7.5565,-7.607,-7.5869,-7.5654,-7.5388,-7.4818,-7.293,-7.0063,-6.9126,0.0,0.0,0.0,0.0,0.0,0.0,0.0,0.0,0.0,0.0,0.0,0.0,0.0,0.0,0.0,0.0,0.0,0.0,0.0,0.0,0.0,0.0,0.0,0.0,0.0,0.0,0.0,0.0,0.0,0.0,0.0,0.0,0.0,0.0,0.0,0.0,0.0,0.0,0.0,-3.7866,-3.5623,-3.4498,-3.3466,-3.2944,0.0,0.0,0.0,0.0,0.0,0.0,0.0,0.0,0.0,-1.9548,-1.9399,-1.8336,-1.6002,-1.6594,-1.6459,-1.5775,-1.2644,-1.1072,-1.125,-0.7556,-0.5779,-0.5785,-0.5303,-0.5495,-0.6189,-0.7724,-0.8935,-1.0184,0.0,0.0,0.0,0.0,-1.3192,-1.3394,0.0,0.0,0.0,0.0,0.0,0.0,0.0,0.0,0.0,0.0,0.0,0.0,-5.9137,-6.13,-6.3142,-6.4265,-6.5654,-6.625,-6.582,-6.5782,0.0,-6.5948,-6.6294,-6.6923,-6.7825,-6.8679,-7.0157,-7.2349,-7.4518,-7.5911,-7.6591,-7.6405,-7.6185,-7.5898,-7.5686,-7.3942,-7.1014,-7.027,-6.8399,-6.5908,0.0,0.0,0.0,0.0,0.0,0.0,0.0,0.0,0.0,0.0,0.0,0.0,0.0,0.0,0.0,0.0,0.0,0.0,0.0,0.0,0.0,0.0,0.0,0.0,0.0,0.0,0.0,0.0,0.0,0.0,0.0,0.0,0.0,0.0,0.0,0.0,0.0,-3.8144,-3.602,-3.4043,-3.3359,-3.3142,0.0,0.0,0.0,0.0,0.0,0.0,-2.2837,-2.1818,-2.0126,-1.8049,-1.7887,-1.7346,-1.6057,-1.6401,-1.6401,-1.6057,-1.2851,-1.1605,-1.1782,-0.8075,-0.6311,-0.6332,-0.5144,-0.4817,-0.4821,-0.6013,-0.6362,-0.6766,-0.7986,-0.9054,-0.9779,-0.9784,-0.9988,-1.0579,0.0,0.0,0.0,0.0,0.0,0.0,0.0,0.0,0.0,0.0,0.0,-6.0653,-6.0555,-6.2515,-6.4122,-6.4799,-6.522,-6.5753,-6.6475,-6.6518,-6.6733,-6.7202,-6.72,-6.7794,-6.8999,-7.1679,-7.3382,-7.3896,-7.5515,-7.6405,-7.6488,-7.5918,-7.5648,-7.5577,-7.4863,-7.4372,-7.3904,-7.2657,-7.0558,-6.797,-6.6635,0.0,0.0,0.0,0.0,0.0,0.0,0.0,0.0,0.0,0.0,0.0,0.0,0.0,0.0,0.0,0.0,0.0,0.0,0.0,0.0,0.0,0.0,0.0,0.0,0.0,0.0,0.0,0.0,0.0,0.0,0.0,0.0,0.0,0.0,0.0,0.0,0.0,0.0,-3.4419,-3.3411,0.0,0.0,0.0,0.0,-2.9545,-2.6209,-2.3868,-2.3359,-2.1516,-1.9949,-1.8471,-1.8488,-1.7964,-1.7112,-1.7112,-1.7112,-1.6936,-1.4618,-1.3558,-1.3382,-0.9572,-0.7856,-0.7933,-0.6472,-0.5771,-0.5821,-0.3938,-0.3934,-0.5414,-0.658,-0.8155,-0.9243,-0.889,-0.8581,-0.7929,0.0,0.0,0.0,0.0,0.0,0.0,0.0,0.0,-5.8663,-5.8598,-5.9234,-6.0356,-6.2223,-6.3645,-6.512,-6.6728,-6.7346,-6.7533,-6.7247,-6.721,-6.7074,-6.6603,-6.8148,-6.9801,-7.1643,-7.3437,-7.4359,-7.4372,-7.5731,-7.6421,-7.6421,-7.6133,-7.587,-7.5584,-7.5094,-7.4672,-7.4174,-7.2792,-7.0709,-6.832,-6.7432,-6.5678,0.0,0.0,0.0,0.0,0.0,0.0,0.0,0.0,0.0,0.0,0.0,0.0,0.0,0.0,0.0,0.0,0.0,0.0,0.0,0.0,0.0,0.0,0.0,0.0,0.0,0.0,0.0,0.0,0.0,0.0,0.0,0.0,0.0,0.0,0.0,0.0,0.0,-3.4015,-3.3078,0.0,-3.0748,-2.8389,-2.6574,-2.5753,-2.3045,-2.0918,-2.0065,-1.9465,-1.8649,-1.7454,-1.7572,-1.7463,-1.7112,-1.651,-1.6565,-1.675,-1.4516,-1.3655,-1.3836,-1.1523,-0.9922,-0.8496,-0.7435,-0.617,-0.4885,-0.3594,-0.3776,-0.4691,-0.4496,-0.522,-0.6117,-0.612,-0.6322,-0.6721,0.0,0.0,0.0,0.0,0.0,0.0,0.0,0.0,-5.9082,-5.8822,-5.9792,-6.1155,-6.2891,-6.4555,-6.6069,-6.7359,-6.8134,-6.8379,-6.7878,-6.7709,-6.7456,-6.721,-6.955,-7.1689,-7.3568,-7.4686,-7.5231,-7.5138,-7.5942,-7.6326,-7.6326,-7.616,-7.5928,-7.5648,-7.5315,-7.4901,-7.4406,-7.3307,-7.1435,-6.9206,-6.8778,-6.7258,-6.5177,0.0,0.0,0.0,0.0,0.0,0.0,0.0,0.0,0.0,0.0,0.0,0.0,0.0,0.0,0.0,0.0,0.0,0.0,0.0,0.0,0.0,0.0,0.0,0.0,0.0,0.0,0.0,0.0,0.0,0.0,0.0,0.0,0.0,0.0,-3.8176,-3.5258,-3.3702,-3.2539,-3.1189,-2.9456,-2.702,-2.489,-2.3213,-2.1191,-1.9507,-1.884,-1.8967,-1.8627,-1.7801,-1.7981,-1.8083,-1.8083,-1.784,-1.772,-1.7728,-1.6339,-1.5492,-1.5369,-1.3175,-1.1222,-0.9649,-0.7849,-0.6201,-0.491,-0.4371,-0.4555,-0.4907,-0.3788,-0.3777,-0.4318,-0.4678,-0.5244,-0.6014,0.0,0.0,0.0,0.0,0.0,0.0,0.0,-5.9639,-5.9822,-5.8597,-6.1457,-6.3243,-6.2472,-6.5252,-6.691,-6.6391,-6.7268,-6.8018,-6.8235,-6.7773,-6.8032,-6.9223,-7.1482,-7.3373,-7.4678,-7.5515,-7.5995,-7.6198,-7.6198,-7.6198,-7.6172,-7.5995,-7.584,-7.5787,-7.5459,-7.5133,-7.4781,-7.4493,-7.3007,-7.0756,-7.0642,-6.9411,-6.7522,0.0,0.0,0.0,0.0,0.0,0.0,0.0,0.0,0.0,0.0,0.0,0.0,0.0,0.0,0.0,0.0,0.0,0.0,0.0,0.0,0.0,0.0,0.0,0.0,0.0,0.0,0.0,0.0,0.0,0.0,0.0,0.0,0.0,-4.185,-3.8498,-3.5731,-3.3869,-3.1857,-3.0209,-2.8882,-2.6723,-2.452,-2.2643,-2.0945,-1.9921,-1.9921,-1.9921,-1.993,-1.993,-2.0129,-2.0233,-2.0233,-2.0577,-2.0577,-2.0223,-2.0015,-1.9323,-1.8101,-1.4117,-1.1914,-1.1036,-0.7691,-0.6041,-0.6093,-0.6093,-0.6093,-0.5897,-0.4528,-0.3948,-0.3943,-0.4832,-0.5218,-0.5458,0.0,0.0,0.0,0.0,0.0,0.0,0.0,-6.0529,-6.0678,-6.0453,-6.1741,-6.2974,-6.3903,-6.5419,-6.6641,-6.7213,-6.7973,-6.8182,-6.7603,-6.7726,-6.8565,-7.0252,-7.2241,-7.3947,-7.5411,-7.5641,-7.5848,-7.5995,-7.6145,-7.6145,-7.5995,-7.6024,-7.5938,-7.5787,-7.5489,-7.5279,-7.5057,-7.4412,-7.3452,-7.2334,-7.2042,-7.0866,-6.9255,0.0,0.0,0.0,0.0,0.0,0.0,0.0,0.0,0.0,0.0,0.0,0.0,0.0,0.0,0.0,0.0,0.0,0.0,0.0,0.0,0.0,0.0,0.0,0.0,0.0,0.0,0.0,0.0,0.0,0.0,0.0,-4.7624,-4.5376,-4.22,-3.9567,-3.6676,-3.3371,-3.1108,-2.8854,-2.6503,-2.4608,-2.2654,-2.0771,-2.026,-1.9921,-1.9921,-2.0053,-2.0138,-2.0138,-2.0346,-2.045,-2.045,-2.0083,-1.9903,-1.9903,-1.9839,-1.966,-1.9177,-1.7002,-1.486,-1.2558,-1.0179,-0.7988,-0.597,-0.597,-0.597,-0.5978,-0.5669,-0.5505,-0.5503,-0.5677,-0.5682,-0.532,0.0,0.0,0.0,0.0,0.0,0.0,0.0,-6.1022,-6.1497,-6.1638,-6.2546,-6.347,-6.4356,-6.5661,-6.675,-6.7597,-6.7723,-6.7651,-6.7431,-6.7673,-6.873,-7.0756,-7.2622,-7.4255,-7.5628,-7.5666,-7.5692,-7.5848,-7.5938,-7.5938,-7.581,-7.5908,-7.5879,-7.5756,-7.566,-7.5455,-7.5203,-7.4749,-7.4218,-7.3682,-7.3164,-7.2132,-7.0883,-7.052,-7.0363,-6.9975,-6.7653,-6.7153,-6.7477,-6.6075,0.0,0.0,0.0,0.0,0.0,0.0,0.0,0.0,0.0,0.0,0.0,0.0,0.0,0.0,0.0,0.0,0.0,0.0,0.0,0.0,0.0,0.0,0.0,0.0,-4.8873,-4.6743,-4.3153,-4.0432,-3.7472,-3.3667,-3.1013,-2.8446,-2.6373,-2.3903,-2.1874,-2.0343,-2.01,-2.0081,-2.0176,-2.0289,-2.0318,-2.0223,-2.0507,-2.0582,-2.0412,-2.0308,-2.0299,-2.0562,-2.0654,-2.0486,-2.0215,-1.839,-1.6077,-1.3047,-1.1237,-0.886,-0.6478,-0.6134,-0.5957,0.0,0.0,0.0,0.0,0.0,-0.553,-0.5149,0.0,0.0,0.0,0.0,0.0,0.0,0.0,-6.1257,-6.2098,-6.237,-6.3632,-6.4519,-6.4566,-6.6038,-6.7207,-6.7752,-6.7158,-6.6925,-6.7464,-6.7835,-6.8922,-7.0835,-7.2889,-7.4514,-7.5599,-7.5633,-7.566,-7.5724,-7.5787,-7.5787,-7.5756,-7.5848,-7.5818,-7.5724,-7.5826,-7.5692,-7.5379,-7.5374,-7.5129,-7.4705,-7.4034,-7.3215,-7.2349,-7.1631,-7.1929,-7.2333,-6.9973,-6.9921,-7.0829,-6.9708,0.0,0.0,0.0,0.0,0.0,0.0,0.0,0.0,0.0,0.0,0.0,0.0,0.0,0.0,0.0,0.0,0.0,0.0,0.0,0.0,0.0,0.0,0.0,0.0,-5.0268,-4.8267,-4.4122,-4.1168,-3.8114,-3.4568,-3.1494,-2.8919,-2.7101,-2.4373,-2.2039,-2.0686,-2.0365,-2.0337,-2.0535,0.0,0.0,0.0,0.0,-2.0667,-2.0289,-2.0836,-2.1353,-2.1479,-2.1792,-2.1598,-2.0881,-1.8893,-1.6308,-1.3581,-1.1399,-0.9403,-0.777,-0.6721,-0.6187,-0.6008,-0.6019,-0.6022,-0.603,-0.5513,-0.5339,-0.5149,0.0,0.0,0.0,0.0,0.0,0.0,0.0,-6.184,-6.2269,-6.3004,-6.4279,-6.5345,-6.6119,-6.7554,-6.8452,-6.8455,-6.8492,-6.8185,-6.7539,-6.9261,-7.0453,-7.0873,-7.3753,-7.5436,-7.566,-7.584,-7.5928,-7.5957,-7.621,-7.6185,-7.5957,-7.6109,-7.6068,-7.5864,-7.5955,-7.5917,-7.5818,-7.534,-7.5129,-7.5056,-7.4509,-7.4034,-7.3665,-7.3697,-7.3993,-7.4338,-7.409,-7.4236,-7.4343,-7.3666,-7.2958,-7.2261,-7.1766,-7.0915,0.0,0.0,0.0,0.0,0.0,0.0,0.0,0.0,0.0,0.0,0.0,0.0,0.0,0.0,0.0,0.0,0.0,0.0,0.0,-5.1239,-4.9282,-4.6854,-4.3847,-4.2033,-3.9326,-3.5517,-3.2586,-2.9727,-2.7311,-2.4684,-2.2548,-2.0715,-2.0507,-2.0497,-2.0535,-2.0544,-2.0526,-2.0478,-2.0715,-2.08,-2.0724,-2.1125,-2.14,-2.1363,0.0,0.0,-2.1189,-1.9241,-1.7747,-1.6479,-1.3257,-1.1336,-1.0321,-0.8516,-0.727,-0.6576,-0.5687,-0.5702,-0.6082,-0.5525,-0.5339,-0.5149,0.0,0.0,0.0,0.0,0.0,0.0,0.0,-6.251,-6.265,-6.3177,-6.4086,-6.5022,-6.5842,-6.7014,-6.7969,-6.8623,-6.8698,-6.8346,-6.7605,-6.8983,-7.0432,-7.1889,-7.3834,-7.5168,-7.5794,-7.5917,-7.5967,-7.6013,-7.616,-7.621,-7.6096,-7.6258,-7.6224,-7.5995,-7.6079,-7.6052,-7.5976,-7.5822,-7.5985,-7.6317,-7.5867,-7.585,-7.6123,-7.5456,-7.5737,-7.6391,-7.5994,-7.6401,-7.6989,-7.6143,-7.5669,-7.5322,-7.4533,-7.3326,-7.1709,0.0,0.0,0.0,0.0,0.0,0.0,0.0,0.0,0.0,0.0,0.0,0.0,0.0,0.0,-5.7396,-5.503,0.0,-5.1868,-5.1736,-4.936,-4.6898,-4.5065,-4.2923,-4.0242,-3.6662,-3.3881,-3.1135,-2.8365,-2.5595,-2.3261,-2.102,-2.0752,-2.0696,-2.0696,-2.0696,-2.0601,-2.0384,-2.0677,-2.0743,-2.0535,-2.0915,-2.1096,-2.1253,-2.1314,-2.157,-2.1636,-2.039,-1.9187,-1.7828,-1.5132,-1.3187,-1.1609,-0.8913,-0.731,-0.6435,-0.5517,-0.5718,-0.6098,-0.553,-0.5339,-0.5149,0.0,0.0,0.0,0.0,0.0,0.0,0.0,-6.3171,-6.3264,-6.3522,-6.4094,-6.4829,-6.5658,-6.6452,-6.7389,-6.8568,-6.8379,-6.8198,-6.7957,-6.8884,-7.053,-7.3106,-7.4023,-7.4932,-7.5925,-7.5917,-7.5995,-7.6109,-7.6135,-7.6219,-7.6338,-7.6436,-7.635,-7.6147,-7.616,-7.616,-7.6044,-7.6455,-7.6944,-7.7498,-7.7575,-7.8177,-7.8912,-7.7628,-7.7606,-7.8176,-7.7401,-7.8012,-7.9015,-7.8041,-7.7782,-7.77,-7.6639,-7.5061,-7.3046,-7.0305,-6.8758,0.0,0.0,0.0,0.0,0.0,0.0,0.0,0.0,-6.4154,-6.338,-6.1186,-6.003,-5.8446,-5.5382,-5.3849,-5.2675,-5.1754,-4.9422,-4.7203,-4.57,-4.3119,-4.0454,-3.7892,-3.5475,-3.2798,-2.973,-2.7498,-2.4943,-2.1935,-2.1595,-2.1297,-2.0905,-2.0724,-2.0563,-2.0233,-2.0582,-2.0639,-2.0346,-2.0715,-2.0982,-2.1132,-2.1321,-2.1472,-2.179,-2.1432,-2.0544,-1.9121,-1.6795,-1.4611,-1.2604,-0.9368,-0.7376,-0.6288,-0.5908,-0.5718,-0.5908,-0.553,-0.553,-0.5339,0.0,0.0,0.0,0.0,0.0,0.0,0.0,0.0,-6.404,-6.4759,-6.555,-6.6341,-6.7168,-6.8048,-6.845,-6.8137,-6.8091,-6.8444,-6.9237,-7.0874,-7.2434,-7.3903,-7.5149,-7.587,-7.6015,-7.6133,-7.6258,-7.6438,-7.6626,-7.6708,-7.6713,-7.6762,-7.6573,-7.6258,-7.621,-7.616,-7.6053,-7.7064,-7.7429,-7.7592,-7.9361,-8.0589,-8.1321,-8.1258,-8.0285,-7.9056,-7.9853,-8.0049,-7.9958,-8.0046,-7.9169,-7.7994,-7.6885,-7.5359,-7.3631,-7.1902,-6.9273,-6.6661,-6.5834,-6.5521,-6.5395,-6.4929,-6.59,-6.6512,0.0,-6.4977,-6.4408,-6.0076,-5.995,-5.9333,-5.5112,-5.425,-5.318,-5.0469,-4.8275,-4.6011,-4.3659,-4.1523,-3.9887,-3.903,-3.7555,-3.4737,-3.0564,-3.0906,-2.9043,-2.3472,-2.3753,-2.3455,-2.153,-2.0644,-2.027,-2.0223,-2.045,-2.0639,-2.0771,-2.1007,-2.1026,-2.0809,-2.1355,-2.1439,-2.1442,-2.18,-2.1891,-2.1718,-1.8568,-1.5846,-1.3234,-1.1192,-0.913,-0.7429,-0.6856,-0.6098,-0.553,-0.5908,-0.6098,-0.6098,0.0,0.0,0.0,0.0,0.0,0.0,0.0,0.0,0.0,0.0,-6.6116,-6.6792,-6.7158,-6.7797,-6.8126,-6.8198,-6.8889,-6.9679,-7.0385,-7.1858,-7.3229,-7.4482,-7.4762,-7.5257,-7.5976,-7.6024,-7.6248,-7.6497,-7.7114,-7.7182,-7.6805,-7.7336,-7.7404,-7.7169,-7.6983,-7.7163,-7.7582,-7.8089,-7.8861,-7.9874,-8.0894,-8.2162,-8.3314,-8.2818,-8.1812,-8.0709,-8.0357,-7.9761,0.0,-7.9397,-7.8901,-7.7954,-7.6789,-7.5736,-7.4368,-7.1837,-7.0248,-6.9069,-6.768,-6.7523,-6.7466,-6.6574,-6.7346,-6.7926,-6.6902,-6.6311,-6.5033,-6.143,-6.094,-5.9764,-5.5669,-5.4821,-5.3903,-5.1242,-4.8418,-4.5905,-4.4295,-4.1675,-3.9686,-3.9139,-3.8268,-3.6368,-3.2549,-3.2468,-3.0419,-2.529,-2.4737,-2.382,-2.1828,-2.0938,-2.0412,-2.0412,-2.0611,-2.0752,-2.0837,-2.1055,-2.1121,-2.1036,-2.122,-2.1539,-2.1634,-2.1634,-2.1125,-2.0271,-1.8862,-1.6277,-1.3093,-1.1967,-0.9888,-0.7236,-0.6666,-0.5718,-0.4956,-0.5147,-0.5147,-0.5337,0.0,0.0,0.0,0.0,0.0,0.0,0.0,0.0,0.0,0.0,-6.6975,-6.7343,-6.7428,-6.7753,-6.8074,-6.832,-6.9372,-7.0422,-7.1329,-7.2373,-7.3649,-7.5124,-7.4839,-7.5072,-7.5976,-7.5985,-7.6133,-7.6438,-7.7038,-7.7118,-7.6747,-7.761,-7.7893,-7.7689,-7.773,-7.8034,-7.8594,-7.9003,-7.9932,-8.1182,-8.1932,-8.3052,-8.4107,-8.319,-8.2428,-8.1711,-8.0281,-7.9047,-7.8027,-7.7951,-7.7514,-7.6855,-7.5582,-7.4681,-7.3591,-7.0975,-7.0319,-7.0022,-6.8412,-6.8425,-6.8836,-6.8307,-6.8428,-6.8473,-6.8156,-6.7166,-6.5435,-6.1903,-6.138,-6.0256,-5.6261,-5.5417,-5.4386,-5.1028,-4.8681,-4.6337,-4.3937,-4.159,-3.985,-3.8962,-3.8432,-3.7282,-3.4598,-3.4076,-3.2119,-2.7663,-2.6933,-2.5556,-2.2984,-2.1995,-2.1175,-2.0535,-2.0915,-2.1048,-2.0932,-2.1452,-2.1538,-2.1168,-2.1353,-2.1538,-2.1908,-2.1723,-2.0973,-1.9843,-1.9285,-1.7406,-1.4409,-1.2899,-1.0654,-0.7834,-0.6693,-0.5748,-0.4804,-0.4612,-0.4796,-0.4978,0.0,0.0,0.0,0.0,0.0,0.0,0.0,0.0,0.0,0.0,0.0,0.0,0.0,-6.8728,-6.8683,-6.8331,-6.8928,-7.0148,-7.2052,-7.2617,-7.3833,-7.587,-7.5947,-7.5976,-7.6015,-7.5925,-7.6062,-7.6281,-7.6121,-7.6227,-7.6609,-7.737,-7.7611,-7.746,-7.8232,-7.8459,-7.8377,-7.9561,-8.0088,-8.0332,-8.2348,-8.3208,-8.3165,-8.242,-8.2037,-8.166,-7.9851,-7.8244,-7.6839,-7.5979,-7.5171,-7.4252,-7.2806,-7.1538,-7.0475,-6.9617,-6.8714,-6.7854,-6.7146,-6.7658,-6.864,-7.0004,-6.9184,-6.7866,-6.7482,-6.7269,-6.5757,-6.0624,-6.0847,-6.0631,-5.6664,-5.5968,-5.4445,-4.9283,-4.8564,-4.6711,-4.1448,-4.0621,-3.9977,-3.8589,-3.804,-3.7525,-3.6526,-3.6359,-3.486,-3.0998,-3.1422,-2.9884,-2.5361,-2.4569,-2.3085,-2.0535,-2.1639,-2.1856,-2.1159,-2.2063,-2.2073,-2.1168,-2.1723,-2.1908,-2.1908,-2.2268,-2.2452,-2.2452,-2.039,-1.9268,-1.833,-1.4409,-1.2031,-1.0404,-0.7914,-0.6218,-0.5487,-0.4902,-0.5069,-0.5423,0.0,0.0,0.0,0.0,0.0,0.0,0.0,0.0,0.0,0.0,0.0,0.0,0.0,0.0,0.0,0.0,-7.0157,-7.0875,-7.1914,-7.3322,-7.4397,-7.513,-7.5707,-7.6015,-7.6015,-7.6685,-7.6803,-7.6281,-7.8081,-7.8336,-7.7207,-7.8657,-7.926,-7.9198,-7.9199,-7.953,-8.0131,-8.0516,-8.1069,-8.1744,-8.2693,-8.3134,-8.3097,-8.2343,-8.0946,-7.9221,0.0,-7.6566,-7.6224,-7.535,-7.4704,-7.4056,-7.2928,-7.2373,-7.178,-6.9868,-6.9173,-6.8893,-6.8457,-7.0246,-7.196,-7.1074,-7.1404,-7.1392,-6.9317,-6.8812,-6.7692,-6.3832,-6.2255,-6.0848,-5.8676,-5.695,-5.4423,-4.9669,-4.8669,-4.6762,-4.1685,-4.0362,-3.9576,-3.8206,-3.7664,-3.6778,-3.5678,-3.582,-3.4957,-3.2631,-3.1762,-3.034,-2.7784,-2.5255,-2.3569,-2.292,-2.2505,-2.2141,-2.1856,-2.2769,-2.2769,-2.1866,-2.1646,-2.1353,-2.1353,-2.1538,-2.1723,-2.1723,-2.0973,-1.9843,-1.8338,-1.7032,-1.4669,-1.174,-1.0787,-0.8888,-0.6603,-0.6454,-0.5848,-0.5038,0.0,0.0,0.0,0.0,0.0,0.0,0.0,0.0,0.0,0.0,0.0,0.0,0.0,0.0,0.0,0.0,0.0,-7.1248,-7.1827,-7.3111,-7.4091,-7.4639,-7.5216,-7.5639,-7.5985,-7.6646,-7.6752,-7.6173,-7.8216,-7.8602,-7.7447,-7.9185,-7.9941,-7.9962,-7.9998,-8.0471,-8.1298,-8.0785,-8.1116,-8.1937,-8.1659,-8.1606,-8.1585,-8.052,-7.9099,0.0,-7.5356,-7.4808,-7.4848,-7.3806,-7.3124,-7.2671,-7.2257,-7.2015,-7.1674,-7.0477,-7.0251,-7.041,-7.1018,-7.2713,-7.4163,-7.2999,-7.3241,-7.3205,-7.1681,-7.042,-6.8731,-6.5963,-6.3238,-6.0845,-5.9451,-5.7177,-5.4325,-5.0626,-4.8954,-4.6634,-4.2368,-4.0667,-3.9266,-3.7634,-3.7347,-3.6896,-3.5521,-3.5873,-3.5684,-3.4343,-3.3306,-3.1881,-2.999,-2.693,-2.4846,-2.3935,-2.3336,-2.2769,-2.2404,-2.3315,-2.3133,-2.1866,-2.1471,-2.1168,-2.1168,-2.1168,-2.1168,-2.1168,-2.1168,-2.0417,-1.9285,-1.8532,-1.6401,-1.3716,-1.2955,-1.0477,-0.7417,-0.7462,-0.6267,-0.4868,0.0,0.0,0.0,0.0,0.0,0.0,0.0,0.0,0.0,0.0,0.0,0.0,0.0,0.0,0.0,0.0,0.0,0.0,-7.1812,-7.2168,-7.3031,-7.4504,-7.4678,-7.5139,-7.5895,-7.5964,-7.5994,-7.6015,-7.6709,-7.7162,-7.7323,-7.8915,-7.962,-7.9659,-8.0465,-8.1172,-8.1645,-8.0407,-8.0269,-8.0777,-7.9507,-7.895,-7.8712,-7.7268,-7.6621,-7.6216,-7.3961,-7.3111,-7.2834,-7.1533,-7.081,-7.0533,-7.1207,-7.0863,-7.0395,-7.1495,-7.1763,-7.2152,-7.4196,-7.4771,-7.4932,-7.5793,-7.4562,-7.3357,-7.4216,-7.181,-6.8847,-6.6906,-6.3693,-6.0723,-5.9097,-5.674,-5.436,-5.1905,-4.9385,-4.6717,-4.3297,-4.1069,-3.9198,-3.7422,-3.756,-3.735,-3.6378,-3.6773,-3.6649,-3.5787,0.0,-3.4678,-3.2067,-2.9219,-2.6556,-2.3911,-2.3946,-2.3515,-2.2596,-2.3515,-2.3168,-2.1353,-2.1178,-2.1178,-2.1168,-2.1178,-2.1178,-2.1168,-2.1168,-2.1168,-2.0983,-1.9091,-1.76,-1.6166,-1.4248,-1.1202,-0.8137,-0.8137,-0.671,-0.4712,0.0,0.0,0.0,0.0,0.0,0.0,0.0,0.0,0.0,0.0,0.0,0.0,0.0,0.0,0.0,0.0,0.0,0.0,-7.1313,-7.2507,-7.3366,-7.3763,-7.505,-7.5764,-7.5763,-7.6726,-7.6816,-7.5925,-7.7516,-7.7929,-7.7323,-7.8361,-7.8792,-7.8831,-7.9652,-7.9774,-7.9383,-7.9768,-7.9664,-7.9268,-7.9069,-7.8263,-7.7113,-7.6803,-7.5549,-7.3946,-7.4026,-7.323,-7.2195,-7.2471,-7.2946,-7.3735,-7.5595,-7.4509,-7.2882,-7.4316,-7.4049,-7.3333,-7.3913,-7.4536,-7.5156,-7.5513,-7.5223,-7.4606,-7.3617,-7.2047,-7.0157,-6.788,-6.3709,-6.026,-5.935,-5.65,-5.3162,-4.9534,-4.8292,-4.6322,-4.2209,-4.1124,-4.0087,-3.824,-3.7923,-3.7437,-3.6378,-3.6427,-3.6156,-3.5617,-3.5287,-3.4485,-3.3172,-2.9375,-2.6858,-2.6147,-2.4596,-2.3283,-2.2374,-2.2556,-2.2455,-2.2258,-2.1683,-2.1319,-2.1178,-2.1329,-2.131,-2.1168,-2.1168,-2.1168,-2.1168,-2.0603,-1.9509,-1.792,-1.7343,-1.4067,-0.9624,-0.9228,-0.7003,-0.4047,0.0,0.0,0.0,0.0,0.0,0.0,0.0,0.0,0.0,0.0,0.0,0.0,0.0,0.0,0.0,0.0,0.0,0.0,0.0,-7.2572,-7.3369,-7.3937,-7.4945,-7.5572,-7.581,-7.6623,-7.6687,-7.6005,-7.7406,-7.7803,-7.7224,-7.807,-7.8477,-7.8604,-7.9045,-7.9199,-7.9105,-7.896,-7.8795,0.0,0.0,-7.7318,-7.6496,-7.6244,-7.53,-7.417,-7.434,-7.4236,-7.4068,-7.4534,-7.527,-7.6164,-7.7016,-7.6449,-7.5645,-7.629,-7.5773,-7.5,-7.5124,-7.5393,-7.5602,-7.5724,-7.5762,-7.5191,-7.3148,-7.1567,-6.9739,-6.6576,-6.2451,-5.9215,-5.8246,-5.5791,-5.3041,-5.0237,-4.8635,-4.6528,-4.3255,-4.165,-4.0158,-3.853,-3.8415,-3.7878,-3.6896,-3.6757,-3.6237,-3.5526,-3.5367,-3.4401,-3.2617,-2.9039,-2.6604,-2.5696,-2.4128,-2.2982,-2.2434,-2.2434,-2.2312,-2.1889,-2.1654,-2.1282,-2.1178,-2.1376,-2.1357,-2.1178,0.0,-2.1253,-2.1168,-2.1168,-2.0082,-1.8512,-1.8512,-1.5642,-1.1407,-1.1016,-0.8387,-0.4832,0.0,0.0,0.0,0.0,0.0,0.0,0.0,0.0,0.0,0.0,0.0,0.0,0.0,0.0,0.0,0.0,0.0,0.0,0.0,0.0,-7.3326,-7.4572,-7.4812,-7.5253,-7.5975,-7.6095,-7.6147,-7.6121,-7.6866,-7.7102,-7.6963,-7.7731,-7.8199,-7.8359,-7.8458,-7.8805,-7.9324,-7.813,-7.7936,-7.827,-7.693,-7.6389,-7.6361,0.0,-7.5416,-7.5351,-7.4638,-7.5431,-7.6786,-7.6803,-7.746,-7.8122,-7.7413,-7.7703,-7.8285,-7.7992,-7.7292,-7.6803,-7.715,-7.6667,-7.5983,-7.601,-7.5887,-7.5076,-7.262,-7.0859,-6.8535,-6.46,-6.1164,-5.8338,-5.6892,-5.532,-5.3752,-5.2444,-4.9697,-4.7047,-4.5227,-4.2345,-3.9962,-3.8715,-3.8856,-3.8641,-3.7774,-3.7102,-3.6394,-3.5526,-3.5352,-3.4113,-3.1259,-2.8578,-2.606,-2.3881,-2.2974,-2.2452,-2.2657,-2.2472,-2.2113,-2.1206,-2.1244,-2.1225,-2.1178,-2.1376,-2.1376,-2.1215,-2.1367,-2.1348,-2.1206,-2.102,-2.0109,-1.8512,-1.812,-1.5676,-1.2258,-1.2046,-0.9432,-0.5866,0.0,0.0,0.0,0.0,0.0,0.0,0.0,0.0,0.0,0.0,-7.1618,-7.1772,0.0,0.0,0.0,0.0,0.0,0.0,0.0,0.0,0.0,-7.4714,-7.5693,-7.6118,-7.5928,-7.6224,-7.6273,-7.6121,-7.6121,-7.6207,-7.6293,-7.6503,-7.6569,-7.6661,-7.7447,-7.7473,-7.6932,-7.7421,-7.7292,-7.6799,-7.6514,-7.604,-7.5526,-7.5447,0.0,0.0,-7.4443,-7.539,-7.6803,-7.7351,-7.8617,-8.0072,-8.0616,-8.0448,-8.0112,-8.0245,-7.9376,-7.8353,-7.8438,-7.7218,-7.5946,-7.6056,-7.517,-7.3766,-7.1906,-7.0197,-6.8252,-6.5583,-6.2598,-6.0024,-5.8335,-5.681,-5.5098,-5.2464,-4.9763,-4.7203,-4.5639,-4.3151,-4.1027,-3.9564,-3.9243,-3.875,-3.8152,-3.6757,-3.57,-3.5526,-3.4844,-3.3249,-3.0383,-2.8231,-2.5696,-2.2974,-2.1889,-2.1986,-2.2899,-2.2153,-2.1601,-2.1423,-2.1603,-2.1499,-2.1178,-2.1376,-2.1452,-2.1414,-2.1282,0.0,-2.1414,-2.0467,-1.9458,-1.8312,-1.5794,-1.2897,-0.9984,-0.816,-0.5815,-0.3689,0.0,0.0,0.0,0.0,0.0,0.0,0.0,-7.1672,-7.2223,-7.2206,-7.2327,-7.2469,-7.2668,-7.2971,-7.2916,0.0,0.0,0.0,0.0,0.0,0.0,0.0,0.0,0.0,-7.621,-7.6841,-7.688,-7.6273,0.0,-7.6531,-7.6034,-7.6118,-7.6225,-7.6389,-7.6838,-7.6808,-7.6482,-7.6885,-7.6784,-7.6397,-7.6397,-7.6239,-7.6031,0.0,0.0,0.0,-7.5171,-7.6038,-7.7404,-7.7254,-7.8644,-8.0608,-8.1346,-8.1478,-8.116,-8.016,-7.9752,-7.9417,-7.8291,-7.7531,-7.6855,-7.6258,-7.5482,-7.3856,-7.0204,-6.8887,-6.7243,-6.2885,-6.0454,-5.8733,-5.7425,-5.5999,-5.4545,-5.2863,-5.1123,-4.8976,-4.6209,-4.4422,-4.2288,-3.9671,-3.899,-3.8306,-3.7291,-3.5716,-3.4844,-3.4844,-3.3073,-3.0931,-2.8591,-2.5525,-2.3352,-2.1898,-2.1449,-2.1506,-2.2055,-2.1601,-2.1414,-2.1319,-2.1423,-2.1367,-2.1178,-2.1376,-2.1414,-2.131,-2.1319,-2.1002,-2.0709,-2.0135,-1.9162,-1.7665,-1.5048,-1.2926,-1.1021,-0.8822,-0.6661,-0.4913,0.0,0.0,0.0,0.0,0.0,0.0,0.0,-7.1634,-7.2187,-7.2409,-7.3162,-7.3434,-7.2789,-7.3534,-7.3721,0.0,0.0,0.0,0.0,0.0,0.0,0.0,0.0,0.0,0.0,0.0,0.0,-7.6953,-7.7481,0.0,0.0,0.0,0.0,0.0,-7.6798,-7.682,-7.6803,-7.6566,-7.6444,0.0,0.0,-7.6531,0.0,0.0,0.0,0.0,0.0,-7.6597,-7.7438,-7.6788,-7.791,-7.967,-8.0277,-8.0984,-8.1309,-7.9819,-7.9886,-8.0141,-7.8613,-7.8237,-7.7905,-7.6531,-7.5676,-7.3833,-6.8646,-6.7725,-6.6377,-6.072,-5.8722,-5.7667,-5.668,-5.532,-5.4185,-5.3508,-5.2516,-5.0413,-4.6985,-4.5154,-4.3012,-3.9466,-3.8477,-3.7602,-3.641,-3.5034,-3.3998,-3.3616,-3.0561,-2.8051,-2.6423,-2.3168,-2.1168,-2.1168,-2.1319,-2.1348,-2.1234,-2.1385,-2.1385,-2.1234,-2.1234,-2.1215,-2.1178,-2.1329,-2.118,-2.0927,-2.1039,-2.0566,-1.969,-1.95,-1.8304,-1.6363,-1.4091,-1.2342,-1.1226,-0.9072,-0.7116,-0.5953,0.0,0.0,0.0,0.0,0.0,0.0,0.0,-7.092,-7.1563,-7.2924,-7.3416,-7.3793,-7.4322,-7.4599,-7.4436,0.0,0.0,0.0,0.0,0.0,0.0,0.0,0.0,0.0,0.0,0.0,0.0,-7.8657,-7.8373,0.0,0.0,0.0,0.0,0.0,0.0,-7.7666,-7.7543,-7.6769,0.0,0.0,0.0,0.0,0.0,0.0,0.0,0.0,0.0,-7.6391,-7.5788,-7.604,-7.6326,-7.6649,-7.6943,-7.8402,-8.0098,-8.043,-8.0468,-8.0542,-8.1073,-8.0061,-7.8491,-7.6731,-7.5068,-7.2681,-6.8143,-6.7338,-6.6391,-6.2482,-6.0455,-5.918,-5.8345,-5.6751,-5.5448,-5.5018,-5.2507,-5.0117,-4.8462,-4.5003,-4.1628,-3.9225,-3.7791,-3.6757,-3.641,-3.5034,-3.344,-3.1614,-2.7304,-2.4602,-2.4419,-2.2442,-2.1168,-2.1168,-2.1187,-2.1282,-2.1442,-2.1461,-2.1461,-2.1442,-2.1442,-2.1348,-2.1168,-2.1187,-2.0824,-2.0375,-2.0206,-1.9577,0.0,-1.7951,-1.6314,-1.4067,-1.1139,-0.876,-0.6577,-0.4459,-0.3902,-0.4133,0.0,0.0,0.0,0.0,0.0,0.0,-7.0815,-7.136,-7.1964,-7.2506,-7.3609,-7.4395,-7.463,-7.5197,-7.5215,-7.4488,0.0,0.0,0.0,0.0,0.0,0.0,0.0,0.0,0.0,0.0,-7.7766,-7.7164,-7.8083,0.0,0.0,0.0,0.0,0.0,0.0,-7.8563,-7.8456,-7.8131,0.0,0.0,0.0,0.0,0.0,0.0,0.0,0.0,0.0,0.0,-7.5275,-7.5282,-7.554,-7.5813,-7.561,-7.6322,-7.7608,-7.9392,-7.9507,-7.9283,-8.0507,-7.9425,-7.7842,-7.7004,-7.4811,-7.2,-6.8638,-6.7232,-6.5829,-6.2829,-6.0026,-5.8247,-5.8345,-5.6115,-5.4255,-5.4403,-5.3455,-5.1538,-4.8285,-4.6823,-4.4167,-3.8873,-3.7811,-3.6896,-3.4859,-3.3822,-3.2026,-2.8937,-2.5866,-2.3578,-2.2623,-2.1711,-2.1348,-2.1348,-2.1593,-2.1641,-2.1471,-2.1603,-2.1537,-2.1291,-2.1291,-2.1244,-2.1178,-2.0732,-2.0297,-2.0061,-1.9344,-1.7896,0.0,-1.5502,-1.3709,-1.1129,-0.8551,-0.7356,-0.6568,-0.4282,-0.3914,-0.4524,0.0,0.0,0.0,0.0,0.0,-7.0815,-7.0815,-7.1601,-7.2311,-7.2458,-7.3822,-7.4784,-7.4965,-7.5601,-7.5774,-7.5176,-7.4475,0.0,0.0,0.0,0.0,0.0,0.0,0.0,0.0,0.0,-7.7447,-7.6717,-7.792,-7.7891,0.0,0.0,-7.8772,-7.8399,0.0,0.0,0.0,0.0,0.0,0.0,0.0,0.0,0.0,0.0,0.0,0.0,0.0,0.0,0.0,0.0,0.0,-7.5687,-7.4368,-7.4447,-7.5456,-7.7725,-7.8113,-7.8091,-7.9515,-7.9021,-7.7877,-7.6976,-7.4848,-7.2108,-6.8848,-6.709,-6.5408,-6.2949,-5.9515,-5.7204,-5.801,-5.531,-5.321,-5.3753,-5.3429,-5.1741,-4.7856,-4.7028,-4.4635,-3.8707,-3.7535,-3.6477,-3.4319,-3.229,-2.9774,-2.6435,-2.4313,-2.2778,-2.1649,-2.1584,-2.1622,-2.1565,-2.1849,-2.1858,-2.1565,-2.1716,-2.1612,-2.1253,-2.1253,-2.1067,-2.0695,-2.0261,-1.963,-1.9171,-1.8536,-1.6867,0.0,-1.3933,-1.2142,-0.9379,-0.7166,-0.6177,-0.5995,-0.4497,-0.4326,-0.494,0.0,0.0,0.0,0.0,0.0,0.0,-7.0585,-7.1466,-7.2332,-7.3116,-7.4021,-7.4835,-7.5518,-7.5826,-7.5917,-7.5724,-7.5139,0.0,0.0,0.0,0.0,0.0,0.0,0.0,0.0,0.0,-7.845,-7.8391,-7.8156,-7.8091,-7.8223,-7.9067,-7.955,-7.9669,0.0,0.0,0.0,0.0,0.0,0.0,0.0,0.0,0.0,0.0,0.0,0.0,0.0,0.0,0.0,0.0,0.0,0.0,0.0,-7.2706,-7.3935,-7.5551,-7.6494,-7.7313,-7.8751,-7.9391,-7.9033,-7.6518,-7.5172,-7.3202,-6.8546,-6.6701,-6.5233,-6.2872,-5.9267,-5.6765,-5.743,-5.4779,-5.267,-5.336,-5.183,-4.9791,-4.7624,-4.4503,-4.1542,-3.924,-3.6771,-3.512,-3.5304,-3.0627,-2.6511,-2.4258,-2.2447,0.0,-2.1471,-2.1858,-2.199,-2.1792,-2.1792,-2.1792,-2.1792,-2.1792,-2.1678,-2.1471,-2.1471,-2.0897,-1.9938,-1.9947,-1.9005,-1.7411,-1.7411,-1.6918,0.0,-1.372,-1.1628,-0.9379,-0.7169,-0.5411,-0.3873,-0.391,-0.454,-0.5388,0.0,0.0,0.0,0.0,0.0,0.0,0.0,-7.2686,-7.3146,-7.3865,-7.4367,-7.4926,-7.5584,-7.5724,-7.5756,-7.5692,-7.5648,0.0,0.0,0.0,0.0,0.0,0.0,0.0,0.0,-7.6207,-7.6561,-7.7173,-7.7785,-7.8088,-7.8228,-7.9747,-8.019,-7.9746,-8.0384,-8.0752,0.0,0.0,0.0,0.0,0.0,0.0,0.0,0.0,0.0,0.0,0.0,0.0,0.0,0.0,0.0,0.0,0.0,0.0,0.0,-7.2696,-7.3063,-7.4166,-7.6207,-7.5398,-7.3996,-7.42,-7.2294,-6.9654,-6.7176,-6.5923,-6.4601,-6.2055,-5.8988,-5.6861,-5.7527,-5.4773,-5.2625,-5.3378,-5.1819,-4.9931,-4.7903,-4.4888,-4.1759,-3.8146,-3.3908,-3.1,-2.992,-2.7121,-2.4813,-2.3582,-2.1612,-2.0592,-2.0718,-2.0852,-2.1284,-2.2,-2.2132,-2.2132,-2.2,-2.2,-2.1896,-2.1688,-2.0919,-2.0348,-2.0158,-1.8744,-1.7897,-1.7223,-1.5151,-1.3376,-1.155,-0.9332,-0.708,-0.5047,-0.4838,-0.4641,-0.4455,-0.4887,-0.4955,-0.5032,0.0,0.0,0.0,0.0,0.0,0.0,0.0,-7.3367,-7.3718,-7.4221,-7.4664,-7.5117,-7.5489,-7.5561,-7.5561,-7.5532,-7.566,0.0,0.0,0.0,0.0,0.0,0.0,0.0,-7.532,-7.532,-7.5702,-7.6503,-7.7222,-7.7903,-7.855,-7.9727,-8.0179,-8.0016,-8.0651,-8.1047,0.0,0.0,0.0,0.0,0.0,0.0,-7.8297,0.0,0.0,0.0,0.0,0.0,0.0,0.0,0.0,0.0,0.0,0.0,0.0,0.0,-7.1283,-7.2035,-7.3609,-7.3118,-7.2115,-7.2384,-7.0766,-6.859,-6.6714,-6.5435,-6.4044,-6.1902,-5.8969,-5.6884,-5.736,-5.482,-5.2798,-5.3599,-5.1557,-4.9303,-4.7703,-4.4117,-4.0055,-3.5488,-3.2221,-2.9313,0.0,-2.5184,-2.3863,-2.2096,-2.1256,-2.0789,-2.0518,-2.0986,-2.1615,-2.2208,-2.2321,-2.233,-2.2208,-2.2208,-2.2104,-2.1905,-2.0744,-2.0159,-1.9589,-1.7951,-1.7253,-1.7115,-1.5023,-1.3018,0.0,-0.8742,-0.6693,-0.4665,-0.4262,-0.4449,-0.5038,-0.4908,-0.478,-0.4651,0.0,0.0,0.0,0.0,0.0,0.0,0.0,-7.3524,-7.402,-7.4121,-7.474,-7.5129,-7.4943,-7.5055,-7.5167,-7.5057,0.0,0.0,0.0,0.0,0.0,0.0,0.0,0.0,-7.5245,-7.5283,-7.5627,-7.635,-7.6465,-7.7341,-7.898,-7.9133,-7.9629,-8.043,-8.0685,-8.0817,-8.0869,-8.1126,-8.1259,-8.1105,-7.958,-7.8962,0.0,0.0,0.0,0.0,0.0,0.0,0.0,0.0,0.0,0.0,0.0,0.0,0.0,0.0,0.0,0.0,0.0,-7.2016,-7.2645,-7.0884,-7.0228,-6.9319,-6.6667,-6.5125,0.0,-6.2212,-5.9166,-5.6901,-5.7223,-5.489,-5.3192,-5.3882,-5.0845,-4.8059,-4.7038,-4.2416,-3.7067,-3.1801,-3.1193,-2.9443,-2.484,-2.4527,-2.3304,-2.0281,-2.1036,-2.1329,-2.035,-2.1502,-2.2191,-2.2191,-2.2191,-2.2191,-2.2387,-2.2387,-2.2098,-2.192,-2.0941,-1.9767,-1.8801,-1.7622,-1.6918,0.0,-1.587,-1.4669,-1.3051,-1.0946,-0.8883,-0.6851,-0.5241,-0.5034,-0.5243,-0.435,-0.4208,-0.4261,0.0,0.0,0.0,0.0,0.0,0.0,0.0,0.0,0.0,0.0,-7.2906,-7.309,-7.2272,-7.2717,-7.3182,0.0,0.0,0.0,0.0,0.0,0.0,0.0,0.0,0.0,-7.5015,-7.5056,-7.5357,-7.5863,-7.5868,-7.657,-7.7881,-7.8112,-7.8744,-7.9751,-7.9874,-7.9619,-7.9171,-7.8777,-7.8645,-7.8563,-7.7169,-7.6584,0.0,0.0,0.0,0.0,-7.3635,-7.3906,0.0,0.0,0.0,0.0,0.0,0.0,0.0,0.0,-7.0898,0.0,-6.8701,0.0,-6.9118,-6.8138,-6.7539,-6.6587,0.0,-6.4146,-6.3691,-6.1256,-5.8755,-5.7088,-5.7281,-5.4517,-5.2646,-5.3993,-5.0638,-4.7796,-4.7656,-4.148,-3.5202,-3.0731,-2.8879,-2.6723,-2.4196,-2.2573,-2.0703,-1.8521,-1.8576,-1.8592,-1.8395,-1.8631,-1.924,-2.0021,-2.0021,-2.0808,-2.2387,-2.1603,-2.1192,-2.1147,-1.9183,-1.8197,-1.781,-1.5209,-1.3831,-1.3661,-1.0663,-0.9059,-0.8654,-0.6786,-0.5737,-0.5294,-0.5243,-0.4859,-0.4309,-0.4361,-0.3638,-0.2272,0.0,0.0,0.0,0.0,0.0,0.0,0.0,0.0,0.0,0.0,0.0,-7.1891,-7.1341,-7.1583,0.0,0.0,0.0,0.0,0.0,0.0,0.0,0.0,0.0,-7.4895,-7.4975,-7.4657,-7.4865,-7.5525,-7.5304,-7.5849,-7.7126,-7.7645,-7.8247,-7.8837,-7.8799,-7.8339,-7.753,-7.7683,-7.7755,-7.7673,-7.6356,0.0,0.0,0.0,0.0,0.0,-7.2198,-7.2678,0.0,-7.3737,-7.4517,-7.5255,0.0,0.0,0.0,0.0,-7.0681,-6.9986,-6.7873,-6.7921,-6.8199,-6.6638,-6.6418,-6.6084,-6.4199,-6.3973,-6.3615,-6.1575,-5.9041,-5.727,-5.7607,-5.5051,-5.3133,-5.3954,-5.036,-4.6395,-4.3359,-3.8941,-3.4352,-2.9582,-2.7497,-2.5294,0.0,-2.0834,-1.9249,-1.7855,-1.8061,-1.8259,-1.7672,-1.8061,-1.8647,-1.9232,-1.9232,-1.9824,-2.1005,-2.0423,-2.0029,-2.0029,-1.8457,-1.7261,-1.6056,-1.386,-1.2658,-1.2058,-0.9661,-0.8435,-0.8004,-0.6973,-0.5922,-0.5071,-0.5067,-0.4678,-0.4104,-0.3384,-0.2434,-0.1446,0.0,0.0,0.0,0.0,0.0,0.0,0.0,0.0,0.0,0.0,0.0,0.0,0.0,0.0,0.0,0.0,0.0,0.0,0.0,0.0,0.0,0.0,-7.4854,-7.4975,-7.5056,-7.4406,-7.444,-7.5116,-7.4549,-7.4997,-7.6252,-7.704,-7.7577,-7.7833,-7.7702,-7.703,-7.6118,-7.6769,-7.7151,-7.7149,-7.5775,0.0,0.0,0.0,0.0,0.0,0.0,0.0,0.0,-7.2697,-7.3868,-7.514,-7.3635,0.0,0.0,0.0,0.0,0.0,-6.7918,-6.8213,-6.8398,-6.5717,-6.5843,-6.6223,-6.4456,-6.3903,-6.3308,-6.1949,-5.9309,-5.7373,-5.7617,-5.5401,-5.3365,-5.3296,-4.9375,-4.422,-3.7832,-3.6,-3.327,-2.852,-2.6501,0.0,-2.0879,-1.9386,-1.8301,-1.7459,-1.8251,-1.8251,-1.7474,-1.8251,-1.8647,-1.8647,-1.8647,-1.8647,-1.8647,-1.8845,-1.9042,-1.9042,-1.7657,-1.6062,-1.4247,-1.2857,-1.1659,-1.0858,0.0,0.0,-0.8339,-0.8134,-0.7077,-0.5241,-0.4696,-0.4301,-0.3898,-0.22,-0.1422,-0.1231,0.0,0.0,0.0,0.0,0.0,0.0,0.0,0.0,0.0,0.0,0.0,0.0,0.0,0.0,0.0,0.0,0.0,0.0,0.0,0.0,0.0,-7.3896,-7.4695,-7.5171,-7.5171,-7.4619,-7.4222,-7.3875,-7.3215,-7.3333,-7.4293,-7.488,-7.5674,-7.6829,-7.6476,-7.5857,-7.4997,-7.4676,-7.4636,-7.4658,-7.3341,0.0,0.0,0.0,0.0,0.0,0.0,0.0,0.0,-7.2471,-7.3306,-7.424,-7.328,0.0,0.0,0.0,0.0,0.0,-6.8452,-6.8521,-6.7963,-6.4276,-6.4245,-6.4582,-6.2608,-6.2426,-6.2099,-6.0033,-5.8404,-5.6949,-5.568,-5.3533,-5.171,-5.0993,-4.5996,-4.0859,-3.6982,-3.364,-3.0927,-2.883,0.0,-2.2955,-2.1045,-1.9086,-1.7444,-1.6474,-1.6481,-1.6474,-1.6282,-1.6474,-1.6672,-1.6672,-1.6672,-1.6672,-1.6672,-1.7466,-1.7863,-1.7863,-1.5472,-1.4071,-1.3672,-1.0262,-0.8657,-0.8457,0.0,-0.6175,-0.5963,-0.5523,-0.5105,-0.4702,-0.3726,-0.2759,-0.1986,-0.1608,-0.1015,-0.0205,0.0,0.0,0.0,0.0,0.0,0.0,0.0,0.0,0.0,0.0,0.0,0.0,0.0,0.0,0.0,0.0,0.0,0.0,0.0,0.0,-7.3566,-7.3859,-7.4319,-7.4493,-7.445,-7.3821,-7.3341,-7.3172,-7.2349,-7.2592,-7.375,-7.4822,-7.5331,-7.5235,-7.5272,-7.4623,-7.3466,-7.3691,-7.3961,-7.4093,0.0,0.0,0.0,0.0,0.0,0.0,0.0,0.0,0.0,0.0,-7.3265,-7.3972,-7.2734,0.0,0.0,0.0,0.0,0.0,-6.8411,-6.8259,-6.7499,-6.4179,-6.5049,-6.6234,-6.4315,-6.3425,-6.2566,-6.0995,-5.8593,-5.6479,-5.5612,-5.3034,-4.9926,-4.61,-4.2576,-3.923,-3.5573,-3.3114,-3.0544,0.0,0.0,-2.1772,-1.9469,-1.7803,-1.6679,-1.6083,-1.6083,-1.6083,-1.6083,-1.6083,-1.6083,-1.6083,-1.6083,-1.6282,-1.6474,-1.707,-1.6665,-1.5472,-1.4277,-1.2668,-1.0667,-0.8862,-0.7657,-0.6855,0.0,-0.5782,-0.5925,-0.514,-0.4716,-0.4485,-0.2955,-0.1984,-0.1397,-0.081,-0.0408,0.0,0.0,0.0,0.0,0.0,0.0,0.0,0.0,0.0,0.0,0.0,0.0,0.0,0.0,0.0,0.0,0.0,0.0,0.0,0.0,-7.2741,-7.3342,-7.3579,-7.3815,-7.3864,-7.3869,-7.3119,-7.2743,-7.2797,-7.2134,-7.2569,-7.3982,-7.5249,-7.5279,-7.4253,-7.4427,-7.3813,-7.2646,-7.3367,-7.3912,-7.4093,0.0,0.0,0.0,0.0,0.0,0.0,0.0,0.0,0.0,0.0,0.0,0.0,0.0,0.0,0.0,-7.0844,-6.9737,-6.8615,-6.8152,-6.8078,-6.7418,-6.4813,-6.5883,-6.7093,-6.5041,-6.3741,-6.2468,-6.0958,-5.8307,-5.6065,-5.5136,-5.2009,-4.7663,-4.2348,-3.9942,-3.7533,-3.394,-3.1969,-2.9595,-2.567,-2.3222,-2.0597,-1.765,-1.6679,-1.6083,-1.6083,-1.6083,-1.6083,-1.6083,-1.6083,-1.6083,-1.6083,-1.6282,-1.6474,-1.6864,-1.7062,-1.6069,-1.3872,-1.3473,-1.1468,-0.8259,-0.7861,-0.7056,-0.5853,-0.5826,-0.5973,-0.5907,-0.4749,-0.4134,-0.3707,-0.1787,-0.1199,-0.1001,-0.0203,0.0,0.0,0.0,0.0,0.0,0.0,0.0,0.0,0.0,0.0,0.0,0.0,0.0,0.0,0.0,0.0,0.0,0.0,0.0,0.0,0.0,-7.2681,-7.2971,-7.2475,-7.3171,-7.3702,-7.3963,-7.3341,-7.2906,-7.2797,-7.2838,-7.3643,-7.5001,-7.5175,-7.5022,-7.4592,-7.4384,-7.401,-7.3503,-7.3826,-7.4056,-7.4093,-7.2797,0.0,0.0,0.0,0.0,0.0,0.0,0.0,0.0,0.0,0.0,0.0,0.0,0.0,-7.0141,-7.0026,-6.9031,-6.7986,-6.7988,-6.8232,-6.7976,-6.5877,-6.5503,-6.4835,-6.1786,-6.1033,-6.0163,-5.734,-5.6482,-5.5545,-5.3231,-4.8861,-4.4886,-4.2689,-3.8632,-3.4698,-3.149,0.0,-2.5968,-2.2312,-2.038,-1.8623,-1.6474,-1.6083,-1.6083,-1.6083,-1.6083,-1.6083,-1.6083,-1.6083,-1.6083,-1.6083,-1.6672,-1.6864,-1.6864,-1.7466,-1.6665,-1.4464,-1.2863,-1.1063,-0.8869,-0.7264,-0.6461,-0.6455,-0.6341,-0.5725,-0.4767,-0.3744,-0.2565,-0.1592,-0.0603,-0.0202,0.0,0.0,0.0,0.0,0.0,0.0,0.0,0.0,0.0,0.0,0.0,0.0,0.0,0.0,0.0,0.0,0.0,0.0,0.0,0.0,0.0,0.0,0.0,-7.3275,-7.3203,-7.3149,-7.2966,-7.3125,-7.3665,-7.3729,-7.375,-7.3629,-7.4133,-7.4602,-7.5116,-7.5653,-7.5432,-7.4641,-7.4551,-7.4127,-7.3615,-7.3715,-7.3912,-7.4093,-7.2793,-7.2235,0.0,0.0,0.0,0.0,0.0,0.0,0.0,0.0,-7.3687,-7.341,-7.2516,-7.154,-7.068,-7.0038,-6.8946,-6.806,-6.8351,-6.7482,-6.6443,-6.6234,-6.4853,-6.3256,-6.2403,-6.1447,-5.9946,-5.7366,-5.5761,-5.3936,-5.1079,-4.5773,-4.1531,-4.0427,-3.6708,-3.3056,-3.0255,-2.7792,-2.4882,-2.1949,-1.9618,-1.7665,-1.6282,-1.6474,-1.6474,-1.6083,-1.6679,-1.6871,-1.6672,-1.6672,-1.6672,-1.6672,-1.6871,-1.707,-1.7466,-1.6665,-1.526,-1.3461,-1.2458,-1.0462,-0.7465,-0.6864,-0.6461,-0.6458,-0.5609,-0.5184,-0.4577,-0.2992,-0.1995,-0.1396,-0.0403,0.0,0.0,0.0,0.0,0.0,0.0,0.0,0.0,0.0,0.0,0.0,0.0,0.0,0.0,0.0,0.0,0.0,0.0,0.0,0.0,0.0,0.0,0.0,-7.2864,-7.277,-7.2608,-7.2507,-7.2408,-7.2725,-7.3307,-7.4167,-7.4457,-7.4179,-7.4783,-7.5261,-7.5478,-7.5713,-7.5598,-7.5031,-7.4559,-7.4201,-7.4001,-7.384,-7.3961,-7.4093,-7.2751,-7.2195,0.0,0.0,0.0,0.0,0.0,0.0,0.0,0.0,-7.3686,-7.3155,-7.1977,-7.0991,-7.0111,-6.9426,-6.849,-6.7777,-6.816,-6.6989,-6.5671,-6.5567,-6.3965,-6.2279,-6.1349,-6.056,-5.9192,-5.6504,-5.4643,-5.2373,-4.8675,-4.417,-4.049,-3.8837,-3.5046,-3.1637,-2.8955,-2.6442,-2.3716,-2.1174,-1.9034,-1.7275,-1.6474,-1.6672,-1.6672,-1.6474,-1.7275,-1.7466,-1.6871,-1.6864,-1.707,-1.707,-1.707,-1.7466,-1.7863,-1.6261,-1.4657,-1.2863,-1.1858,-0.9665,-0.6461,-0.6461,-0.6461,-0.6461,-0.5231,-0.4612,-0.4199,-0.2408,-0.1404,-0.1001,-0.0202,0.0,0.0,0.0,0.0,0.0,0.0,0.0,0.0,0.0,0.0,0.0,0.0,0.0,0.0,0.0,0.0,0.0,0.0,0.0,0.0,0.0,0.0,0.0,-6.9668,-7.0806,-7.1018,-6.9885,-7.1265,-7.237,-7.2971,-7.4583,-7.5004,-7.4215,-7.482,-7.5515,-7.6239,-7.5384,-7.5359,-7.6043,-7.4487,-7.4263,-7.4935,-7.4394,-7.4197,-7.4047,-7.2708,-7.2154,-7.2119,0.0,0.0,0.0,0.0,0.0,0.0,0.0,-7.3063,-7.1836,-7.1404,-6.9778,-6.8012,-6.8012,-6.7556,-6.7059,-6.7228,-6.6936,-6.5981,-6.3768,-6.2973,-6.1703,-5.7779,-5.7688,-5.7499,-5.4255,-5.2869,-5.097,-4.6158,-4.4149,-4.2218,-3.8551,-3.3896,-2.9899,-2.7407,-2.4699,-2.2163,-1.9429,-1.8259,-1.7466,-1.6864,-1.6864,-1.6864,-1.6864,-1.7466,-1.7466,-1.6871,-1.6864,-1.707,-1.7672,-1.7672,-1.7863,-1.8457,-1.685,-1.5049,-1.2863,-1.0658,-0.846,-0.6461,-0.6461,-0.6461,-0.6458,-0.5195,-0.4201,-0.3027,-0.2,-0.0801,0.0,0.0,0.0,0.0,0.0,0.0,0.0,0.0,0.0,0.0,0.0,0.0,0.0,0.0,0.0,0.0,0.0,0.0,0.0,0.0,0.0,0.0,0.0,0.0,0.0,-7.0965,-7.0796,-7.0625,-7.0593,-7.1126,-7.1978,-7.3308,-7.5567,-7.6417,-7.5653,-7.5841,-7.6191,-7.6672,-7.63,-7.5823,-7.5389,-7.4996,-7.4014,-7.2553,-7.2555,-7.2021,-7.1183,-7.0101,-6.9843,-6.999,0.0,0.0,0.0,0.0,0.0,0.0,0.0,0.0,0.0,-7.0555,-6.9558,-6.8712,-6.8018,-6.7607,-6.729,-6.6737,-6.523,-6.3609,-6.2929,-6.0454,-5.7855,-5.6584,-5.6983,-5.6295,-5.1907,-4.773,-4.4598,-4.3826,-4.0192,-3.7274,-3.6886,-3.2973,-2.8943,-2.6238,-2.3716,-2.0987,-1.8457,-1.7268,-1.6672,-1.6871,-1.7268,-1.7268,-1.6871,-1.7665,-1.7863,-1.6864,-1.6864,-1.707,-1.7672,-1.7672,-1.7268,-1.6261,-1.4657,-1.2857,-1.0658,-0.8464,-0.7062,-0.6461,-0.6417,-0.6019,-0.5244,-0.4197,-0.3001,-0.2018,-0.0805,-0.0202,0.0,0.0,0.0,0.0,0.0,0.0,0.0,0.0,0.0,0.0,0.0,0.0,0.0,0.0,0.0,0.0,0.0,-6.8093,-6.8014,0.0,0.0,0.0,0.0,0.0,0.0,0.0,-7.0126,-7.0033,-6.9941,-7.0332,-7.1552,-7.3744,-7.5487,-7.6227,-7.5804,-7.6264,-7.6607,-7.6801,-7.651,-7.5943,-7.5165,-7.4764,-7.3419,-7.1558,-7.1416,-7.1011,-7.0274,-6.9504,-6.9336,-6.9495,0.0,0.0,0.0,0.0,0.0,0.0,0.0,0.0,0.0,-6.9599,-6.8746,-6.8147,-6.76,-6.6968,-6.6388,-6.6177,-6.4142,-6.195,-6.1357,-5.8812,-5.5939,-5.4409,-5.4131,-5.2965,-4.9189,-4.575,-4.2688,-4.1012,-3.8363,-3.6048,-3.5213,-3.1303,-2.7792,-2.5851,-2.274,-1.9815,-1.7863,-1.6679,-1.6481,-1.707,-1.7466,-1.7665,-1.7459,-1.8061,-1.8061,-1.7268,-1.707,-1.7268,-1.8061,-1.787,-1.7466,-1.6857,-1.4259,-1.2258,-1.0858,-0.7864,-0.645,-0.6425,-0.6011,-0.542,-0.464,-0.321,-0.2008,-0.1009,-0.0202,0.0,0.0,0.0,0.0,0.0,0.0,0.0,0.0,0.0,0.0,0.0,0.0,0.0,0.0,0.0,0.0,0.0,0.0,-6.765,-6.7161,0.0,0.0,0.0,0.0,0.0,0.0,0.0,-6.902,-6.9246,-6.8431,-6.9237,-7.1055,-7.3904,-7.4632,-7.4935,-7.4869,-7.596,-7.6454,-7.6482,-7.6006,-7.5541,-7.4978,-7.3849,-7.2655,-7.1355,-7.0774,-7.0565,-7.0573,-7.0054,-6.9835,-6.9871,-7.0085,0.0,0.0,0.0,0.0,0.0,0.0,0.0,0.0,-6.8481,-6.7484,-6.6861,-6.7003,-6.611,-6.5158,-6.5539,-6.3408,-6.0908,-5.9505,-5.7794,-5.5381,-5.1816,-5.003,-4.8501,-4.6166,-4.5449,-4.3522,-3.768,-3.759,-3.7051,-3.3656,-2.9517,-2.6442,-2.5464,-2.1762,-1.8647,-1.7672,-1.6679,-1.6481,-1.7672,-1.7672,-1.7863,-1.8457,-1.8457,-1.8259,-1.7672,-1.707,-1.7268,-1.8457,-1.7863,-1.8069,-1.8655,-1.4856,-1.2663,-1.2263,-0.8256,-0.6428,-0.618,-0.5222,-0.4636,-0.4434,-0.242,-0.0808,0.0,0.0,0.0,0.0,0.0,0.0,0.0,0.0,0.0,0.0,0.0,0.0,0.0,0.0,0.0,0.0,0.0,0.0,0.0,0.0,0.0,0.0,0.0,0.0,0.0,0.0,0.0,0.0,0.0,-6.8335,-6.8414,-6.8162,-6.9823,-7.1261,-7.2398,-7.3496,-7.3832,-7.3293,-7.3542,-7.3784,-7.4055,-7.3843,-7.3513,-7.2995,-7.269,-7.1528,-6.9813,-6.9692,-6.9196,-6.8499,-6.7705,-6.8094,-6.8837,-6.7692,-6.8051,0.0,0.0,0.0,0.0,0.0,0.0,0.0,-6.7474,-6.6931,-6.6848,-6.7222,-6.7129,-6.646,-6.463,-6.3152,-6.1465,-5.8701,-5.6426,-5.4079,-5.0652,-4.8317,-4.6256,-4.428,-4.1125,-3.8132,-3.5776,-3.4773,-3.3787,-3.2219,-2.856,-2.5464,-2.4473,-2.0585,-1.7665,-1.6481,-1.6282,-1.6481,-1.7672,-1.7672,-1.7863,-1.8457,-1.8061,-1.7665,-1.707,-1.6474,-1.6672,-1.7863,-1.7672,-1.6665,-1.4259,-1.3262,-1.1263,-0.7864,-0.6812,-0.6006,-0.5229,-0.5002,-0.3793,-0.2198,-0.0805,-0.0202,0.0,0.0,0.0,0.0,0.0,0.0,0.0,0.0,0.0,0.0,0.0,0.0,0.0,0.0,0.0,0.0,0.0,0.0,0.0,0.0,0.0,0.0,0.0,0.0,0.0,0.0,0.0,0.0,0.0,0.0,-6.889,-6.874,-7.034,-7.1446,-7.1729,-7.2397,-7.2602,-7.2261,-7.1481,-7.1872,-7.3312,-7.3213,-7.2714,-7.1892,-7.2078,-7.0978,-6.8891,-6.921,-6.9031,-6.8425,-6.7998,-6.8204,-6.872,-6.7897,-6.8056,-6.8733,-6.8399,0.0,0.0,0.0,0.0,0.0,0.0,0.0,-6.7245,-6.7486,-6.6865,-6.5766,-6.3967,-6.2092,-5.9815,-5.666,-5.4721,-5.2714,-4.8793,-4.6686,-4.4837,-4.185,-3.896,-3.6483,-3.4989,-3.3988,-3.28,-3.1474,-2.7984,-2.5066,-2.3696,-2.0201,-1.7275,-1.6282,-1.6083,-1.6481,-1.7672,-1.7466,-1.7665,-1.8457,-1.7863,-1.7268,-1.6864,-1.6474,-1.6474,-1.7268,-1.7268,-1.6268,-1.4059,-1.3062,-1.1035,-0.8007,-0.6409,-0.4821,-0.3228,-0.3212,-0.2405,-0.0802,-0.0202,0.0,0.0,0.0,0.0,0.0,0.0,0.0,0.0,0.0,0.0,0.0,0.0,0.0,0.0,0.0,0.0,0.0,0.0,0.0,0.0,0.0,0.0,0.0,0.0,0.0,0.0,0.0,0.0,0.0,0.0,0.0,0.0,-6.9484,-7.07,-7.1265,-7.1265,-7.1265,-7.1265,-7.1196,-7.0056,-7.0662,-7.2791,-7.2791,-7.2156,-7.1054,-7.1579,-7.0761,-6.8852,-6.9372,-6.9344,-6.9106,-6.9139,-6.8962,-6.8681,-6.8536,-6.8247,-6.8021,-6.8183,-6.8684,-6.9122,0.0,0.0,0.0,0.0,0.0,-6.7797,-6.7623,-6.6357,-6.4796,-6.3716,-6.0877,-5.7689,-5.4941,-5.3576,-5.185,-4.74,-4.5797,-4.4221,-4.0004,-3.7823,-3.6173,-3.4853,-3.3742,-3.2421,-3.1093,-2.7792,-2.4678,-2.3316,-1.9815,-1.7077,-1.6282,-1.6083,-1.6481,-1.7474,-1.7268,-1.7466,-1.8259,-1.7466,-1.707,-1.6864,-1.6474,-1.6275,-1.6864,-1.6864,-1.6268,-1.4663,-1.3062,-1.1016,-0.8753,-0.5623,-0.3225,-0.1611,-0.1412,-0.0808,0.0,0.0,0.0,0.0,0.0,0.0,0.0,0.0,0.0,0.0,0.0,0.0,0.0,0.0,0.0,0.0,0.0,0.0,0.0,0.0,0.0,0.0,0.0,-6.8676,-6.9169,0.0,0.0,0.0,0.0,0.0,0.0,0.0,0.0,0.0,-6.9849,-6.9991,-7.0026,-6.9883,-6.9883,-6.9846,-6.9736,-6.9928,-7.0278,-7.0639,-7.0639,-7.0418,-7.012,-7.0654,-7.0828,-7.0628,-7.0575,-7.0079,-6.9436,-6.9595,-6.8711,-6.7283,-6.6602,-6.6286,-6.6345,-6.6848,-6.7304,-6.7934,-6.8851,-6.8987,0.0,0.0,0.0,-6.8189,-6.7546,-6.6907,-6.5902,-6.3535,-6.0414,-5.7346,-5.6103,-5.4556,-5.2479,-4.8773,-4.6383,-4.3671,-3.9822,-3.727,-3.5413,-3.4853,-3.3163,-3.1664,-3.1107,-2.6999,-2.388,-2.3121,-1.9216,-1.6282,-1.6083,-1.6083,-1.6275,-1.6871,-1.7268,-1.7672,-1.787,-1.7672,-1.7466,-1.6871,-1.6474,-1.6275,-1.6864,-1.6864,-1.5466,-1.2658,-1.2258,-0.9849,-0.5434,-0.3024,-0.1809,-0.1397,-0.0604,-0.0202,0.0,0.0,0.0,0.0,0.0,0.0,0.0,0.0,0.0,0.0,0.0,0.0,0.0,0.0,0.0,0.0,0.0,0.0,0.0,0.0,0.0,0.0,0.0,0.0,-6.876,0.0,0.0,0.0,0.0,0.0,0.0,0.0,0.0,0.0,-6.9885,-6.9885,-6.9813,-6.9598,-6.991,-6.9972,-6.9858,-7.0399,-7.0593,-7.0515,-7.0853,-7.0932,-7.0515,-7.0071,-6.9886,-6.9682,-6.891,-6.8383,-6.7959,-6.8014,-6.7215,-6.6104,-6.612,-6.5687,-6.5203,-6.5619,-6.5918,-6.627,-6.6558,-6.6456,-6.6237,-6.674,0.0,0.0,0.0,-6.6068,-6.4691,-6.1489,-5.9123,-5.712,-5.5643,-5.4381,-5.2524,-4.8586,-4.6457,-4.4044,-4.0004,-3.7639,-3.5972,-3.4853,-3.2988,-3.1487,-3.0916,-2.6999,-2.3686,-2.3121,-1.9018,-1.6083,-1.6083,-1.6083,-1.6282,-1.6864,-1.707,-1.7268,-1.7268,-1.7268,-1.707,-1.6474,-1.6282,-1.6282,-1.6474,-1.5671,-1.4071,-1.1668,-1.0667,-0.8055,-0.3835,-0.2209,-0.1203,-0.0602,-0.0202,0.0,0.0,0.0,0.0,0.0,0.0,0.0,0.0,0.0,0.0,0.0,0.0,0.0,0.0,0.0,0.0,0.0,0.0,0.0,0.0,0.0,0.0,0.0,0.0,0.0,0.0,0.0,0.0,0.0,0.0,0.0,0.0,0.0,0.0,0.0,-7.0132,-7.0239,-7.0168,-6.9742,-7.03,-7.0499,-7.0272,-7.0906,-7.0961,-7.0636,-7.1311,-7.1263,-7.0511,-7.0004,-6.9254,-6.8421,-6.7732,-6.7087,-6.6558,-6.6402,-6.5558,-6.437,-6.4786,-6.4152,-6.3145,-6.3929,-6.4371,-6.4667,-6.482,-6.4839,-6.4889,-6.5534,-6.5583,0.0,0.0,0.0,-6.316,-6.015,-5.8668,-5.7509,-5.5881,-5.4825,-5.3039,-4.8567,-4.6723,-4.4555,-4.0004,-3.8023,-3.6545,-3.5241,-3.3365,-3.1853,-3.1107,-2.7191,-2.4085,-2.3121,-1.9216,-1.6481,-1.6083,-1.6083,-1.6282,-1.6864,-1.7062,-1.707,-1.6864,-1.707,-1.6871,-1.6083,-1.6083,-1.5877,-1.5479,-1.4277,-1.2674,-1.0266,-0.8058,-0.5645,-0.2826,-0.1604,-0.0803,0.0,0.0,0.0,0.0,0.0,0.0,0.0,0.0,0.0,0.0,0.0,0.0,0.0,0.0,0.0,0.0,0.0,0.0,0.0,0.0,0.0,0.0,0.0,0.0,0.0,0.0,0.0,0.0,-7.1441,-7.1441,-7.1427,-7.1268,-7.1197,0.0,0.0,0.0,0.0,-7.0754,-7.1297,0.0,-7.0202,-7.0554,-7.0648,-7.0499,-7.135,-7.1311,-7.0308,-7.0948,-7.0498,-6.9372,-7.0589,-6.9962,-6.7959,-6.8327,-6.7427,-6.5712,-6.5727,-6.4127,-6.1634,-6.1441,-6.039,-5.9395,-6.155,-6.262,-6.3246,-6.5009,-6.5982,-6.6422,-6.5956,-6.5948,-6.5899,0.0,0.0,0.0,-6.0756,-6.0118,-5.9351,-5.7503,-5.6344,-5.4511,-4.9302,-4.746,-4.522,-4.0169,-3.8023,-3.673,-3.6173,-3.4478,-3.2611,-3.1107,-2.7792,-2.4872,-2.3316,-2.0012,-1.7275,-1.6282,-1.6083,-1.6282,-1.6864,-1.7268,-1.7466,-1.6871,-1.7466,-1.7275,-1.6083,-1.6083,-1.5479,-1.3878,-1.3672,-1.1664,-0.7449,-0.383,-0.1816,-0.1614,-0.0606,0.0,0.0,0.0,0.0,0.0,0.0,0.0,0.0,0.0,0.0,0.0,0.0,0.0,0.0,0.0,0.0,0.0,0.0,0.0,0.0,0.0,0.0,0.0,0.0,0.0,0.0,0.0,0.0,0.0,0.0,-7.0908,-7.0984,-7.162,-7.1032,0.0,0.0,0.0,0.0,-7.1502,-7.1977,-7.2051,-7.173,-7.1964,-7.1974,-7.182,-7.1503,-7.1212,-7.0859,-7.0373,-6.923,-6.7424,-6.7945,-6.7751,-6.6712,-6.5346,-6.4406,-6.3924,-6.2955,-6.1629,-6.0202,-5.9428,-5.8697,-5.8194,-5.8807,-6.0016,-6.1441,-6.214,-6.3084,-6.3941,-6.4299,-6.4222,-6.4014,-6.3512,-6.2939,-6.2222,-6.1088,-6.0589,-5.9937,-5.7755,-5.6373,-5.4265,-4.9081,-4.6886,-4.4731,-4.0004,-3.8391,-3.7486,-3.6359,-3.4478,-3.2988,-3.2421,-2.8548,-2.5076,-2.389,-2.0201,-1.7275,-1.6282,-1.6083,-1.6282,-1.6864,-1.7466,-1.7466,-1.6864,-1.7466,-1.6871,-1.5081,-1.5081,-1.4071,-1.1664,-1.0663,-0.8256,-0.4638,-0.2623,-0.1614,-0.1614,-0.0606,0.0,0.0,0.0,0.0,0.0,0.0,0.0,0.0,0.0,0.0,0.0,0.0,0.0,0.0,0.0,0.0,0.0,0.0,0.0,0.0,0.0,0.0,0.0,0.0,0.0,-6.9804,-7.071,0.0,0.0,0.0,0.0,-7.1047,-7.1637,-7.1095,-7.0934,-7.1506,-7.1663,-7.1713,-7.1515,-7.1942,-7.1791,-7.093,-7.0923,-7.0937,-7.1097,-7.0425,-7.0129,-7.0136,-6.9178,-6.7817,-6.5994,-6.5943,-6.5676,-6.5167,-6.3649,-6.2727,-6.2093,-6.0037,-5.8987,-5.8427,-5.6948,-5.6569,-5.6899,-5.6363,-5.7334,-5.8779,-5.8332,-5.9061,-6.0258,-6.0811,-6.1491,-6.2043,-6.2094,-6.2342,-6.2473,-6.175,-6.0931,-5.9846,-5.8,-5.6417,-5.4001,-4.8768,-4.6892,-4.4875,-4.0118,-3.8759,-3.8224,-3.6915,-3.504,-3.354,-3.3163,-2.9122,-2.5453,-2.4074,-2.0585,-1.7665,-1.6282,-1.6083,-1.6282,-1.6864,-1.7466,-1.7466,-1.6864,-1.707,0.0,-1.4676,-1.3672,-1.1864,-0.8854,-0.6846,-0.4839,-0.2624,-0.1615,-0.1009,-0.1009,-0.0404,0.0,0.0,0.0,0.0,0.0,0.0,0.0,0.0,0.0,0.0,0.0,0.0,0.0,0.0,-0.0191,-0.0192,0.0,0.0,0.0,0.0,0.0,0.0,0.0,0.0,0.0,-6.9955,-6.9991,0.0,0.0,0.0,0.0,0.0,-7.1348,-7.1404,-7.1793,-7.2431,-7.3024,-7.2617,-7.0835,0.0,0.0,-6.7845,-6.7407,-6.7624,-6.8526,-6.8115,-6.7928,-6.8039,-6.7359,-6.6337,-6.5062,-6.4777,-6.4131,-6.3356,-6.3599,-6.2576,-6.0512,-5.7366,-5.6315,-5.6297,-5.3869,-5.3867,-5.5095,-5.4308,-5.4625,-5.5306,-5.3766,-5.442,-5.58,-5.5972,-5.7848,-6.0193,-6.0475,-6.165,-6.2786,0.0,0.0,0.0,-5.806,-5.6632,-5.4072,-4.8414,0.0,-4.6293,-4.049,-3.9275,-3.8926,-3.7855,-3.5987,-3.4291,-3.3351,-2.9708,-2.6431,-2.4269,-2.1174,-1.8449,-1.6474,-1.6083,-1.6282,-1.6864,-1.7466,-1.7466,-1.6864,-1.6467,-1.5671,-1.4476,-1.1864,-0.8854,-0.564,-0.3025,-0.1614,-0.1614,-0.0606,0.0,0.0,0.0,0.0,0.0,0.0,0.0,0.0,0.0,0.0,0.0,0.0,0.0,0.0,0.0,0.0,0.0,-0.0572,-0.0381,0.0,0.0,0.0,0.0,0.0,0.0,-7.1856,-7.165,-7.1338,-7.1482,0.0,0.0,0.0,-7.3226,-7.308,-7.2593,-7.1512,-7.1494,-7.1603,-7.1793,-7.2864,-7.3245,-7.2722,-7.2649,-7.2472,-7.211,-7.0024,-6.9442,-7.0343,-6.8161,-6.7225,-6.7327,-6.5884,-6.4704,-6.3956,-6.3975,-6.3109,-6.1612,-6.2593,-6.1936,-6.0086,-5.909,-5.6976,-5.4285,-5.2632,-5.1639,-5.0719,-4.9276,-5.0243,-5.2063,-5.175,-5.3715,-5.6349,-5.7859,-5.8571,-5.8967,-5.8967,-5.9225,-5.9387,-5.9398,0.0,0.0,0.0,0.0,0.0,0.0,0.0,-4.7748,-4.2716,-4.1548,-4.0659,-3.8143,-3.5987,-3.4666,-3.4291,-3.1244,-2.7792,-2.5453,-2.2731,-2.0004,-1.7466,-1.6481,-1.6282,-1.6864,-1.7466,-1.7466,0.0,-1.707,-1.6069,-1.3473,-0.8854,-0.5439,-0.3428,-0.1413,-0.0404,-0.0404,-0.0202,0.0,0.0,0.0,0.0,0.0,0.0,0.0,0.0,0.0,0.0,0.0,0.0,0.0,0.0,0.0,0.0,0.0,-0.0191,-0.0191,0.0,0.0,0.0,0.0,0.0,0.0,-7.2485,-7.2298,-7.18,-7.1654,0.0,0.0,0.0,-7.3326,-7.346,-7.305,-7.211,-7.2128,-7.2355,-7.2785,-7.3297,-7.318,-7.215,-7.1938,-7.134,-7.0187,-6.8303,-6.7791,-6.8798,-6.6537,-6.5805,-6.6401,-6.4837,-6.3868,-6.3489,-6.2809,-6.1721,-6.0411,-6.0705,-5.9993,-5.829,-5.6341,-5.4122,-5.1941,-4.987,-4.883,-4.8374,-4.7018,-4.7805,-4.9553,-4.8872,-5.0842,-5.4015,-5.4922,-5.6317,-5.7569,-5.7393,-5.7878,-5.8395,-5.8286,-5.7714,-5.6873,-5.5997,0.0,0.0,-4.9824,-4.8852,-4.7208,0.0,-4.1178,-4.0387,-3.8159,-3.6359,-3.5413,-3.5413,-3.296,-2.9708,-2.6045,-2.3521,-2.1183,-1.8061,-1.7077,-1.6679,-1.6672,-1.707,-1.707,-1.6672,-1.6672,-1.5267,-1.1668,-0.7647,-0.4636,-0.2825,-0.1009,0.0,0.0,0.0,0.0,0.0,0.0,0.0,0.0,0.0,0.0,0.0,0.0,0.0,0.0,0.0,0.0,0.0,0.0,0.0,0.0,-0.0191,-0.0191,0.0,0.0,0.0,-7.581,-7.6326,-7.4347,-7.2701,-7.2974,-7.2,-7.1421,0.0,-7.2251,-7.2521,-7.2611,-7.3297,-7.3537,-7.2762,-7.3006,-7.3425,-7.4068,-7.3668,-7.2442,-7.0222,-7.013,-6.8675,-6.5634,-6.4596,-6.4676,-6.5769,-6.4352,-6.4318,-6.5416,-6.4127,-6.3394,-6.3255,-6.1489,-6.0274,-5.9392,-5.8361,-5.7106,-5.548,-5.1705,-5.0167,-4.9835,-4.662,-4.6079,-4.6936,-4.5512,-4.5961,-4.7077,-4.5529,-4.7212,-4.9761,-4.9669,-5.2352,-5.5647,-5.5464,-5.6767,-5.8229,-5.8061,-5.7033,-5.595,-5.5952,-5.4497,0.0,-4.8781,-4.7783,-4.6061,0.0,-4.0155,-3.9847,-3.8646,-3.7552,-3.6819,-3.6651,-3.4847,-3.1894,-2.6806,-2.4494,-2.2163,-1.8647,-1.7863,-1.7275,-1.6282,-1.6672,-1.6672,-1.6083,-1.5479,-1.3672,-1.0062,-0.7647,-0.5436,-0.3227,-0.1211,0.0,0.0,0.0,0.0,0.0,0.0,0.0,0.0,0.0,0.0,0.0,0.0,0.0,0.0,0.0,0.0,0.0,0.0,0.0,0.0,-0.0572,-0.0382,0.0191,0.0,-7.8882,-7.8328,-7.6847,-7.6027,-7.5201,-7.4149,-7.3395,-7.3141,-7.3723,-7.4072,-7.4127,-7.3675,-7.4326,-7.4348,-7.3213,-7.3042,-7.2355,-7.0829,-7.1596,-7.1231,-6.9282,-6.8911,-6.8573,-6.8243,-6.6213,-6.5706,-6.6807,-6.5183,-6.4545,-6.469,-6.3765,-6.2757,-6.1896,-6.0849,-5.9368,-5.7685,-5.6766,-5.4691,-5.2195,-5.2557,-5.1296,-4.8809,-4.5835,-4.3799,-4.2251,-3.9575,-4.0138,-4.2515,-4.4912,-4.592,-4.6596,-4.8164,-4.9328,-5.0294,-5.1538,-5.249,-5.3374,-5.4278,-5.4294,-5.4038,-5.3862,-5.3451,0.0,-5.274,-5.2299,-5.1048,0.0,-4.6954,-4.6099,-4.335,-4.2031,-4.0832,-3.8701,-3.7639,-3.5334,-3.0557,-2.6999,-2.43,-2.2359,-1.9429,-1.7672,-1.7474,-1.707,-1.6672,-1.6083,-1.528,-1.3672,-1.1059,-0.8045,-0.5436,-0.3227,-0.1211,0.0,0.0,0.0,0.0,0.0,0.0,0.0,0.0,0.0,0.0,0.0,0.0,0.0,0.0,0.0,0.0,0.0,0.0,0.0,0.0,-0.0191,0.0192,0.0771,-7.7993,-7.8078,-7.7863,-7.6511,-7.5676,-7.4988,-7.4467,-7.36,-7.32,-7.3718,-7.4235,-7.4121,-7.318,-7.3672,-7.346,-7.2084,-7.1725,-7.1194,-7.0238,-7.0448,-6.9968,-6.8452,-6.8193,-6.7845,-6.7255,-6.6024,-6.5758,-6.645,-6.5469,-6.4928,-6.4764,-6.3653,-6.1989,-5.9985,-5.9585,-5.8148,-5.6019,-5.614,-5.5166,-5.333,-5.1403,-4.8862,-4.6016,-4.2857,-4.0788,-3.9242,-3.7191,-3.752,-3.9405,-4.1257,-4.2895,-4.4543,-4.5126,-4.692,-4.8928,-5.0567,-5.1407,-5.2135,-5.3293,-5.3906,-5.407,-5.3843,-5.3682,0.0,0.0,-5.2038,-5.093,-4.8386,-4.7657,-4.6817,-4.5108,0.0,-4.2702,-4.0785,-3.9391,-3.745,-3.4141,-3.0634,-2.6999,-2.3531,-2.1585,-1.9626,-1.7863,-1.7466,-1.6871,-1.6083,-1.5678,-1.4676,-1.3068,-0.9248,-0.6439,-0.4835,-0.1614,0.0,0.0,0.0,0.0,0.0,0.0,0.0,0.0,0.0,0.0,0.0,0.0,0.0,0.0,0.0763,0.1144,0.1144,0.0382,0.0,0.0,0.0382,0.0574,0.1151,-7.7538,-7.7317,-7.7105,-7.6199,-7.4931,-7.4167,-7.4352,-7.3579,-7.3096,-7.338,-7.3946,-7.3784,-7.2254,-7.2352,-7.1847,-7.0222,-6.9248,-6.8905,-6.9453,-6.8617,-6.7876,-6.7539,-6.7453,-6.6819,-6.5624,-6.5492,-6.5486,-6.5657,-6.5596,-6.5378,-6.5158,-6.3791,-6.1734,-5.9103,-5.8255,-5.687,-5.5279,-5.541,-5.507,-5.3904,-4.9236,-4.6257,-4.4316,-4.0138,-3.8003,-3.7097,-3.5835,-3.5835,-3.642,-3.7385,-3.9866,-4.2544,-4.215,-4.4437,-4.744,-4.9421,-5.0461,-5.123,-5.2822,-5.3661,-5.4026,-5.4052,-5.3804,-5.303,0.0,0.0,0.0,0.0,0.0,0.0,0.0,0.0,0.0,0.0,0.0,0.0,0.0,-3.3888,0.0,-2.5173,-2.3809,-2.1939,-1.9134,-1.8159,-1.74,-1.6275,-1.6227,-1.5618,-1.3872,-1.0049,-0.7239,-0.5839,-0.2017,0.0,0.0,0.0,0.0,0.0,0.0,0.0,0.0,0.0,0.0192,0.0572,0.0572,0.0572,0.0763,0.2286,0.2857,0.2476,0.1525,0.1145,0.1339,0.1911,0.2295,0.268,-7.9053,-7.9093,-7.8379,-7.639,-7.5322,-7.4507,-7.3993,-7.4014,-7.4006,-7.3819,-7.4333,-7.385,-7.1525,-7.1203,-7.0137,-6.7604,-6.4878,-6.3778,-6.532,-6.3603,-6.371,-6.6176,-6.588,-6.5879,-6.6386,-6.5757,-6.5486,-6.5657,-6.5969,-6.5923,-6.5576,-6.4075,-6.2817,-6.1672,-5.7098,-5.5987,-5.7189,-5.3812,-5.072,-4.7875,-4.6172,-4.6592,-4.7538,-4.0162,-3.695,-3.5974,-3.4059,-3.2661,-3.2175,-3.6474,-3.8351,-3.9305,-4.0363,-4.0767,-4.145,-4.4482,-4.6268,-4.7848,-5.0301,-5.1284,-5.1875,-5.3366,-5.2538,-5.1837,-5.3255,0.0,-5.2804,-5.1877,0.0,0.0,0.0,0.0,0.0,0.0,0.0,0.0,-3.6355,-3.5804,-3.4457,-3.0532,-2.5861,-2.2984,-2.2944,-2.0272,-1.7733,-1.6261,-1.6615,-1.5394,-1.1848,-0.9244,-0.6637,-0.3628,-0.1211,0.0,0.0,0.0,0.0,0.0,0.0,0.0,0.0,0.0,0.0954,0.2665,0.2665,0.2665,0.2855,0.4377,0.4375,0.3803,0.4945,0.5545,0.5779,0.6737,0.7352,0.7783,-7.6399,-7.6788,-7.676,-7.5275,-7.5041,-7.5087,-7.4805,-7.474,-7.4675,-7.4609,-7.4333,-7.3399,-7.1641,-7.0521,-6.834,-6.4672,-6.2528,-6.1416,-6.1599,-6.1044,-6.1452,-6.3324,-6.4695,-6.5165,-6.4659,-6.5684,-6.6078,-6.5799,-6.6872,-6.6922,-6.6148,-6.5331,-6.3268,-6.0291,-5.7504,-5.5415,-5.4074,-5.4235,-5.2308,-4.8973,-4.753,-4.5911,-4.3464,-3.6145,-3.2306,-3.0818,-2.9823,-2.9313,-2.9251,-3.1262,-3.2756,-3.4079,-3.4802,-3.5967,-3.7923,-4.1921,-4.3513,-4.4614,-4.8056,-4.82,-4.7949,-4.9652,-4.8696,-4.7727,-4.9843,-5.0221,-4.9937,-4.9653,0.0,0.0,0.0,0.0,0.0,0.0,-4.2476,0.0,0.0,0.0,0.0,0.0,0.0,0.0,-2.3947,-2.0982,-1.8678,-1.7062,-1.7531,-1.592,-1.1454,-0.9248,-0.6436,-0.3227,-0.1211,0.0,0.0,0.0,0.0604,0.1801,0.1777,0.2346,0.3495,0.3447,0.3997,0.4755,0.4375,0.4377,0.4565,0.6277,0.6868,0.6902,0.9577,0.9216,0.7327,0.79,0.8499,0.8899,-7.4644,-7.5097,-7.5365,-7.4165,-7.4542,-7.5059,-7.5277,-7.5146,-7.5014,-7.464,-7.3901,-7.2573,-7.0533,-6.8319,-6.5427,-6.1502,-5.9017,-5.7721,-5.8133,-5.8239,-5.8869,-6.0432,-6.2925,-6.3931,-6.3273,-6.5049,-6.6012,-6.5867,-6.7181,-6.746,-6.6667,-6.5523,-6.3305,-6.0307,-5.7696,-5.4996,-5.2469,-5.3225,-5.1431,-4.7675,-4.5726,-4.1545,-3.6082,-3.1566,-2.8272,-2.6282,-2.6282,-2.6476,-2.6817,-2.7226,-2.8741,0.0,-3.0751,-3.2246,-3.4419,-3.8247,-3.9411,-4.016,-4.3565,-4.3556,-4.3278,-4.5871,-4.5041,-4.4211,-4.6949,-4.759,-4.759,-4.7445,0.0,0.0,0.0,0.0,0.0,0.0,0.0,-4.166,0.0,0.0,0.0,0.0,0.0,0.0,0.0,-2.3124,-2.0888,-1.8858,-1.8678,-1.6546,-1.1654,-0.9248,-0.6436,-0.3227,-0.1211,0.0,0.0,0.0,0.1005,0.2982,0.2954,0.4099,0.6196,0.612,0.6283,0.6871,0.6663,0.6464,0.6467,0.8747,0.956,0.9645,1.2757,1.2187,0.9863,1.0248,1.023,1.0577,-7.5518,-7.557,-7.507,-7.352,-7.3607,-7.4211,-7.4971,-7.508,-7.4709,-7.3543,-7.3021,-7.1198,-6.7293,-6.3587,-6.0495,-5.8378,-5.3121,-5.1442,-5.5083,-5.4523,-5.5267,-5.8149,-6.0428,-6.1865,-6.2747,-6.3494,-6.4571,-6.6095,-6.6601,-6.6974,-6.7081,-6.4016,-6.2915,-6.332,-5.7157,-5.4749,-5.481,-4.9867,-4.5028,-4.0782,-3.7567,-3.2211,-2.6001,-2.6869,-2.6005,-2.4156,-2.4156,0.0,0.0,-2.6605,-2.805,0.0,0.0,0.0,0.0,0.0,0.0,0.0,0.0,0.0,0.0,-4.2698,-4.2768,-4.2505,-4.6668,-4.759,-4.7445,-4.713,-4.6735,0.0,0.0,0.0,-4.2665,-3.9751,0.0,0.0,0.0,0.0,0.0,0.0,0.0,0.0,0.0,-2.7243,-2.5112,-2.1782,-2.0193,-1.7098,-1.1649,-0.9248,-0.6436,-0.3227,-0.1211,0.0,0.0,0.0,0.1005,0.2982,0.2954,0.4113,0.6259,0.6139,0.7071,0.8484,0.9349,0.95,0.9122,1.1784,1.2227,1.175,1.3433,1.4267,1.4661,1.4661,1.4571,1.4451,-7.5336,-7.5329,-7.5084,-7.4395,-7.5249,-7.6172,-7.6491,-7.5231,-7.3863,-7.2858,-6.924,-6.6059,-6.4093,-6.0885,-5.7873,-5.4956,-5.2709,-5.1796,-5.2354,-5.3219,-5.4027,-5.4812,-5.941,-6.1097,-5.9102,-6.2212,-6.3574,-6.3195,-6.4222,-6.4505,-6.3984,-6.3121,-6.2456,-6.1753,-5.7827,-5.4321,-5.1021,-4.9607,-4.5058,-3.8251,-3.3583,-2.8918,-2.4714,0.0,-2.4646,-2.3961,-2.3961,-2.3961,0.0,-2.3332,-2.3254,-2.3193,-2.2334,-2.226,-2.2851,-2.494,-2.5719,-2.6342,0.0,0.0,-2.8294,-3.3463,0.0,0.0,0.0,0.0,0.0,0.0,0.0,0.0,0.0,0.0,0.0,0.0,0.0,0.0,0.0,0.0,0.0,0.0,0.0,0.0,0.0,0.0,0.0,-2.2029,-2.0035,-1.6721,-1.2048,-0.9444,-0.6637,-0.3827,-0.1211,0.0,0.0,0.0,0.1601,0.5116,0.5523,0.7453,1.0854,1.1235,1.1599,1.2144,1.2101,1.1852,1.1789,1.3008,1.3501,1.3427,1.4254,1.4667,1.4861,1.4861,1.4578,1.4056,-7.4832,-7.4904,-7.488,-7.4963,-7.6056,-7.6866,-7.6366,-7.4545,-7.2671,-7.0975,-6.6381,-6.2735,-6.1739,-5.8271,-5.5278,-5.3245,-5.1927,-5.1165,-5.1011,-5.2263,-5.2834,-5.2658,-5.7091,-5.8522,-5.649,-6.0027,-6.1673,-6.1291,-6.2446,-6.2888,-6.2393,-6.2056,-6.1569,-6.088,-5.871,-5.4458,-4.883,-4.8488,-4.3491,-3.5592,-3.0285,-2.6727,0.0,0.0,-2.275,-2.3372,0.0,-2.2434,-2.1977,-1.9798,-1.8841,-1.8285,-1.7137,-1.7091,-1.7709,-1.9221,-1.9863,-2.0367,-2.2178,-2.1635,0.0,-2.6114,-2.6021,0.0,-3.3052,0.0,-3.4327,0.0,0.0,0.0,0.0,0.0,0.0,0.0,0.0,0.0,0.0,-4.086,0.0,0.0,0.0,0.0,0.0,0.0,-2.6121,-2.2765,-2.022,-1.6911,0.0,-0.9644,-0.6838,-0.443,-0.1413,0.0,0.0,0.0,0.2201,0.6684,0.6922,0.9457,1.3831,1.4012,1.3987,1.3746,1.365,1.3376,1.3311,1.4013,1.431,1.4398,1.4841,1.4635,1.4205,1.4205,1.3926,1.3222,-7.4086,-7.4325,-7.4534,-7.4985,-7.5958,-7.6167,-7.4571,-7.2942,-7.0897,-6.7959,-6.4308,-6.1441,-5.9805,-5.5599,-5.2736,-5.2736,-5.0384,-4.9533,-5.0737,-5.1434,-5.1703,-5.1487,-5.3444,-5.4437,-5.4334,-5.6792,-5.8867,-6.0238,-6.1409,-6.201,-6.2188,-6.0714,-6.0373,-6.088,-5.9285,-5.4671,-4.8079,-4.6173,-4.0457,-3.2408,-2.7708,-2.5617,-2.4988,-2.1177,-2.0764,-2.2068,-2.0088,-1.9163,-1.8616,-1.6637,-1.5235,-1.4229,-1.4632,-1.4433,-1.403,-1.4626,-1.5235,-1.5777,-1.6623,-1.6914,-1.7764,-2.0814,-2.1585,0.0,0.0,0.0,-2.8234,0.0,0.0,0.0,0.0,0.0,0.0,0.0,0.0,0.0,0.0,0.0,-4.0059,0.0,0.0,0.0,0.0,-3.2444,-2.8608,-2.3759,-2.0919,-1.7486,0.0,-0.984,-0.7032,-0.4837,-0.1816,0.0,0.0,0.0,0.2608,0.7926,0.7339,0.9913,1.5054,1.4404,1.3777,1.3479,1.4184,1.4253,1.3876,1.497,1.5221,1.4667,1.4796,1.4186,1.3112,1.3112,1.2651,1.2172,-7.3312,-7.3927,-7.4421,-7.4788,-7.5241,-7.506,-7.3938,-7.1268,-6.835,-6.565,-6.1002,-5.7013,-5.404,-5.1435,-4.9908,-4.9908,-4.9591,-4.9608,-4.9954,-5.1379,-5.0888,-4.8095,-5.1021,-5.1171,-4.7937,-5.2473,-5.4786,-5.4474,-5.7453,-5.8873,-5.8967,-5.8658,-5.8784,-5.9165,-5.7093,-5.2641,-4.655,-4.408,-3.7775,-2.9555,-2.7475,-2.5858,-2.4207,0.0,-2.1072,-2.0676,-1.8403,-1.6864,-1.6029,-1.4651,-1.3051,-1.1244,-1.0258,-0.926,-0.8654,-0.8654,-0.946,-1.0053,-0.9392,-0.9977,-1.1106,-1.3327,-1.3638,-1.4864,0.0,0.0,0.0,0.0,0.0,0.0,0.0,0.0,0.0,0.0,0.0,0.0,0.0,0.0,0.0,-4.0509,0.0,0.0,-3.713,-3.2549,-2.8284,-2.5503,-2.1311,0.0,0.0,0.0,-0.8515,-0.5436,-0.2622,-0.0808,0.0,0.0,0.2608,0.7926,0.7784,1.0568,1.5656,1.5499,1.5413,1.5048,1.5169,1.5261,1.497,1.52,1.5096,1.4796,1.4341,1.3465,1.2411,1.2411,1.2389,1.2172,-7.2439,-7.4163,-7.4937,-7.3349,-7.2866,-7.2196,-7.067,-6.9013,-6.6761,-6.345,-5.9082,-5.5659,-5.4068,-5.1266,-4.9549,-4.9748,-4.9951,-5.0237,-5.0818,-5.0384,-4.9589,-4.8076,-4.8516,-4.7602,-4.5203,-4.8602,-5.0981,-5.2009,-5.4516,-5.6531,-5.8,0.0,0.0,0.0,0.0,-5.3265,-4.6566,-4.0694,-3.503,-2.9775,-2.7668,-2.5482,0.0,-2.107,-1.8986,-1.7005,-1.485,-1.4054,-1.3854,-1.1919,-1.0096,-0.8661,-0.7901,-0.7083,-0.6254,-0.6657,-0.7059,-0.7261,-0.6858,-0.7059,-0.7637,-0.872,-0.8894,-0.9811,-1.3907,-1.4772,-1.4591,0.0,-1.6842,-1.79,0.0,0.0,0.0,0.0,0.0,0.0,-3.7436,-3.8408,-3.904,0.0,-3.6251,0.0,0.0,-3.0995,-2.5692,-2.4492,-2.0918,0.0,0.0,0.0,-0.8434,-0.4577,-0.2611,-0.1009,0.0,0.0605,0.3412,0.8371,0.9216,1.2012,1.6342,1.6172,1.5893,1.5723,1.5594,1.5493,1.5411,1.5221,1.4852,1.4285,1.3441,1.2796,1.2172,1.2172,1.2172,1.2172,-7.1695,-7.4288,-7.5252,-7.1464,-7.0175,-6.8763,-6.6248,-6.6121,-6.4844,-6.0974,-5.7625,-5.5682,-5.5953,-5.278,-5.0597,-5.1005,-5.0682,-5.1033,-5.2152,-4.9308,-4.8097,-4.8955,-4.5884,-4.4124,-4.3851,-4.5086,-4.7546,-5.0967,-5.2297,-5.4857,0.0,0.0,0.0,0.0,0.0,0.0,0.0,-3.7151,-3.2377,-3.0805,-2.7536,-2.4718,-2.2069,-1.8963,-1.5773,-1.285,-1.0918,-1.1082,-1.1698,-0.9158,-0.7518,-0.6474,-0.7134,-0.6502,-0.5853,-0.6659,-0.6657,-0.6455,-0.6455,-0.6455,-0.6254,-0.5443,-0.5443,-0.6019,-0.7672,-0.8029,-0.8029,-0.8029,-1.0221,-1.0969,0.0,0.0,0.0,0.0,0.0,0.0,-3.2983,-3.4637,-3.5935,-3.585,0.0,0.0,0.0,0.0,0.0,0.0,0.0,0.0,0.0,0.0,-0.779,-0.2952,-0.2001,-0.1009,0.0,0.1813,0.4622,0.8828,1.104,1.3848,1.6864,1.6138,1.5859,1.5811,1.5554,1.5241,1.5221,1.4813,1.4165,1.3493,1.255,1.2172,1.2172,1.2172,1.2172,1.2172,-7.1999,-7.2964,-7.3088,-7.1192,-6.9524,-6.706,-6.3022,-6.1098,-5.9385,-5.7106,-5.5597,-5.4258,-5.2875,-5.204,-5.1306,-5.1025,-5.1429,-5.1507,-5.1398,-4.9352,-4.7308,-4.5574,-4.3355,-4.1152,-3.8939,-4.2324,-4.5552,-4.8619,-5.1718,-5.5207,0.0,0.0,0.0,0.0,0.0,0.0,-4.1173,-3.5249,0.0,-2.7838,-2.5291,-2.3016,-2.0984,-1.6842,-1.4327,-1.2339,-0.9528,-0.851,-0.8354,-0.8709,-0.7509,-0.5915,-0.6482,-0.5861,-0.5049,-0.5251,-0.5853,-0.5848,-0.3228,-0.4236,-0.4841,-0.0202,-0.0202,-0.0805,0.0601,0.1001,0.1001,0.1001,-0.1197,-0.3581,-0.516,0.0,0.0,0.0,0.0,0.0,-2.4218,-2.6545,-2.8365,-2.8233,0.0,-2.5826,0.0,0.0,0.0,0.0,0.0,0.0,0.0,0.0,-0.8688,0.0,-0.1612,0.0,0.0,0.0,0.5427,0.8828,1.104,1.3848,1.6864,1.6247,1.5906,1.5676,1.5235,1.495,1.4826,1.414,1.3517,1.2928,1.2361,1.2172,1.2172,1.2172,1.2172,1.2172,-7.282,-7.368,-7.325,-6.936,-6.7683,-6.5084,-6.0123,-5.7669,-5.6453,-5.6319,-5.602,-5.5735,-5.5111,-5.4018,-5.311,-5.2471,-5.175,-5.0923,-4.9773,-4.7347,-4.5096,-4.3011,-4.1169,-3.9468,-3.7687,-3.9503,-4.259,-4.6819,-4.8539,-5.228,0.0,0.0,0.0,-5.6768,0.0,-4.6681,0.0,0.0,0.0,-2.6915,-2.3145,-2.0173,-1.7559,-1.5518,-1.2823,-0.999,-0.8742,-0.7563,-0.7,-0.7581,-0.6936,-0.6103,-0.654,-0.5083,-0.3633,-0.3835,-0.3228,-0.2016,-0.0807,-0.121,-0.121,0.1412,0.1412,0.121,0.2821,0.3223,0.3424,0.3825,0.2818,0.08,-0.2354,-0.656,0.0,0.0,0.0,0.0,0.0,0.0,-2.1321,0.0,0.0,0.0,0.0,0.0,0.0,0.0,0.0,-1.8725,-0.9573,0.0,-0.7865,0.0,0.0,0.0,0.2418,0.0,0.8028,1.1035,1.3444,1.526,1.6474,1.6282,1.5763,1.5354,1.5087,1.4584,1.4247,1.3548,1.2928,1.255,1.2361,1.2172,1.2172,1.2172,1.2172,1.2172,-7.2701,-7.3809,-7.3153,-6.7724,-6.581,-6.3593,-5.8774,-5.6326,-5.5247,-5.6208,-5.6678,-5.7093,-5.7634,-5.5552,-5.4018,-5.3523,-5.1528,-4.9731,-4.8118,-4.5445,-4.3262,-4.1724,-3.9988,-3.8691,-3.7967,-3.7782,-4.0169,-4.4824,0.0,0.0,0.0,0.0,0.0,0.0,0.0,0.0,0.0,0.0,-2.6747,-2.4867,-2.046,-1.7045,-1.4147,-1.3689,-1.1005,-0.7737,-0.7779,-0.742,-0.6428,-0.6011,-0.6162,-0.651,-0.596,-0.4285,-0.2621,-0.2621,-0.0807,0.121,0.121,0.1613,0.2017,0.2824,0.3025,0.3225,0.4632,0.4833,0.5235,0.6034,0.5429,0.3791,0.0584,-0.1355,0.0,0.0,0.0,0.0,0.0,0.0,-1.4673,0.0,0.0,0.0,-2.1822,0.0,0.0,0.0,0.0,-1.7127,-0.8308,-0.8696,-0.6887,0.0,0.0,0.1402,0.4006,0.0,1.0631,1.2846,1.5459,1.6474,1.6083,1.6049,1.575,1.5009,1.4874,1.4347,1.3441,1.2968,1.255,1.2172,1.2172,1.2172,1.2172,1.2356,1.2544,1.2544,-7.0261,-7.0723,-7.0678,-6.7708,-6.4911,-6.27,-6.1039,-5.8276,-5.5892,-5.4915,-5.5133,-5.5677,-5.6181,-5.4081,-5.2345,-5.1868,-4.9668,-4.8011,-4.7455,-4.5052,-4.3696,-4.3626,-4.0895,-3.925,-3.8894,-3.8334,-3.959,0.0,0.0,-4.705,0.0,0.0,0.0,0.0,0.0,0.0,0.0,-2.6911,-2.2507,-1.908,-1.6306,-1.4146,-1.1801,-0.9565,-0.7902,-0.6904,-0.6853,-0.6632,-0.6221,-0.4351,-0.4968,-0.619,-0.4267,-0.3433,-0.2822,-0.0807,0.0,0.0605,0.2419,0.2619,0.322,0.7251,0.7854,0.8052,1.007,1.0476,1.0476,1.0676,0.8654,0.5994,0.2936,0.2371,0.159,0.0,0.0,0.0,0.0,0.0,-0.7919,-0.7582,0.0,0.0,-1.5597,-1.8287,0.0,0.0,-2.1353,-2.0299,-1.0919,-0.9633,-0.7482,-0.3767,-0.0983,0.0589,0.1385,0.8382,1.2243,1.2846,1.5068,1.6083,1.6076,1.594,1.5602,1.4874,1.4341,1.3436,1.2378,1.2367,1.2172,1.2172,1.2172,1.2172,1.2361,1.3299,1.3481,1.367,-6.9893,-6.968,-6.8536,-6.4726,-6.3593,0.0,0.0,-5.8306,-5.7028,-5.5244,-5.5802,-5.5972,-5.4923,-5.3842,-5.244,-5.0216,-4.8226,-4.6616,-4.5293,-4.3862,-4.2778,-4.1749,-4.1063,-4.0363,-3.9813,-3.9625,-4.0075,0.0,0.0,0.0,0.0,0.0,0.0,0.0,0.0,-3.0547,-2.6911,-2.1274,-1.7799,-1.6134,-1.2947,-1.0951,-0.96,-0.8621,-0.7591,-0.6619,-0.6594,-0.5759,-0.4317,-0.2875,-0.3287,-0.4312,-0.2037,-0.0405,0.1008,0.2417,0.3426,0.4235,0.5645,0.6045,0.6243,0.8062,0.8665,0.9464,1.0881,1.1282,1.1483,1.2089,1.1473,1.0236,0.8956,0.7559,0.6371,0.5367,0.0,0.0,0.0,0.0,0.0,-0.0796,0.0,-0.4862,0.0,-1.3468,0.0,0.0,0.0,-1.8853,-1.0179,-0.8557,0.0,-0.3739,0.0,0.4947,0.5578,1.0812,1.4054,1.5254,1.6268,1.6474,1.6076,1.5723,1.475,1.3765,1.3816,1.3157,1.2361,1.3487,1.3676,1.311,1.311,1.3487,1.4052,1.3858,1.4046,1.4805,-6.9221,0.0,-6.6725,0.0,-6.2719,-6.1922,-5.8827,-5.7917,-5.7101,-5.5426,-5.526,-5.4849,-5.34,-5.2272,-5.0812,-4.8488,-4.6558,-4.4992,-4.355,-4.3071,-4.224,-4.113,-4.1437,0.0,-4.0757,-4.0076,-3.9511,-3.8689,-4.0895,0.0,0.0,0.0,0.0,0.0,-2.7549,-2.4469,-2.1256,-1.6309,-1.3706,-1.2795,-1.0304,-0.8675,-0.7666,-0.7812,-0.7181,-0.6373,-0.5771,-0.4528,-0.2461,-0.0409,0.0,-0.0204,0.1424,0.2633,0.403,0.5637,0.6852,0.7666,0.8266,0.8869,0.907,0.907,0.9874,1.0877,1.1683,1.1683,1.2084,1.269,1.3084,1.3284,1.3284,1.2002,1.0965,1.044,0.0,0.0,0.0,0.5834,0.0,0.3599,0.1778,-0.0392,-0.2933,-0.8576,0.0,0.0,0.0,0.0,-0.8323,-0.6511,0.0,0.0,0.0,0.0,0.8738,1.2803,1.5645,1.68,1.6998,1.68,1.6397,1.5805,1.5022,1.4062,1.4109,1.3676,1.311,1.4617,1.4805,1.4046,1.4046,1.4617,1.5181,1.4798,1.4986,1.5744,-6.7683,-6.6398,-6.5105,-6.3633,-6.2937,-6.1862,-5.9738,-5.7424,-5.5506,-5.5044,-5.2702,-5.1377,-5.1829,-4.8908,-4.6934,-4.6789,-4.4479,-4.3001,-4.2827,-4.2861,-4.2844,0.0,0.0,-4.1521,-4.1504,-3.9623,-3.731,-3.4168,0.0,0.0,-3.0093,0.0,-3.0115,-2.7157,-2.3862,-1.9757,-1.5221,-1.2642,-1.0274,-0.83,-0.8375,-0.7733,-0.6649,-0.6769,-0.6739,-0.6226,-0.4185,-0.2712,-0.1239,0.307,0.5304,0.6309,0.6251,0.5633,0.5436,0.8661,0.9669,0.9669,0.9669,1.0476,1.1282,1.1282,1.2084,1.2884,1.289,1.289,1.289,1.289,1.3684,1.4476,1.4476,1.5267,1.5049,1.2421,0.0,0.0,0.0,0.8821,0.0,0.4504,0.3126,0.1956,0.0981,-0.3289,0.0,0.0,0.0,0.0,0.0,0.0,0.0,0.4465,0.7755,0.0,0.8722,1.3696,1.6206,1.6643,1.7028,1.7223,1.7208,1.7068,1.6539,1.6152,1.5437,1.5181,1.5181,1.5181,1.5181,1.5181,1.5181,1.5181,1.5368,1.6306,1.6681,1.6868,-6.5249,-6.4209,-6.3157,-6.2175,-6.1993,-6.151,-6.0533,-5.8344,-5.6399,-5.4789,-5.1993,-4.9593,-4.8177,-4.7307,-4.6095,0.0,-4.3421,-4.3001,0.0,-4.2861,-4.2861,-4.2861,-4.255,-4.1582,-4.0138,-3.9291,-3.6773,-3.2438,0.0,0.0,0.0,-2.9141,-2.5967,-2.0694,-1.8616,-1.5991,-1.3058,-1.0763,-0.9596,-0.8789,-0.7558,-0.6952,-0.6749,-0.6668,-0.5597,-0.4139,-0.2662,0.0,0.3043,0.6065,0.7679,0.8892,1.0271,0.9661,0.8457,1.0275,1.0275,0.987,1.0676,1.1082,1.1282,1.1282,1.2084,1.289,1.289,1.289,1.3084,1.3884,1.4277,1.4676,1.5472,1.5864,1.5857,1.485,1.485,0.0,1.3843,0.0,1.1211,1.0149,0.8353,0.7159,0.6768,0.3555,0.0,0.0,0.0,0.0,0.0,0.0,0.0,0.0,0.944,0.0,1.082,1.4275,1.6293,1.7028,1.7216,1.7352,1.724,1.6751,1.6266,1.5772,1.5995,1.5744,1.5368,1.6681,1.6868,1.6306,1.6306,1.6681,1.7242,1.6868,1.7055,1.7803,-6.5114,-6.3329,-6.1926,-6.1443,-6.1596,-6.1442,-6.0786,-5.8278,-5.5977,-5.4418,-5.0984,-4.8127,-4.6405,-4.6188,0.0,-4.3337,-4.3156,-4.2981,-4.2795,-4.2048,-4.1457,-4.1457,-4.0541,-3.926,-3.7593,-3.7207,0.0,-2.9824,-2.9735,-2.8224,-2.5142,-2.4809,-2.2004,-1.7042,-1.5812,-1.4036,-1.1979,-1.024,-0.9244,-0.8828,-0.7805,-0.6741,-0.5866,-0.5809,-0.4118,-0.1843,0.0,0.2825,0.5834,0.845,1.0062,1.1077,1.2484,1.1884,1.1077,1.1683,1.1478,1.1077,1.1683,1.1884,1.1884,1.1884,1.2484,1.309,1.3484,1.3484,1.3884,1.4875,1.5472,1.587,1.6665,1.7062,1.7261,1.7261,1.7261,1.7261,1.7261,0.0,1.48,0.0,0.0,0.0,0.0,0.8109,0.669,0.0,0.0,0.0,0.0,0.0,0.0,0.9191,1.239,1.4073,1.378,1.542,1.6825,1.8005,1.8192,1.8107,1.8128,1.7681,1.7215,1.6532,1.7124,1.6868,1.6494,1.7616,1.7803,1.7242,1.7242,1.7616,1.8176,1.7429,1.7616,1.8176,-6.636,-6.3524,-6.1112,0.0,-6.1569,0.0,-6.0938,-5.736,-5.4667,-5.4372,-5.0057,-4.6815,-4.6385,-4.5549,-4.4483,-4.3452,0.0,0.0,0.0,-4.0503,-3.9148,-3.9132,-3.6889,-3.5304,-3.4381,-3.3835,-3.1049,-2.6221,-2.225,-1.9798,-1.8955,-1.9219,-1.8412,-1.651,-1.5302,-1.3515,-1.1739,-1.05,-0.9461,-0.8419,-0.8276,-0.6706,-0.4306,-0.4164,-0.2268,0.0606,0.3661,0.5676,0.7239,1.0271,1.2084,1.289,1.289,1.289,1.289,1.289,1.289,1.289,1.289,1.289,1.289,1.3084,1.3084,1.3484,1.4669,1.4875,1.5068,1.6062,1.7062,1.7672,1.787,1.8663,1.9256,1.9256,1.9256,1.9256,1.9256,1.9256,1.7924,0.0,0.0,0.0,1.1309,1.1115,1.2131,0.0,0.0,0.0,0.0,0.0,0.8603,1.5969,1.605,1.6328,1.715,1.6724,1.7396,1.8964,1.9531,1.9623,1.9463,1.9285,1.8822,1.8444,1.8257,1.8176,1.8176,1.8176,1.8176,1.8176,1.8176,1.8176,1.8176,1.8176,1.8176,1.8176,0.0,0.0,-6.1048,-6.139,-6.1395,-6.153,-6.1666,-5.8147,-5.5386,-5.5205,-5.1057,-4.7691,-4.6385,-4.5822,-4.493,-4.3591,-4.3359,-4.229,-4.0452,-3.9578,-3.8462,-3.6651,-3.6001,-3.4717,-3.2831,-3.1659,-2.8404,-2.326,-2.1622,-2.041,-1.9581,-1.886,-1.7968,-1.6773,-1.4837,-1.3214,-1.2053,-1.0332,-0.9341,-0.8911,-0.6758,-0.5669,-0.4796,-0.289,-0.0205,0.3254,0.4855,0.7459,1.0471,1.1884,1.269,1.289,1.289,1.289,1.289,1.289,1.289,1.289,1.289,1.289,1.3084,1.3884,1.5658,1.7422,1.8994,1.841,1.7825,1.8813,1.8244,1.787,1.8861,1.9058,1.9256,1.9256,1.9256,1.9256,1.9256,1.9256,1.9026,0.0,1.7924,1.7478,1.6565,1.6363,1.5649,0.0,0.0,0.0,1.3239,1.1475,1.2289,1.6729,1.6124,1.6328,1.6986,1.6958,1.7619,1.8769,1.9594,1.969,1.9268,1.8847,1.8641,1.8444,1.8257,1.8176,1.8176,1.8176,1.8176,1.8176,1.8176,1.8176,1.8176,1.8176,1.8176,1.8176,-6.2275,-6.1466,-6.0858,-6.1363,-6.1433,-6.112,-6.0625,-5.7629,-5.5135,-5.4096,-5.0782,-4.7862,-4.6385,-4.5898,-4.4952,-4.3641,-4.2379,-4.1035,-3.9511,-3.7408,-3.5529,-3.4219,-3.312,-3.15,-2.9347,-2.8414,-2.5661,-2.1046,-2.0248,-1.9237,-1.838,-1.8321,-1.7455,-1.6201,-1.4284,-1.3053,-1.1948,-0.9281,-0.8249,-0.8032,-0.5446,-0.333,-0.1657,-0.041,0.2444,0.5883,0.7062,0.9063,1.1087,1.2084,1.3084,1.3684,1.3684,1.3884,1.4277,1.4277,1.4077,1.3684,1.4277,1.4869,1.585,1.7415,1.8789,2.0158,2.1539,2.096,2.0576,2.1566,2.1183,2.0808,2.1201,2.062,2.0004,1.9919,1.9061,1.8427,1.8427,1.8356,1.834,1.8419,1.8427,1.8192,1.7711,1.7703,1.678,1.4721,1.4564,0.0,1.3946,1.4171,1.4999,1.6437,1.6241,1.6496,1.7803,1.8367,1.8753,1.8963,1.9526,1.9483,1.8822,1.8641,1.8403,1.8322,1.8217,1.8176,1.8176,1.8176,1.8176,1.8176,1.8176,1.8176,1.8176,1.8176,1.8176,1.8176,-6.3279,-6.1766,-6.0558,-6.0917,-6.0736,-5.9851,-5.8505,-5.619,-5.4096,-5.2367,-4.9716,-4.7569,-4.6383,-4.5762,-4.4856,-4.3156,-4.0589,-3.9118,-3.9118,-3.4667,-3.2024,-3.16,-2.9679,-2.7751,-2.5994,-2.5231,-2.3124,-1.9184,-1.8639,-1.7819,-1.6904,-1.7675,-1.6859,-1.5222,-1.3878,-1.2629,-1.1217,-0.8203,-0.6709,-0.6277,-0.3733,-0.0823,0.2247,0.2651,0.5072,0.8266,0.9275,1.0079,1.0881,1.1884,1.3284,1.4476,1.4676,1.5273,1.6062,1.6268,1.5864,1.5665,1.6261,1.7825,1.9577,2.1521,2.2293,2.2683,2.3635,2.3257,2.3082,2.4064,2.4074,2.388,2.388,2.2321,2.1076,2.065,1.9171,1.7751,1.7343,0.0,1.7589,1.7358,1.7566,1.7558,1.7343,1.7335,1.7068,1.6328,1.6833,1.6796,1.614,1.6626,1.6641,1.6126,1.6248,1.7154,1.8671,1.9765,1.988,1.9012,1.9336,1.9129,1.8412,1.8412,1.8322,1.8176,1.8176,1.8176,1.8176,1.8176,1.8176,1.8176,1.8176,1.8176,1.8176,1.8176,1.8176,1.8176,-6.1513,-6.0048,-5.8726,-5.898,-5.7353,-5.5931,-5.588,-5.3428,-5.1626,-5.1689,-4.873,-4.6494,-4.6385,-4.5477,-4.3841,-4.1196,-3.8298,-3.6483,-3.6483,-3.378,-3.1382,-2.9258,-2.844,-2.7658,-2.6919,-2.4401,-2.1448,-1.8231,-1.8201,-1.7588,-1.6592,-1.6749,-1.6134,-1.4747,-1.38,-1.1697,-0.8725,-0.753,-0.585,-0.3733,-0.0616,0.1022,0.1837,0.4862,0.7065,0.8869,0.8869,1.0275,1.1884,1.2484,1.3484,1.4676,1.5074,1.5671,1.6268,1.7268,1.8631,1.9602,1.8418,2.0166,2.2702,2.4452,2.5443,2.6375,2.714,2.6343,2.5387,2.5589,2.4427,2.3648,2.3648,2.3262,2.2557,2.1035,2.128,2.0747,1.7931,0.0,1.982,1.8704,1.8904,1.8847,1.8319,1.7915,1.7269,1.6726,1.674,1.6733,1.6494,1.7086,1.7273,1.725,1.7273,1.7554,1.8493,1.8936,1.8919,1.8641,1.8886,1.8811,1.8217,1.8217,1.82,1.8176,1.8176,1.8176,1.8176,1.8176,1.8176,1.8176,1.8176,1.8176,1.8176,1.8176,1.8176,1.8176,-5.9589,-5.7894,-5.6585,-5.6972,-5.5926,-5.4717,-5.3838,-5.2468,-5.1109,-4.961,-4.7797,-4.5987,-4.4182,-4.3336,-4.176,-3.8712,-3.5944,-3.4377,-3.4003,-3.173,-2.9692,-2.8632,-2.7581,-2.594,-2.3681,-2.1895,-1.979,-1.7334,-1.7334,-1.6762,-1.5815,-1.5738,-1.43,-1.187,-1.1028,-0.8714,-0.5168,-0.3099,-0.1443,0.0205,0.3052,0.4462,0.5268,0.7065,0.8668,0.9878,1.0476,1.1483,1.2684,1.3084,1.4283,1.5466,1.5783,1.7378,1.9175,1.9394,2.0446,2.1762,2.2721,2.4279,2.6001,2.7042,2.7795,2.8116,2.8442,2.7616,2.6862,2.6862,2.6284,2.5895,2.5895,2.5126,2.4251,2.3354,2.2713,0.0,2.0518,2.1048,2.1086,1.933,1.9347,1.8945,1.7554,1.7358,1.6951,1.6688,1.6868,1.7055,1.7055,1.7616,1.7803,1.7803,1.7898,1.8134,1.8306,1.851,1.851,1.8298,1.8404,1.8363,1.8176,1.8176,1.8176,1.8176,1.8176,1.8176,1.8176,1.8176,1.8176,1.8176,1.8176,1.8176,1.8176,1.8176,1.8913,1.9648,-5.761,-5.6044,-5.4728,-5.4818,-5.418,-5.3108,-5.1666,-5.1221,-5.0043,-4.7299,-4.638,-4.4966,-4.1746,-4.0911,-3.9481,-3.6482,-3.4362,-3.2905,-3.1786,-2.9924,-2.8812,-2.8428,-2.6906,-2.4345,-2.0704,-1.9815,-1.8412,-1.6469,-1.5851,-1.5084,-1.4352,-1.3637,-1.1592,-0.8566,-0.7673,-0.516,-0.1649,0.0819,0.2651,0.4067,0.6065,0.7462,0.8266,0.8869,0.9677,1.048,1.1254,1.2063,1.2879,1.3211,1.48,1.6786,1.7216,1.9378,2.1966,2.1522,2.2433,2.384,2.616,2.7529,2.8248,2.8753,2.888,2.8818,2.8359,2.7913,2.7715,2.7715,2.7541,2.7529,2.7901,2.6771,2.5724,2.5408,0.0,2.3462,2.2678,2.293,2.2546,2.0889,2.0363,1.963,1.7973,1.7421,1.7055,1.7055,1.7429,1.7616,1.7616,1.7989,1.8176,1.8176,1.8314,1.8322,1.8176,1.8314,1.8314,1.8176,1.8176,1.8176,1.8176,1.8176,1.8176,1.8176,1.8176,1.8363,1.8549,1.8363,1.8549,1.8913,1.8549,1.8549,1.8549,1.8549,1.9648,2.0936,-5.5761,-5.448,-5.3187,-5.2593,-5.0965,-4.9525,-4.9113,-4.8361,-4.7132,-4.5111,-4.4122,-4.266,-4.0246,-3.9498,-3.7908,-3.5028,-3.4231,-3.2758,-3.0496,-3.0128,-2.9363,-2.7839,-2.5527,-2.3285,-2.0916,-1.967,-1.8067,-1.6327,-1.3863,-1.244,-1.2242,-0.9791,-0.7588,-0.6004,-0.496,-0.2468,0.1226,0.245,0.4267,0.6259,0.7465,0.8065,0.8266,0.9275,0.9681,0.9669,0.9782,1.0803,1.2253,1.2427,1.5347,1.8753,1.9154,2.1019,2.2974,2.3335,2.4748,2.6298,2.6488,2.7843,2.8942,2.8669,2.8607,2.8346,2.7694,2.7449,2.7449,2.7449,2.708,2.7069,2.7989,2.7621,2.6902,2.6006,0.0,0.0,2.338,2.4811,2.5503,2.3849,2.2576,2.1665,2.149,1.9462,1.8176,1.8176,1.8176,1.8176,1.8176,1.8176,1.8176,1.8176,1.8184,1.8184,1.8176,1.8184,1.8184,1.8176,1.8176,1.8176,1.8176,1.8176,1.8176,1.8176,1.8176,1.8735,1.9488,1.8549,1.9285,2.077,1.9851,1.9674,1.9674,1.9674,2.0214,2.1121,-5.4372,-5.2973,-5.1488,-5.0908,-5.0118,-4.9426,-4.9032,-4.8672,-4.7869,-4.6304,-4.4785,-4.2654,-3.9609,-3.7821,-3.5714,-3.2953,-3.2326,-3.146,-3.0128,-2.9758,-2.8548,-2.631,-2.4625,-2.2469,-1.9266,-1.8729,-1.6835,-1.3649,-1.27,-1.1125,-0.8707,-0.7632,-0.5359,-0.2276,-0.1439,0.1224,0.5264,0.6238,0.7411,0.8795,0.9392,0.9392,0.9591,0.9994,0.9994,1.018,1.067,1.1442,1.2252,1.4667,1.6401,1.8159,2.0286,2.2765,2.4786,2.6216,2.6899,2.7144,2.7144,2.7836,2.8657,2.8013,2.7952,2.7694,2.7244,2.6989,2.6807,2.7536,2.716,2.716,2.8082,2.8446,2.837,2.7963,0.0,2.8604,2.7386,2.8013,2.7895,2.6048,2.532,2.4602,2.3321,2.1306,2.001,2.001,1.8913,1.8176,1.8176,1.8176,1.8176,1.8176,1.8176,1.8176,1.8176,1.8176,1.8176,1.8176,1.8176,1.8176,1.8176,1.8922,1.9108,1.9108,1.9657,2.0214,2.0594,2.0214,2.0399,2.1149,2.2172,2.142,1.9869,2.1253,2.2327,2.277,-5.2396,-5.1812,-5.0867,-5.0178,-4.9972,-4.9895,-4.9489,-4.9178,-4.8513,-4.675,-4.4718,-4.2178,-3.8579,-3.6097,-3.3901,-3.1853,-3.1297,-3.0903,-3.07,-2.9524,-2.7984,-2.6067,-2.4217,-2.2048,-1.9167,-1.7523,-1.5214,-1.2064,-1.0466,-0.827,-0.5847,-0.4777,-0.2688,0.0413,0.1639,0.4064,0.7053,0.8407,0.9384,1.018,1.0149,1.0136,1.0132,1.0102,1.0089,1.008,1.0764,1.1906,1.3268,1.5664,1.7756,1.9682,2.1946,2.4277,2.6329,2.7779,2.7682,2.7401,2.7317,2.7621,2.7719,2.7157,2.7109,2.6878,2.6699,2.6482,2.6652,2.7365,2.7365,2.7546,2.8474,2.8822,2.9002,2.9362,2.9734,2.9913,2.9913,2.9913,2.9362,2.8076,2.7341,2.6423,2.515,2.3137,2.2034,2.2034,2.0196,1.8913,1.8176,1.8176,1.8176,1.8176,1.8176,1.8176,1.8176,1.8176,1.8363,1.8735,1.8735,1.8922,1.9099,1.9851,2.0223,2.0223,2.077,2.151,2.2238,2.1869,2.2596,2.3698,2.4929,2.4161,2.2596,2.4194,2.5079,2.5138,-4.9967,-5.1049,-5.158,-5.0631,-5.043,-5.0317,-5.0249,-5.0023,-4.8649,-4.5772,-4.3683,-4.0823,-3.6591,-3.4449,-3.28,-3.1853,-3.1677,-3.1677,-3.1677,-2.9079,-2.7684,-2.7433,-2.4085,-2.1989,-2.1379,-1.6062,-1.2995,-1.2179,-0.6758,-0.3898,-0.3932,-0.0622,0.1034,0.1844,0.45,0.59,0.6657,0.8873,0.9677,0.9669,0.9579,0.9542,0.953,0.944,0.9408,0.9395,0.931,1.2021,1.5533,1.5228,1.9159,2.4191,2.414,2.5708,2.7365,2.7099,2.722,2.7365,2.7099,2.6664,2.63,2.63,2.63,2.6106,2.5742,2.6276,2.7003,2.7003,2.7365,2.8101,2.9002,2.8835,2.8835,2.9734,2.9913,2.9913,2.9913,2.9913,2.9913,2.9913,2.8256,2.6966,2.6966,2.515,2.4054,2.4054,2.2218,2.0196,1.8363,1.8176,1.8176,1.8176,1.8176,1.8176,1.8176,1.8176,1.8735,1.9674,1.9674,2.0223,2.114,2.114,2.114,2.114,2.114,2.2606,2.4796,2.3687,2.5684,2.895,2.8025,2.8013,2.8373,2.8373,2.8385,2.8411,-5.0689,-5.1615,-5.2048,-5.1184,-5.0908,-5.0743,-5.0632,-4.9717,-4.8693,-4.7617,-4.4242,-4.1231,-3.8944,-3.5353,-3.2988,-3.2232,-3.1277,-3.0316,-2.892,-2.7668,-2.6401,-2.5523,-2.297,-2.0282,-1.7523,-1.5153,-1.2014,-0.7578,-0.5759,-0.3108,0.0,0.1041,0.2693,0.5162,0.595,0.7119,0.8866,1.1116,1.125,1.0067,1.1518,1.109,0.9743,0.9524,0.97,1.0642,1.1857,1.353,1.5814,1.9242,2.1655,2.3383,2.556,2.6529,2.7135,2.7051,2.7087,2.6953,2.6687,2.6833,2.7196,2.647,2.63,2.6288,2.6458,2.6821,2.7365,2.8269,2.8462,2.8474,2.9554,2.9554,2.9554,2.9913,2.9913,2.9913,2.9913,2.9913,2.9913,2.9913,2.9362,2.8989,2.8989,2.7341,2.606,2.606,2.4054,2.2228,2.1315,2.1325,2.1675,2.2198,2.2198,2.2739,2.3817,2.0742,1.948,1.9674,2.15,2.1869,2.114,2.2964,2.3158,2.2248,2.4075,2.5343,2.6423,2.7148,2.8218,2.9681,3.0959,3.0173,2.8578,3.02,3.016,2.9283,-5.1126,-5.1818,-5.2163,-5.1868,-5.119,-5.1014,-5.1101,-4.9531,-4.8243,-4.7541,-4.3634,-4.0352,-3.8429,-3.5182,-3.2974,-3.2232,-3.1164,-2.9896,-2.8369,-2.6114,-2.4568,-2.376,-2.0422,-1.7953,-1.6373,-1.2631,-0.8881,-0.5339,-0.3911,-0.1447,0.2081,0.2276,0.3705,0.6149,0.7708,0.9059,1.0206,1.22,1.2121,1.1144,1.1802,1.1755,1.118,1.0577,1.1693,1.356,1.4034,1.586,1.8466,2.1607,2.3473,2.4591,2.647,2.7027,2.7027,2.7208,2.7208,2.7208,2.7208,2.7377,2.7558,2.7015,2.6833,2.6833,2.7003,2.7365,2.792,2.8822,2.9015,2.9195,2.9734,2.9913,2.9913,2.9913,2.9913,2.9913,2.9913,2.9913,2.9913,2.9913,2.9913,2.9913,2.9913,2.8809,2.7883,2.6966,2.5514,2.4247,2.3515,2.3331,2.3677,2.4569,2.4569,2.5105,2.6001,2.3666,2.277,2.2943,2.4398,2.4591,2.4064,2.5696,2.5878,2.4978,2.6446,2.7702,2.8771,2.9502,3.0396,3.1657,3.2924,3.2155,3.0931,3.2183,3.1962,3.0917,-5.1042,-5.1698,-5.2024,-5.2349,-5.1349,-5.0768,-5.1358,-4.9052,-4.6888,-4.5958,-4.2228,-3.8811,-3.6452,-3.4449,-3.28,-3.1704,-3.0844,-2.997,-2.9045,-2.4598,-2.1967,-2.1967,-1.7291,-1.5103,-1.6021,-0.9034,-0.5123,-0.4751,-0.164,0.0818,0.2661,0.3266,0.4468,0.6243,0.9559,1.1092,1.1275,1.2342,1.2487,1.2288,1.1594,1.1926,1.2858,1.2578,1.4403,1.7359,1.6054,1.8643,2.2515,2.2678,2.4536,2.6773,2.6809,2.6991,2.7172,2.7727,2.7908,2.8088,2.8822,2.8629,2.8256,2.8088,2.8088,2.7908,2.7365,2.792,2.8655,2.8655,2.9375,2.9913,2.9913,2.9913,2.9913,2.9913,2.9913,2.9913,2.9913,2.9913,2.9913,2.9913,2.9913,2.9913,2.9913,2.9913,2.9182,2.7341,2.6809,2.6253,2.532,2.4763,2.4934,2.6013,2.6013,2.6013,2.6194,2.7111,2.7665,2.764,2.8,2.8218,2.8436,2.8963,2.8963,2.8436,2.8616,2.9681,3.1287,3.0945,3.2203,3.4174,3.3646,3.3822,3.4174,3.4174,3.3646,3.2955,-4.9311,-5.1095,-5.241,-5.2475,-5.0357,-4.8609,-4.9133,-4.6497,-4.4258,-4.4044,-4.1546,-3.9026,-3.6822,-3.4823,-3.2883,-3.0844,-2.9541,-2.7928,-2.6349,-2.3109,-2.0765,-1.9946,-1.4596,-1.1255,-1.024,-0.8578,-0.5903,-0.2436,-0.0805,0.1211,0.3681,0.5831,0.82,1.0449,1.1149,1.2629,1.4467,1.4527,1.3704,1.2543,1.4128,1.4065,1.2922,1.3287,1.5147,1.8119,1.9772,2.1153,2.2484,2.3928,2.4776,2.5368,2.5936,2.6354,2.7096,2.9244,3.0191,3.0725,3.1926,3.2808,3.2823,3.089,3.1081,3.0917,2.8642,2.8642,2.9195,2.9554,2.9734,2.9913,2.9913,2.9913,2.9913,2.9913,2.9554,2.9541,2.9913,2.9554,2.9554,2.9913,2.9913,2.9913,2.9913,2.9554,2.9182,2.8809,2.8629,2.8629,2.8783,2.8604,2.9143,3.0039,3.0039,3.0575,3.1834,3.1657,3.0204,2.764,2.9641,3.0025,2.8963,3.0218,2.986,2.8436,2.9694,3.0575,3.1465,3.238,3.3455,3.4174,3.4174,3.4174,3.4174,3.4174,3.3998,3.3822,-4.9288,-4.9842,-4.9917,-4.9715,-4.7424,-4.59,-4.6383,-4.3811,-4.1923,-4.1349,-3.8608,-3.6154,-3.4653,-3.3295,-3.1785,-2.9947,-2.7713,-2.5509,-2.3353,-1.979,-1.7016,-1.5434,-1.0902,-0.7537,-0.5475,-0.5248,-0.3822,-0.0802,0.0,0.2393,0.6201,0.7514,0.9836,1.3183,1.4285,1.5334,1.6328,1.6169,1.5953,1.5437,1.604,1.6153,1.6331,1.6427,1.8635,2.152,2.2342,2.3164,2.425,2.538,2.5441,2.5029,2.5997,2.714,2.841,3.0643,3.2131,3.3174,3.4052,3.475,3.4766,3.3541,3.3731,3.3219,2.99,2.9375,2.9554,2.9913,2.9734,2.9554,2.9913,2.9734,2.9734,2.9913,2.9734,2.9554,2.9913,2.9734,2.9554,2.9913,3.0093,3.0272,3.0616,3.0437,3.0258,3.0258,3.0079,3.0258,3.0794,3.0602,3.0959,3.204,3.204,3.2409,3.3117,3.294,3.2026,3.0547,3.1997,3.2012,3.0945,3.2189,3.1848,3.0602,3.1315,3.1848,3.238,3.294,3.347,3.3822,3.3646,3.347,3.347,3.347,3.347,3.347,-4.9022,-4.8127,-4.6754,-4.6301,-4.4262,-4.2854,-4.3181,-4.0998,-3.8927,-3.8165,-3.4912,-3.2504,-3.1806,-3.0997,-2.991,-2.8507,-2.5745,-2.3153,-2.077,-1.6386,-1.2827,-1.1073,-0.7635,-0.49,-0.2837,-0.1804,-0.0597,0.0794,0.1388,0.4134,0.857,0.931,1.1372,1.4545,1.6974,1.785,1.7917,1.7396,1.7981,1.8871,1.7612,1.8267,1.9906,1.993,2.2099,2.4857,2.4171,2.4629,2.5663,2.614,2.563,2.496,2.646,2.8143,3.0137,3.2221,3.4067,3.5462,3.6188,3.6362,3.6188,3.5842,3.5668,3.4797,3.1657,3.0959,3.0959,3.0616,3.0423,3.0588,3.0781,3.0602,3.0245,3.0437,3.0258,3.0272,3.0093,3.0093,3.0093,3.0093,3.0437,3.0794,3.1137,3.1137,3.1137,3.1315,3.0973,3.1151,3.2054,3.1685,3.1863,3.2763,3.2778,3.2778,3.2778,3.2778,3.2955,3.347,3.3822,3.3646,3.2955,3.3646,3.3646,3.2778,3.2778,3.2955,3.3293,3.294,3.294,3.3293,3.294,3.2778,3.2778,3.2778,3.2778,3.2778,-4.5071,-4.526,-4.5474,-4.5715,-4.2647,-4.0125,-4.0293,-3.6975,-3.4382,-3.4197,-3.157,-2.981,-3.0319,-2.9284,-2.7838,-2.605,-2.3952,-2.1608,-1.896,-1.4898,-1.2009,-1.0865,-0.81,-0.5586,-0.3925,-0.1216,0.1395,0.3926,0.5248,0.696,0.9076,1.2858,1.4805,1.4805,1.5964,1.7802,2.0327,1.8626,1.8534,1.9436,1.9789,1.9674,1.9532,2.1026,2.2647,2.4135,2.5468,2.5251,2.4463,2.4249,2.4159,2.452,2.7359,2.9353,3.1553,3.5508,3.7036,3.7586,3.9348,3.9519,3.8819,3.7086,3.674,3.6394,3.4972,3.513,3.494,3.3219,3.4417,3.562,3.4781,3.4607,3.4097,3.2543,3.2026,3.1493,3.1151,3.0794,3.0616,3.1151,3.1151,3.1151,3.0794,3.0616,3.0794,3.1315,3.1329,3.1685,3.2586,3.2586,3.2586,3.2778,3.2778,3.2778,3.2778,3.2778,3.2778,3.2955,3.3293,3.347,3.347,3.347,3.3293,3.2778,3.2778,3.2763,3.294,3.2778,3.2763,3.294,3.2763,3.2778,3.2778,3.2778,3.2778,3.2778,-3.9322,-4.1076,-4.2384,-4.121,-3.724,-3.432,-3.432,-3.1248,-2.8637,-2.7665,-2.6489,-2.5679,-2.5583,-2.4655,-2.3894,-2.3786,-2.1344,-1.8556,-1.5202,-1.2225,-0.9147,-0.6333,-0.4616,-0.2708,0.0,0.143,0.3987,0.7893,0.8273,0.9941,1.2852,1.4778,1.5927,1.6695,1.7977,1.9301,2.0305,1.9925,2.0398,2.1125,2.101,2.1449,2.2091,2.3049,2.4179,2.5577,2.6737,2.6929,2.6741,2.6983,2.7334,2.826,3.0288,3.2219,3.4126,3.6748,3.81,3.899,3.9858,3.9876,3.9689,3.9331,3.916,3.8972,3.8066,3.892,3.909,3.5967,3.5951,3.6296,3.5652,3.5288,3.494,3.4272,3.4097,3.3762,3.3058,3.3556,3.3907,3.3395,3.238,3.1685,3.1877,3.1877,3.1877,3.2054,3.2218,3.2409,3.2778,3.2778,3.2778,3.2778,3.2778,3.2778,3.2778,3.2778,3.2778,3.2778,3.294,3.3117,3.3117,3.3293,3.3293,3.2778,3.2778,3.2778,3.2778,3.2778,3.2778,3.2778,3.2778,3.3117,3.3646,3.3646,3.3646,3.347]}]]